[[{"header":{"parameterUnit":"m.s-1","parameterCategory":1,"la1":30.6,"la2":29.2853,"lo1":-89.7004,"lo2":-87.6739,"dy":0.0162,"dx":0.0183,"nx":112,"ny":82,"refTime":"2024-08-06T18:00:00:Z","depth":0,"parameterNumber":2,"parameterNumberName":"U-component_of_WINDS"},"data":[0.0,0.0,0.0,0.0,0.0,0.0,0.0,0.0,0.0,0.0,0.0,0.0,0.0,0.0,0.0,0.0,0.0,0.0,0.0,0.0,0.0,0.0,0.0,0.0,0.0,0.0,0.0,0.0,0.0,0.0,0.0,0.0,0.0,0.0,0.0,0.0,0.0,0.0,0.0,0.0,0.0,0.0,0.0,0.0,0.0,0.0,0.0,0.0,0.0,0.0,0.0,0.0,0.0,0.0,0.0,0.0,0.0,0.0,0.0,0.0,0.0,0.0,0.0,0.0,0.0,0.0,0.0,0.0,0.0,0.0,0.0,0.0,0.0,0.0,0.0,0.0,0.0,0.0,0.0,0.0,0.0,0.0,0.0,0.0,0.0,0.0,0.0,0.0,0.0,0.0,0.0,2.5112,2.8638,3.0035,2.8533,2.8411,2.6531,2.2182,0.0,0.0,0.0,0.0,0.0,0.0,0.0,0.0,0.0,0.0,0.0,0.0,0.0,0.0,0.0,0.0,0.0,0.0,0.0,0.0,0.0,0.0,0.0,0.0,0.0,0.0,0.0,0.0,0.0,0.0,0.0,0.0,0.0,0.0,0.0,0.0,0.0,0.0,0.0,0.0,0.0,0.0,0.0,0.0,0.0,0.0,0.0,0.0,0.0,0.0,0.0,0.0,0.0,0.0,0.0,0.0,0.0,0.0,0.0,0.0,0.0,0.0,0.0,0.0,0.0,0.0,0.0,0.0,0.0,0.0,0.0,0.0,0.0,0.0,0.0,0.0,0.0,0.0,0.0,0.0,0.0,0.0,0.0,0.0,0.0,0.0,0.0,0.0,0.0,0.0,0.0,0.0,0.0,0.0,0.0,0.0,0.0,0.0,0.0,0.0,0.0,0.0,0.0,0.0,1.9941,2.5717,2.822,2.8874,2.737,2.6132,2.4195,2.1247,0.0,0.0,0.0,0.0,0.0,0.0,0.0,0.0,0.0,0.0,0.0,0.0,0.0,0.0,0.0,0.0,0.0,0.0,0.0,0.0,0.0,0.0,0.0,0.0,0.0,0.0,0.0,0.0,0.0,0.0,0.0,0.0,0.0,0.0,0.0,0.0,0.0,0.0,0.0,0.0,0.0,0.0,0.0,0.0,0.0,0.0,0.0,0.0,0.0,0.0,0.0,0.0,0.0,0.0,0.0,0.0,0.0,0.0,0.0,0.0,0.0,0.0,0.0,0.0,0.0,0.0,0.0,0.0,0.0,0.0,0.0,0.0,0.0,0.0,0.0,0.0,0.0,0.0,0.0,0.0,0.0,0.0,0.0,0.0,0.0,0.0,0.0,0.0,0.0,0.0,0.0,0.0,0.0,0.0,0.0,0.0,0.0,0.0,0.0,0.0,0.0,0.0,0.0,1.9999,2.2904,2.6867,2.8081,2.8183,2.7083,2.5477,2.3467,2.1051,1.8186,0.0,0.0,0.0,0.0,0.0,0.0,0.0,0.0,0.0,0.0,0.0,0.0,0.0,0.0,0.0,0.0,0.0,0.0,0.0,0.0,0.0,0.0,0.0,0.0,0.0,0.0,0.0,0.0,0.0,0.0,0.0,0.0,0.0,0.0,0.0,0.0,0.0,0.0,0.0,0.0,0.0,0.0,0.0,0.0,0.0,0.0,0.0,0.0,0.0,0.0,0.0,0.0,0.0,0.0,0.0,0.0,0.0,0.0,0.0,0.0,0.0,0.0,0.0,0.0,0.0,0.0,0.0,0.0,0.0,0.0,0.0,0.0,0.0,0.0,0.0,0.0,0.0,0.0,0.0,0.0,0.0,0.0,0.0,0.0,0.0,0.0,0.0,0.0,0.0,0.0,0.0,0.0,0.0,0.0,0.0,0.0,0.0,0.0,0.0,0.0,0.0,0.0,2.3043,2.5116,2.7609,2.7609,2.7297,2.6878,2.4645,2.2578,2.0905,1.6424,0.0,0.0,0.0,0.0,0.0,0.0,0.0,0.0,0.0,0.0,0.0,0.0,0.0,0.0,0.0,0.0,0.0,0.0,0.0,0.0,0.0,0.0,0.0,0.0,0.0,0.0,0.0,0.0,0.0,0.0,0.0,0.0,0.0,0.0,0.0,0.0,0.0,0.0,0.0,0.0,0.0,0.0,0.0,0.0,0.0,0.0,0.0,0.0,0.0,0.0,0.0,0.0,0.0,0.0,0.0,0.0,0.0,0.0,0.0,0.0,0.0,0.0,0.0,0.0,0.0,0.0,0.0,0.0,0.0,0.0,0.0,0.0,0.0,0.0,0.0,0.0,0.0,0.0,0.0,0.0,0.0,0.0,0.0,0.0,0.0,0.0,0.0,0.0,0.0,0.0,0.0,0.0,0.0,0.0,0.0,0.0,0.0,0.0,0.0,0.0,0.0,0.0,2.2161,2.404,2.7121,2.6344,2.5741,2.6238,2.2743,2.0528,2.0427,1.4948,0.0,0.0,0.0,0.0,0.0,0.0,0.0,0.0,0.0,0.0,0.0,0.0,0.0,0.0,0.0,0.0,0.0,0.0,0.0,0.0,0.0,0.0,0.0,0.0,0.0,0.0,0.0,0.0,0.0,0.0,0.0,0.0,0.0,0.0,0.0,0.0,0.0,0.0,0.0,0.0,0.0,0.0,0.0,0.0,0.0,0.0,0.0,0.0,0.0,0.0,0.0,0.0,0.0,0.0,0.0,0.0,0.0,0.0,0.0,0.0,0.0,0.0,0.0,0.0,0.0,0.0,0.0,0.0,0.0,0.0,0.0,0.0,0.0,0.0,0.0,0.0,0.0,0.0,0.0,0.0,0.0,0.0,0.0,0.0,0.0,0.0,0.0,0.0,0.0,0.0,0.0,0.0,0.0,0.0,0.0,0.0,0.0,0.0,0.0,0.0,0.0,0.0,2.2091,2.404,0.0,2.5794,2.5106,2.612,2.2908,2.0558,1.9841,0.0,0.0,0.0,0.0,0.0,0.0,0.0,0.0,0.0,0.0,0.0,0.0,0.0,0.0,0.0,0.0,0.0,0.0,0.0,0.0,0.0,0.0,0.0,0.0,0.0,0.0,0.0,0.0,0.0,0.0,0.0,0.0,0.0,0.0,0.0,0.0,0.0,0.0,0.0,0.0,0.0,0.0,0.0,0.0,0.0,0.0,0.0,0.0,0.0,0.0,0.0,0.0,0.0,0.0,0.0,0.0,0.0,0.0,0.0,0.0,0.0,0.0,0.0,0.0,0.0,0.0,0.0,0.0,0.0,0.0,0.0,0.0,0.0,0.0,0.0,0.0,0.0,0.0,0.0,0.0,0.0,0.0,0.0,0.0,0.0,0.0,0.0,0.0,0.0,0.0,0.0,0.0,0.0,0.0,0.0,0.0,0.0,0.0,0.0,0.0,0.0,0.0,2.0557,2.2305,2.4162,0.0,2.5442,2.4787,2.6264,2.2673,2.0157,1.9669,0.0,0.0,0.0,0.0,0.0,0.0,0.0,0.0,0.0,0.0,0.0,0.0,0.0,0.0,0.0,0.0,0.0,0.0,0.0,0.0,0.0,0.0,0.0,0.0,0.0,0.0,0.0,0.0,0.0,0.0,0.0,0.0,0.0,0.0,0.0,0.0,0.0,0.0,0.0,0.0,0.0,0.0,0.0,0.0,0.0,0.0,0.0,0.0,0.0,0.0,0.0,0.0,0.0,0.0,0.0,0.0,0.0,0.0,0.0,0.0,0.0,0.0,0.0,0.0,0.0,0.0,0.0,0.0,0.0,0.0,0.0,0.0,0.0,0.0,0.0,0.0,0.0,0.0,0.0,0.0,0.0,0.0,0.0,0.0,0.0,0.0,0.0,0.0,0.0,0.0,0.0,0.0,0.0,0.0,0.0,0.0,0.0,0.0,0.0,0.0,0.0,0.0,2.1019,2.2621,2.4292,2.6711,2.5248,2.4849,2.662,2.1712,1.8967,0.0,0.0,0.0,0.0,0.0,0.0,0.0,0.0,0.0,0.0,0.0,0.0,0.0,0.0,0.0,0.0,0.0,0.0,0.0,0.0,0.0,0.0,0.0,0.0,0.0,0.0,0.0,0.0,0.0,0.0,0.0,0.0,0.0,0.0,0.0,0.0,0.0,0.0,0.0,0.0,0.0,0.0,0.0,0.0,0.0,0.0,0.0,0.0,0.0,0.0,0.0,0.0,0.0,0.0,0.0,0.0,0.0,0.0,0.0,0.0,0.0,0.0,0.0,0.0,0.0,0.0,0.0,0.0,0.0,0.0,0.0,0.0,0.0,0.0,0.0,0.0,0.0,0.0,0.0,0.0,0.0,0.0,0.0,0.0,0.0,0.0,0.0,0.0,0.0,0.0,0.0,0.0,0.0,0.0,0.0,0.0,0.0,0.0,0.0,0.0,0.0,0.0,0.0,2.0425,2.1977,2.3476,2.5518,2.4298,2.3917,2.5411,2.2364,2.0086,1.9514,0.0,0.0,0.0,0.0,0.0,0.0,0.0,0.0,0.0,0.0,0.0,0.0,0.0,0.0,0.0,0.0,0.0,0.0,0.0,0.0,0.0,0.0,0.0,0.0,0.0,0.0,0.0,0.0,0.0,0.0,0.0,0.0,0.0,0.0,0.0,0.0,0.0,0.0,0.0,0.0,0.0,0.0,0.0,0.0,0.0,0.0,0.0,0.0,0.0,0.0,0.0,0.0,0.0,0.0,0.0,0.0,0.0,0.0,0.0,0.0,0.0,0.0,0.0,0.0,0.0,0.0,0.0,0.0,0.0,0.0,0.0,0.0,0.0,0.0,0.0,0.0,0.0,0.0,0.0,0.0,0.0,0.0,0.0,0.0,0.0,0.0,0.0,0.0,0.0,0.0,0.0,0.0,0.0,0.0,0.0,0.0,0.0,0.0,0.0,0.0,0.0,0.0,2.0087,2.2055,2.374,2.5268,2.4393,2.4149,2.5094,2.2671,2.0593,1.9228,0.0,0.0,0.0,0.0,0.0,0.0,0.0,0.0,0.0,0.0,0.0,0.0,0.0,0.0,0.0,0.0,0.0,0.0,0.0,0.0,0.0,0.0,0.0,0.0,0.0,0.0,0.0,0.0,0.0,0.0,0.0,0.0,0.0,0.0,0.0,0.0,0.0,0.0,0.0,0.0,0.0,0.0,0.0,0.0,0.0,0.0,0.0,0.0,0.0,0.0,0.0,0.0,0.0,0.0,0.0,0.0,0.0,0.0,0.0,0.0,0.0,0.0,0.0,0.0,0.0,0.0,0.0,0.0,0.0,0.0,0.0,0.0,0.0,0.0,0.0,0.0,0.0,0.0,0.0,0.0,0.0,0.0,0.0,0.0,0.0,0.0,0.0,0.0,0.0,0.0,0.0,0.0,0.0,0.0,0.0,0.0,0.0,0.0,0.0,0.0,0.0,0.0,1.9978,2.2583,2.45,2.5571,2.5164,2.4914,2.5282,2.2815,2.0656,1.9252,0.0,0.0,0.0,0.0,0.0,0.0,0.0,0.0,0.0,0.0,0.0,0.0,0.0,0.0,0.0,0.0,0.0,0.0,0.0,0.0,0.0,0.0,0.0,0.0,0.0,0.0,0.0,0.0,0.0,0.0,0.0,0.0,0.0,0.0,0.0,0.0,0.0,0.0,0.0,0.0,0.0,0.0,0.0,0.0,0.0,0.0,0.0,0.0,0.0,0.0,0.0,0.0,0.0,0.0,0.0,0.0,0.0,0.0,0.0,0.0,2.3554,0.0,0.0,0.0,0.0,0.0,0.0,0.0,0.0,0.0,0.0,0.0,0.0,0.0,0.0,0.0,0.0,0.0,0.0,0.0,0.0,0.0,0.0,0.0,0.0,0.0,0.0,0.0,0.0,0.0,0.0,0.0,0.0,0.0,0.0,0.0,0.0,0.0,0.0,0.0,0.0,0.0,2.0634,2.2402,2.3799,2.4886,2.476,2.4406,2.4103,2.2486,2.102,1.9787,1.6393,0.0,0.0,0.0,0.0,0.0,0.0,0.0,0.0,0.0,0.0,0.0,0.0,0.0,0.0,0.0,0.0,0.0,0.0,0.0,0.0,0.0,0.0,0.0,0.0,0.0,0.0,0.0,0.0,0.0,0.0,0.0,0.0,0.0,0.0,0.0,0.0,0.0,0.0,0.0,0.0,0.0,0.0,0.0,0.0,0.0,0.0,0.0,0.0,0.0,0.0,0.0,0.0,0.0,0.0,0.0,0.0,0.0,0.0,0.0,0.0,2.6261,0.0,0.0,0.0,0.0,0.0,0.0,0.0,0.0,0.0,0.0,0.0,0.0,0.0,0.0,0.0,0.0,0.0,0.0,0.0,0.0,0.0,0.0,0.0,0.0,0.0,0.0,0.0,0.0,0.0,0.0,0.0,0.0,0.0,0.0,0.0,0.0,0.0,0.0,0.0,0.0,2.0758,2.2536,2.3917,2.4953,2.4946,2.469,2.4263,2.3311,2.1995,2.0177,1.7938,0.0,0.0,0.0,0.0,0.0,0.0,0.0,0.0,0.0,0.0,0.0,0.0,0.0,0.0,0.0,0.0,0.0,0.0,0.0,0.0,0.0,0.0,0.0,0.0,0.0,0.0,0.0,0.0,0.0,0.0,0.0,0.0,0.0,0.0,0.0,0.0,0.0,0.0,0.0,0.0,0.0,0.0,0.0,0.0,0.0,0.0,0.0,0.0,0.0,0.0,0.0,0.0,0.0,3.2144,3.2142,3.1857,3.2317,3.2513,3.2332,3.151,3.1063,3.073,2.8444,0.0,0.0,0.0,0.0,0.0,0.0,0.0,0.0,0.0,0.0,0.0,0.0,0.0,0.0,0.0,0.0,0.0,0.0,0.0,0.0,0.0,0.0,0.0,0.0,2.6945,2.6049,2.1785,0.0,0.0,0.0,0.0,0.0,0.0,0.0,0.0,0.0,0.0,0.0,2.1232,2.3116,2.4528,2.5393,2.5358,2.5197,2.4828,2.425,2.3006,2.0733,1.9765,1.782,0.0,0.0,0.0,0.0,0.0,0.0,0.0,0.0,0.0,0.0,0.0,0.0,0.0,0.0,0.0,0.0,0.0,0.0,0.0,0.0,0.0,0.0,0.0,0.0,0.0,0.0,0.0,0.0,0.0,0.0,0.0,0.0,2.0611,2.2119,0.0,0.0,0.0,0.0,0.0,0.0,0.0,0.0,0.0,0.0,0.0,0.0,0.0,3.1281,3.1651,3.4539,3.5993,3.6125,3.7945,3.8739,3.8713,3.8178,3.7934,3.7966,3.8049,0.0,3.1754,3.078,0.0,0.0,0.0,0.0,0.0,0.0,0.0,0.0,0.0,0.0,0.0,0.0,0.0,0.0,0.0,0.0,0.0,0.0,0.0,0.0,0.0,0.0,3.0015,3.0918,3.0244,2.9085,0.0,2.523,2.2253,2.0034,1.7881,0.0,0.0,0.0,0.0,0.0,0.0,0.0,2.321,2.4444,2.5393,2.6039,2.5787,2.5383,2.4852,2.4207,2.3209,2.1678,2.0065,1.8649,1.7578,1.5972,0.0,0.0,0.0,0.0,0.0,0.0,0.0,0.0,0.0,0.0,0.0,0.0,0.0,0.0,0.0,0.0,0.0,0.0,0.0,0.0,0.0,0.0,0.0,0.0,0.0,0.0,0.0,0.0,0.0,2.0212,2.3123,2.3581,2.3682,2.3252,0.0,0.0,0.0,0.0,0.0,0.0,0.0,0.0,0.0,3.204,3.4112,3.5547,3.6272,3.8035,3.8828,3.8634,3.9574,3.9783,3.9472,3.9124,3.8867,3.8769,3.8867,3.7655,3.5543,3.4288,3.2793,3.1118,0.0,0.0,0.0,0.0,3.0106,2.9922,3.1925,3.1964,3.0897,2.9899,0.0,0.0,0.0,0.0,0.0,0.0,0.0,0.0,0.0,0.0,3.1152,3.2227,3.1914,3.1186,3.0038,2.8536,2.637,0.0,2.2108,2.0907,1.8003,0.0,0.0,0.0,0.0,2.1955,2.3875,2.4822,2.5432,2.5836,2.5676,2.5298,2.4472,2.4097,2.3189,2.1366,2.038,1.9287,1.8014,1.6862,1.5619,0.0,0.0,0.0,0.0,0.0,0.0,0.0,0.0,0.0,0.0,0.0,0.0,0.0,0.0,0.0,0.0,0.0,0.0,0.0,0.0,0.0,0.0,0.0,0.0,0.0,0.0,0.0,0.0,2.3081,2.5511,2.5246,2.6308,2.6441,0.0,0.0,0.0,0.0,0.0,0.0,3.1835,3.3419,3.4726,3.5792,3.7621,3.8995,3.9735,4.0415,4.0651,4.044,4.0416,4.0135,3.9656,3.9461,3.9265,3.9031,3.9031,3.9031,3.8882,3.7077,3.5489,3.4053,3.2697,3.1784,3.1448,3.3171,3.3382,3.3052,3.5214,3.5554,3.4789,3.3817,3.2664,3.1353,2.9143,0.0,0.0,0.0,0.0,2.977,3.0894,3.1161,3.1509,3.2613,3.2556,3.1893,3.0811,3.0732,2.9671,0.0,2.5537,2.502,2.1528,0.0,0.0,0.0,0.0,2.309,2.4405,2.5037,2.5443,2.5557,2.537,2.4945,2.4181,2.3891,2.3003,2.1131,2.0812,1.9875,1.8209,1.7604,1.6674,1.5169,0.0,0.0,0.0,0.0,0.0,0.0,0.0,0.0,0.0,0.0,0.0,0.0,0.0,0.0,0.0,0.0,0.0,0.0,0.0,0.0,0.0,0.0,0.0,0.0,0.0,0.0,0.0,0.0,0.0,2.8196,3.0651,0.0,0.0,0.0,0.0,3.1262,3.2595,3.42,3.6182,3.7546,3.8869,4.0124,4.0345,4.0442,4.0448,4.116,4.1517,4.1517,4.1501,4.1494,4.1428,4.0758,4.0416,4.0416,4.0416,4.0416,4.0262,3.8265,3.7529,3.7654,3.6964,3.6857,3.7091,3.725,3.7187,3.7153,3.7292,3.6903,3.6484,3.6926,3.5691,3.3724,3.2615,3.1615,0.0,0.0,3.1901,3.2838,3.3387,3.28,3.2253,3.3017,3.2046,3.097,3.0869,3.1436,3.1047,0.0,2.6804,2.6072,2.4746,0.0,2.3636,2.375,2.3999,2.4481,2.5186,2.5424,2.5581,2.5606,2.4707,2.4181,2.4108,2.3475,2.2563,2.1507,2.1181,2.0446,1.9032,1.8709,1.7494,1.5257,1.4431,0.0,0.0,0.0,0.0,0.0,0.0,0.0,0.0,0.0,0.0,0.0,0.0,0.0,0.0,0.0,0.0,0.0,0.0,0.0,0.0,0.0,0.0,0.0,0.0,0.0,0.0,0.0,0.0,3.1266,3.2973,0.0,3.2332,3.3326,3.4504,3.5564,3.6894,3.8133,3.921,4.0073,4.0929,4.184,4.2326,4.278,4.3265,4.3524,4.3428,4.2969,4.2956,4.2673,4.2217,4.1934,4.1863,4.1863,4.1863,4.1863,4.1801,4.0922,3.9886,3.8692,3.7984,3.7738,3.7609,3.7623,3.7582,3.7412,3.7383,3.7255,3.7105,3.7345,3.691,3.6135,3.5794,3.504,3.4382,3.446,3.4292,3.3988,3.3696,3.3212,3.272,3.2506,3.1709,3.0895,3.0895,3.0771,3.0265,2.9151,2.8864,2.8081,2.5703,2.5719,2.5769,2.4978,2.5503,2.5951,2.5707,2.5514,2.5078,2.4414,2.3727,2.3158,2.2638,2.2285,2.148,2.0156,1.9429,1.8629,1.7716,1.7166,1.6338,1.5225,1.4061,1.2584,0.0,0.0,0.0,0.0,0.0,0.0,0.0,0.0,0.0,0.0,0.0,0.0,0.0,0.0,0.0,0.0,0.0,0.0,0.0,0.0,0.0,0.0,0.0,0.0,0.0,0.0,3.2984,3.3483,3.5461,3.6373,3.5379,3.6837,3.8176,3.8974,3.9992,4.086,4.1434,4.1967,4.2618,4.333,4.3816,4.4302,4.4787,4.4655,4.4356,4.3881,4.3605,4.3255,4.2716,4.2674,4.2602,4.2602,4.2602,4.2602,4.2602,4.2352,4.1484,4.006,3.9564,3.9052,3.8632,3.8632,3.8342,3.8093,3.8093,3.8093,3.8063,3.7823,3.7664,3.7565,3.705,3.6457,3.5926,3.5549,3.4979,3.4256,3.3508,3.3024,3.2536,3.1836,3.1119,3.0545,3.0545,3.0139,2.9779,2.9702,2.9758,2.9218,2.7243,2.7326,2.7379,2.642,2.6479,2.6428,2.5984,2.5272,2.461,2.3841,2.3199,2.2518,2.1983,2.1257,2.0426,1.9467,1.8374,1.7639,1.7242,1.6343,1.5443,1.4688,1.3108,1.1745,1.0528,0.0,0.0,0.0,0.0,0.0,0.0,0.0,0.0,0.0,0.0,0.0,0.0,0.0,0.0,0.0,0.0,0.0,0.0,0.0,0.0,0.0,0.0,0.0,3.0642,3.3205,3.511,3.5048,3.8228,3.9885,3.8493,4.0249,4.1451,4.1313,4.1796,4.2365,4.2932,4.3426,4.4075,4.4787,4.482,4.482,4.4852,4.4452,4.4285,4.4218,4.3528,4.3176,4.3105,4.2777,4.2663,4.2663,4.2663,4.2663,4.2663,4.2414,4.2193,4.2045,4.1791,4.1175,4.0427,4.0427,4.0038,3.9469,3.9469,3.9439,3.9349,3.8631,3.8281,3.7807,3.6346,3.5783,3.539,3.4321,3.4017,3.3778,3.3057,3.2319,3.155,3.1052,3.0368,2.9804,2.9804,2.9804,2.9702,2.9419,2.9419,2.9419,2.9419,2.8765,2.8268,2.8268,2.6942,0.0,2.5847,2.4893,2.4183,2.4104,2.3066,2.2323,2.2046,2.0584,1.9621,1.9511,1.8344,1.7571,1.751,1.6382,1.5047,1.3609,1.1696,1.0171,0.9076,0.0,0.0,0.0,0.0,0.0,0.0,0.0,0.0,0.0,0.0,0.0,0.0,0.0,0.0,0.0,0.0,0.0,0.0,0.0,0.0,0.0,0.0,3.4379,3.3848,3.5826,3.7698,3.8758,4.0216,4.1177,4.1342,4.2253,4.3026,4.3338,4.384,4.4235,4.4237,4.4399,4.482,4.55,4.5532,4.5791,4.6309,4.5934,4.5585,4.5334,4.4903,4.4464,4.4167,4.4093,4.4048,4.4048,4.3898,4.3822,4.3822,4.3441,4.3287,4.3119,4.2078,4.1445,4.1115,4.1115,4.0995,4.0756,4.0277,4.0054,3.9787,3.9133,3.8355,3.763,3.7204,3.6155,3.5107,3.4799,3.424,3.358,3.2906,3.2541,3.2098,3.0955,3.0539,3.0202,2.9596,2.9521,2.9443,2.9209,2.9028,2.9028,2.9131,2.9008,2.8597,2.7838,2.7298,0.0,2.5096,2.4323,2.3619,2.2828,2.2182,2.1543,2.107,1.9857,1.8869,1.8248,1.6452,1.5327,1.5234,1.4394,1.3437,1.2431,1.1474,1.0284,0.0,0.0,0.0,0.0,0.0,0.0,0.0,0.0,0.0,0.0,0.0,0.0,0.0,0.0,0.0,0.0,0.0,0.0,0.0,0.0,0.0,0.0,3.5129,3.7535,3.765,3.8725,3.9984,4.1143,4.164,4.2245,4.3211,4.3586,4.4023,4.4524,4.4821,4.5082,4.5208,4.5208,4.5532,4.6245,4.6245,4.6371,4.6652,4.6301,4.5873,4.5541,4.5453,4.5232,4.5003,4.5311,4.5434,4.5248,4.4894,4.4694,4.4539,4.3953,4.3675,0.0,0.0,0.0,0.0,0.0,4.1384,4.1324,4.089,4.0591,4.0321,3.9191,3.8323,3.765,3.6665,3.5623,3.4661,3.4338,3.3857,3.33,3.2581,3.2448,3.2158,3.114,3.0854,3.0623,2.9891,2.9688,2.9376,2.8578,2.8291,0.0,2.781,2.8051,2.7995,2.6976,2.6483,2.5819,2.4659,2.3835,2.3097,2.2534,2.1617,2.0819,2.0429,1.9068,0.0,0.0,0.0,1.4741,1.4275,1.3279,0.0,0.0,0.0,0.0,0.0,0.0,0.0,0.0,0.8093,0.7714,0.0,0.0,0.0,0.0,0.0,0.0,0.0,0.0,0.0,0.0,0.0,0.0,0.0,0.0,0.0,0.0,3.8148,4.0083,4.1375,4.1607,4.1872,4.2435,4.2609,4.3145,4.4282,4.4545,4.4781,4.5082,4.5212,4.5406,4.5888,0.0,0.0,0.0,0.0,4.6813,4.6525,4.6126,4.5761,4.5422,4.5634,4.5711,4.5711,4.6326,4.6524,4.6253,4.5672,4.5239,4.505,4.4237,4.3856,4.3717,4.3438,4.297,4.2402,4.1727,4.1441,4.1441,4.1045,0.0,0.0,3.8953,3.8201,3.7582,3.5437,3.4533,3.414,3.3351,3.3068,3.2968,3.2441,3.2315,3.2081,3.1612,3.124,3.0844,3.022,2.9854,2.9196,2.765,2.7394,2.7044,2.5819,2.6423,2.6753,2.5819,2.4999,2.4402,2.4337,2.3387,2.2706,2.253,0.0,0.0,1.9868,1.8202,1.7274,1.7454,1.6169,1.4974,1.4071,1.2808,1.1974,1.1811,1.094,1.0198,0.9571,0.9634,0.9197,0.8501,0.83,0.7634,0.0,0.0,0.0,0.0,0.0,0.0,0.0,0.0,0.0,0.0,0.0,0.0,0.0,0.0,0.0,3.6671,3.9719,4.2005,4.227,4.2833,4.3032,4.2568,4.3383,4.4146,4.4381,4.5242,4.5799,4.5864,4.6283,4.6604,4.6666,4.6666,4.7022,4.7767,4.7452,4.7493,4.7956,4.7284,4.6903,4.6826,0.0,0.0,4.6419,4.6542,4.6524,4.6284,4.6001,4.5698,4.5505,4.5139,4.4698,4.4158,4.3539,4.3269,4.3041,4.2173,4.1872,4.1622,4.0063,3.9507,3.9257,3.809,3.7145,3.63,3.5378,3.4564,0.0,3.328,3.3068,3.3043,3.2943,3.2746,3.2511,3.1963,3.1028,3.0114,2.9315,2.8517,2.7671,2.6838,2.6664,2.6278,2.4977,2.5505,2.5735,2.4914,2.4402,2.3887,2.3212,2.2794,2.2069,2.1141,2.0712,2.0001,1.8661,1.7609,1.6818,1.6536,1.4856,1.3742,1.3365,1.2576,1.1642,1.0538,1.0497,0.9774,0.8575,0.8948,0.8504,0.7332,0.8278,0.81,0.0,0.0,0.0,0.0,0.0,0.0,0.0,0.0,0.0,0.0,0.0,3.2517,3.4579,0.0,3.8148,3.9587,4.1342,4.2634,4.3032,4.3337,4.3376,4.298,4.3784,4.445,4.4685,4.5538,4.6254,4.6478,4.6767,4.7054,4.7443,4.7443,4.7696,4.8224,4.7974,4.784,4.7814,4.7355,4.7123,4.6919,4.7022,4.7096,4.7127,4.7384,4.7375,4.7098,4.6516,4.6199,4.5867,4.4892,4.4314,4.399,4.3135,4.2694,4.2578,4.1645,4.1197,4.0972,3.9869,3.9443,3.8988,3.7698,3.6928,3.6322,3.5223,3.4451,3.3847,3.3571,3.3208,3.2896,3.2896,3.2351,3.1728,3.1462,3.0425,2.9374,2.8786,2.8144,2.7368,2.6296,2.6123,2.5795,2.4682,2.473,2.4655,2.3794,2.356,2.3212,2.2706,2.198,2.123,2.0692,1.9604,1.8624,1.7827,1.6892,1.6081,1.5378,1.4472,1.366,1.2909,1.2152,1.1263,1.0439,0.9997,0.9455,0.8716,0.8339,0.7818,0.7306,0.7306,0.6638,0.0,0.0,0.0,0.0,0.0,0.0,0.0,0.0,3.1288,3.4275,3.5245,3.6285,3.8517,3.9495,4.0624,4.2435,4.2833,4.3197,4.3926,4.3806,4.3586,4.3586,4.4089,4.462,4.4952,4.5798,4.6413,4.686,4.7022,4.7378,4.7993,4.8123,4.8296,4.8637,4.8488,4.8175,4.7606,4.7528,4.7291,4.7004,4.7558,4.7804,4.7753,4.811,4.8133,4.7849,4.6851,4.6271,4.5841,4.4472,4.3833,4.3631,4.2508,4.1924,4.1653,4.0742,4.0257,3.9858,3.9448,3.9183,3.8747,3.7337,3.6845,3.6651,3.5299,3.4575,3.4109,3.4009,3.3295,3.2523,3.2523,3.152,3.0531,3.0531,2.9601,2.8571,2.8178,2.7726,2.7162,2.5879,2.5635,2.5229,2.4229,2.3746,2.3407,2.2758,2.2555,2.234,2.1802,2.0872,2.015,1.9951,1.8319,1.7261,1.7131,1.6198,1.5159,1.434,1.4138,1.3468,1.2294,1.1344,1.0712,1.0401,0.9677,0.9161,0.885,0.7945,0.7236,0.6846,0.5786,0.4711,2.5873,2.774,0.0,3.119,3.1664,3.3152,0.0,0.0,3.7446,4.0314,4.0909,4.0878,4.1067,4.1674,4.2435,4.3363,4.4026,4.4688,4.545,4.4863,4.4282,4.4158,4.4591,4.4984,4.5017,4.612,4.6864,4.6892,4.7508,4.7929,4.8026,4.8576,4.9038,4.9373,4.8961,4.8859,4.9041,4.8635,4.8389,4.8389,4.845,4.8429,4.8263,4.8271,4.8049,4.7538,4.6432,4.5393,4.4478,4.4329,4.3871,4.3273,4.2043,4.1287,4.0665,4.0005,3.9492,3.8881,3.752,3.7057,3.6964,3.6564,3.6445,3.6344,3.5629,3.5244,3.491,3.4388,3.312,3.1754,3.1754,3.0491,2.9235,2.9235,2.8308,2.7369,2.7306,2.6567,2.5816,2.5267,2.5,2.4316,2.2866,2.2416,2.2178,2.2117,2.1677,2.0911,1.9637,1.9239,1.8703,1.7777,1.7419,1.7065,1.6483,1.5316,1.4628,1.4453,1.2761,1.1426,1.0974,0.9945,0.9356,0.9321,0.9229,0.8628,0.7602,0.7606,0.6359,0.4093,0.4145,0.4049,3.1099,0.0,0.0,0.0,3.6197,3.7483,4.002,3.9951,4.0031,4.2088,4.2299,4.2261,4.2634,4.2965,4.3396,0.0,4.4489,4.4953,4.5557,4.4904,4.4125,4.3513,4.3911,4.4432,4.4854,4.5729,4.6633,4.7475,4.7831,4.8382,4.9192,4.9296,4.9448,4.9691,4.93,4.9059,4.8852,4.8687,4.8604,4.8604,4.8604,4.8521,4.8301,4.7563,4.6667,4.5689,4.5144,4.4684,4.4219,4.3654,4.3203,4.2699,4.1568,4.0736,3.9965,3.939,3.8721,3.8065,3.7406,3.6919,3.6546,3.6452,3.6358,3.6307,3.5918,3.503,3.4147,3.3717,3.23,3.0801,3.0623,2.9459,2.8296,2.7998,2.7105,2.638,2.638,2.5897,2.5275,2.4482,2.4054,2.351,2.2235,2.1807,2.1295,2.054,2.0504,2.021,1.9494,1.8827,1.8075,1.7009,1.6313,1.5875,1.5607,1.4294,1.3217,1.27,1.1689,1.0797,0.9915,0.9581,0.9398,0.9279,0.8665,0.8031,0.7493,0.6163,0.4872,0.378,0.3071,0.2835,3.4201,0.0,0.0,3.8058,3.9783,4.1035,4.1035,4.1398,4.2021,4.3059,4.2898,4.2667,4.323,4.333,4.3628,4.4522,4.4854,4.5193,4.5991,4.4978,4.397,4.3551,4.3295,4.3492,4.4399,4.5305,4.6407,4.7896,4.8188,4.8763,4.9886,4.9844,4.9783,4.9741,4.9452,4.9097,4.8604,4.8604,4.8604,4.8604,4.824,4.7988,4.7764,4.6491,4.5115,4.3937,4.3937,4.3748,4.3368,4.2598,4.211,4.194,4.1071,4.0336,3.9699,3.9242,3.8532,3.78,3.7551,3.7127,3.6558,3.6408,3.6168,3.5763,3.5596,3.4414,3.3017,3.2822,3.1457,2.9937,2.971,2.8663,2.7496,2.7125,2.6463,2.5781,2.5254,2.502,2.451,2.3384,2.2885,2.2383,2.1355,2.0861,2.0271,1.8921,1.9074,1.9247,1.8882,1.7966,1.7086,1.6299,1.5178,1.4491,1.4549,1.3214,1.2106,1.1326,1.0881,1.0288,0.9321,0.913,0.8935,0.8851,0.7644,0.6861,0.6529,0.477,0.3692,0.3325,0.2469,0.1977,0.0,0.0,3.9039,3.9851,4.1711,4.3301,4.3301,4.3687,4.3997,4.4064,4.3265,4.2535,4.2535,4.2535,4.3032,4.4456,4.516,4.5991,4.7441,4.557,4.4235,4.4919,4.3035,4.2197,0.0,4.4982,4.6407,4.7896,4.8609,4.9102,4.9469,5.0141,5.0104,4.934,4.9291,4.9097,4.8604,4.8604,4.8604,4.8604,4.7448,4.6725,4.6491,4.5052,4.3843,4.2889,4.2889,4.2333,4.1398,4.1097,4.0971,4.087,4.0389,4.0058,4.0058,3.975,3.9146,3.8209,3.7459,3.7186,3.7061,3.6533,3.5571,3.4483,3.4483,3.3377,3.205,3.205,3.0686,2.933,2.933,2.8208,2.6894,2.6565,2.6367,2.5932,2.4189,2.3782,2.3384,2.2064,2.1574,2.0979,1.9834,1.942,1.8916,1.7779,1.766,1.7445,1.6881,1.5783,1.5065,1.5065,1.405,1.3318,1.3331,1.2192,1.1434,1.1076,1.0158,0.9476,0.9257,0.8129,0.7557,0.7676,0.6368,0.5207,0.4057,0.3935,0.3325,0.21,0.1977,0.1977,0.0,0.0,4.0257,4.2523,4.3234,4.3673,4.4688,4.4529,4.3963,4.3461,4.2932,4.2369,4.1872,4.1773,4.2377,4.4174,4.464,4.537,4.7108,4.6223,4.5049,4.4302,4.3945,0.0,0.0,0.0,0.0,4.7119,4.7612,4.8327,4.9469,4.9599,4.9582,4.9291,4.9015,4.8769,4.8604,4.8604,4.8157,4.7362,4.5989,4.4995,4.4256,4.3626,4.2792,4.1769,4.167,4.1372,4.0997,4.0795,4.0491,4.0389,4.0185,3.9981,3.9775,3.9697,3.8881,3.7843,3.8166,3.7419,3.6202,3.5745,3.4662,3.3389,3.2969,3.1847,3.0845,3.0639,2.962,2.862,2.8341,2.7851,2.7117,2.5732,2.5311,2.4845,2.3254,2.2619,2.2022,2.0883,2.0193,1.9539,1.8513,1.8199,1.7779,1.6605,1.6499,1.6436,1.6248,1.5164,1.4323,1.4112,1.3158,1.2335,1.2079,1.0907,1.0239,1.007,0.8863,0.8177,0.8149,0.6892,0.6363,0.6458,0.5126,0.4282,0.3937,0.3081,0.2467,0.1977,0.1357,0.0992,0.0,4.0865,4.1576,4.4621,4.479,4.4429,4.5409,4.4606,4.3494,4.2702,4.1677,4.0845,4.0348,3.9996,4.0634,4.3284,4.376,4.4685,4.6976,4.6352,4.5438,4.4885,4.482,4.4787,0.0,0.0,0.0,4.7297,4.7854,4.8488,4.936,4.9362,4.9178,4.9015,4.8769,4.8438,4.8271,4.8072,4.716,4.5421,4.4535,4.3504,4.2501,4.2306,4.1868,4.1324,4.0997,4.0896,4.0896,4.0491,4.0287,4.0083,3.9981,3.9569,3.905,3.8921,3.8031,3.6955,3.7843,3.6916,3.5248,3.4737,3.3514,3.2197,3.181,3.0662,2.9513,2.9408,2.8475,2.7561,2.7188,2.6793,2.6129,2.4633,2.4227,2.3751,2.214,2.1506,2.094,1.9779,1.9192,1.8638,1.746,1.6908,1.6355,1.5596,1.5161,1.4984,1.5232,1.4213,1.3396,1.3178,1.2092,1.1134,1.0858,1.019,0.9453,0.8882,0.7968,0.7251,0.6966,0.5678,0.5111,0.5161,0.3937,0.3202,0.3202,0.2346,0.1852,0.1482,0.0744,0.025,4.1779,4.2422,4.3234,4.6109,4.6278,4.5645,4.5437,4.4145,4.2691,4.1688,3.9661,3.8063,0.0,0.0,3.8038,4.1716,4.2649,4.3972,4.7077,4.5992,4.5435,0.0,0.0,0.0,0.0,0.0,0.0,4.8233,0.0,4.9374,4.9278,4.9259,4.9015,4.8521,4.8521,4.8187,4.7478,4.6929,4.5421,4.3122,4.3026,4.2404,4.1324,4.1324,4.1324,4.1224,4.0997,4.0896,4.0795,4.0287,4.0083,4.0083,3.9672,3.8921,3.782,3.7477,3.6595,3.5659,3.625,3.5534,3.4267,3.367,3.2382,3.0977,3.0935,2.9688,2.8213,2.8194,2.7295,2.63,2.6045,2.5168,2.4072,2.3299,2.3108,2.2683,2.0828,2.0426,1.999,1.8725,1.838,1.7922,1.6658,1.5412,1.4622,1.4622,1.3611,1.3125,1.3909,1.2947,1.2078,1.2078,1.086,0.9909,0.9708,0.9729,0.9033,0.7397,0.739,0.6856,0.5658,0.4395,0.3815,0.3815,0.259,0.1977,0.1977,0.1977,0.1482,0.0494,0.0376,-0.0252,4.2828,4.435,4.5974,4.7293,4.665,4.5645,4.5529,4.3799,4.1485,3.8954,3.7435,3.6075,3.4419,0.0,0.0,3.9358,4.152,0.0,4.664,4.7123,0.0,0.0,0.0,4.7723,4.7245,4.7628,0.0,0.0,4.7637,4.7919,4.848,4.8655,4.8521,4.7849,4.7849,4.7306,4.6226,4.4812,4.376,4.3122,4.2208,4.1597,4.1324,4.1097,4.0997,4.0997,4.0491,4.0287,4.0287,3.9981,3.98,3.9672,3.8712,3.8031,3.7477,3.6487,3.5178,3.3823,3.3917,3.3763,3.3364,3.2895,3.1692,3.0286,2.965,2.8501,2.7362,2.7064,2.5954,2.4837,2.4727,2.4394,2.3582,2.2255,2.2015,2.1549,2.0046,1.9511,1.8897,1.7641,1.6452,1.5524,1.5186,1.4169,1.3373,1.3373,1.2365,1.1919,1.3135,1.2021,1.1036,1.0807,1.0241,0.9334,0.8084,0.806,0.7638,0.6213,0.5331,0.4645,0.4401,0.3198,0.2467,0.2467,0.2222,0.1977,0.1977,0.1234,0.0744,0.0376,-0.1133,-0.2042,4.5026,4.6312,4.7394,4.774,4.6667,4.5216,4.3675,4.1552,3.8853,3.5298,3.3853,0.0,0.0,0.0,0.0,0.0,0.0,0.0,4.5576,4.647,4.7035,0.0,4.7972,0.0,4.7606,4.7707,4.7711,0.0,4.7159,4.7262,4.7463,4.7607,4.7392,4.6872,4.6784,4.6107,4.4627,4.3341,4.2501,4.2306,4.1571,4.1324,4.1324,4.0997,4.0896,4.0896,0.0,3.975,3.9312,3.9025,3.8607,3.8056,3.7263,3.6511,3.5836,3.4958,3.362,3.2301,3.2207,3.2092,3.2052,3.1787,3.1017,2.9984,2.8935,2.7865,2.6846,2.5945,2.4641,2.3279,2.3167,2.2605,2.1813,2.0816,2.0587,2.0242,1.8868,1.8404,1.7943,1.6646,1.5257,1.4235,1.4235,1.3315,1.239,1.2264,1.1659,1.1336,1.193,1.1153,1.0179,0.9462,0.9,0.8313,0.6817,0.676,0.631,0.4979,0.4285,0.3692,0.3081,0.2346,0.1977,0.1977,0.1977,0.1734,0.1247,0.0748,-0.0,-0.0891,-0.205,-0.2852,4.7361,4.8003,4.7977,4.7754,4.6608,4.4572,4.1155,3.8583,3.5711,3.1356,0.0,0.0,2.6852,0.0,3.1821,3.4484,0.0,4.1173,4.4408,4.5192,4.5861,4.714,4.721,4.7341,4.7667,4.7332,4.7016,4.6929,4.6842,4.6755,4.6491,4.6491,4.6226,4.5689,4.5417,4.4563,4.293,4.2333,4.1796,4.1324,4.1224,4.1224,4.1224,4.0896,4.0769,4.0795,4.0058,3.9208,3.8218,3.782,3.7073,3.6077,3.5617,3.4759,3.3776,3.3077,3.2207,3.1208,3.0995,3.0762,3.0645,3.0645,3.0374,2.968,2.8333,2.7133,2.6014,2.4922,2.334,2.185,2.1561,2.0658,1.9631,1.9256,1.9127,1.8765,1.7572,1.7103,1.6632,1.5569,1.4262,1.3426,1.3426,1.2483,1.1647,1.1277,1.1027,1.0785,1.0543,1.0067,0.9387,0.8301,0.7709,0.6904,0.577,0.5651,0.5039,0.3692,0.3692,0.3204,0.21,0.1977,0.1978,0.1734,0.1734,0.1248,0.0126,-0.0,-0.0892,-0.2585,-0.2748,-0.3428,4.7631,4.8342,4.8619,4.7888,4.6608,4.438,4.0161,3.703,0.0,0.0,0.0,2.5497,2.4406,2.6459,0.0,3.3227,0.0,0.0,0.0,0.0,4.5966,0.0,0.0,0.0,0.0,0.0,0.0,0.0,0.0,4.5355,4.6403,4.6491,4.6048,4.4961,4.3464,4.2625,4.2262,4.1696,4.1424,4.1324,4.1097,4.0997,4.0997,4.0491,4.0287,4.0185,3.8896,0.0,3.782,3.6619,3.5945,3.5617,3.4403,3.362,3.3077,3.1977,3.1325,3.0995,3.0898,3.0157,2.9294,2.9294,2.8983,2.8364,2.6727,2.5255,2.4039,2.3402,2.2112,2.0851,2.06,2.0192,1.9417,1.8102,1.7806,1.7455,1.6161,1.5095,1.4262,1.4023,1.2964,1.201,1.1752,1.1511,1.1277,1.0906,0.968,0.8824,0.8708,0.869,0.8551,0.8308,0.6967,0.5636,0.4303,0.4306,0.3694,0.2469,0.2346,0.2222,0.1977,0.1977,0.1614,0.0754,0.0628,0.0127,-0.0899,-0.1668,-0.2326,-0.2755,-0.3553,-0.411,4.7631,4.8416,4.8562,4.7295,4.5496,4.2779,3.765,0.0,0.0,0.0,0.0,2.291,2.1485,0.0,0.0,0.0,0.0,0.0,0.0,0.0,0.0,0.0,0.0,0.0,0.0,0.0,0.0,0.0,0.0,4.4369,4.5355,4.4897,4.4219,4.3396,4.2262,4.1696,4.1696,4.1398,4.1198,4.1097,4.0997,4.0567,3.9802,3.939,3.8871,3.8243,3.7394,0.0,3.5859,3.509,3.4314,3.3529,3.2758,3.2322,3.2092,3.1325,3.0626,2.9785,2.9648,2.8801,2.7452,2.6608,2.6849,2.7056,2.544,2.4174,2.3172,2.2297,2.1306,2.0187,1.9438,1.9038,1.8638,1.7167,1.62,1.547,1.4759,1.3555,1.2724,1.2724,1.2122,1.1518,1.1277,1.0536,0.9923,0.9559,0.8216,0.724,0.7118,0.6385,0.6014,0.6014,0.5284,0.4306,0.3081,0.2958,0.259,0.21,0.199,0.1999,0.1999,0.151,0.0887,0.0383,-0.0128,-0.09,-0.1955,-0.2475,-0.3019,-0.3597,-0.3996,-0.4281,4.7376,4.8073,4.7925,4.6396,4.4185,4.0861,3.5202,3.1549,0.0,0.0,0.0,2.084,1.9555,0.0,0.0,0.0,0.0,0.0,0.0,0.0,0.0,0.0,0.0,0.0,0.0,0.0,0.0,0.0,0.0,0.0,4.4021,4.3259,4.2582,4.2065,4.1597,4.1324,4.1324,4.1198,4.0997,4.0567,4.0338,3.9597,3.8323,3.8007,3.737,3.6402,3.5968,0.0,3.3888,3.3572,3.2778,3.1672,3.1325,3.1092,3.0723,3.0509,2.953,2.8307,2.8051,2.7091,2.5757,2.444,2.4794,2.5635,2.4054,2.3148,2.2451,2.1507,2.0588,1.9653,1.8606,1.8089,1.7449,1.6032,1.4661,1.3514,1.3471,1.2604,1.189,1.1768,1.1386,1.089,1.0767,0.9406,0.8167,0.7803,0.6694,0.583,0.5582,0.4348,0.3479,0.3479,0.346,0.3086,0.2109,0.1986,0.1989,0.1994,0.1764,0.1647,0.1647,0.0641,-0.0,-0.0259,-0.1036,-0.2087,-0.3043,-0.3043,-0.3459,-0.4308,-0.4308,-0.4308,4.7099,4.7209,4.6471,4.5375,4.3071,3.9495,3.388,0.0,0.0,0.0,2.0362,1.961,1.9953,0.0,0.0,0.0,0.0,0.0,0.0,0.0,0.0,0.0,0.0,0.0,0.0,0.0,0.0,0.0,0.0,0.0,4.3067,4.2484,4.219,4.2065,4.1597,4.1324,4.1324,4.1097,4.0338,3.939,3.8742,3.7902,3.6834,3.6511,3.6185,3.5727,3.4648,0.0,0.0,3.2092,3.1441,3.1325,3.0995,3.0157,2.9157,2.9039,2.8068,2.6729,2.6712,2.5635,2.4193,2.3822,2.3698,2.3574,2.223,2.1587,2.1321,2.1195,2.0144,1.9042,1.8674,1.7599,1.6286,1.4702,1.3403,1.2398,1.2381,1.2381,1.213,1.1878,1.0721,0.957,0.8943,0.7668,0.6651,0.6268,0.5124,0.4229,0.4229,0.3079,0.2311,0.2311,0.2259,0.211,0.2012,0.2015,0.2026,0.2054,0.1157,0.0515,0.0515,-0.0515,-0.1427,-0.2365,-0.2496,-0.3045,-0.4163,-0.4163,-0.4168,-0.4308,-0.4308,-0.4308,4.3706,4.4625,4.4802,4.3941,4.1534,3.8175,3.347,0.0,0.0,2.1946,2.0118,1.9342,1.9893,2.0171,2.1484,0.0,0.0,0.0,0.0,0.0,0.0,0.0,0.0,0.0,0.0,0.0,0.0,0.0,0.0,0.0,4.1895,4.2092,4.1993,4.1597,4.1298,4.0769,4.0032,3.9802,3.8951,3.7583,3.737,3.6619,3.5333,3.5002,3.4447,3.3663,3.3006,0.0,0.0,3.0684,3.0001,2.9766,2.8938,2.8224,2.7727,2.7589,2.6608,2.5285,2.4917,2.3807,2.2341,2.1182,2.0803,2.0929,2.1222,2.0589,1.9814,1.9814,1.8908,1.7602,1.6604,1.5297,1.4096,1.3387,1.2842,1.2434,1.2075,1.1277,1.0637,1.0256,0.8846,0.7694,0.7444,0.6038,0.5013,0.4759,0.3734,0.2836,0.2836,0.2449,0.2064,0.2064,0.2044,0.2034,0.2045,0.1406,0.1025,0.1031,0.013,-0.0523,-0.0523,-0.158,-0.2255,-0.2667,-0.3335,-0.388,-0.4308,-0.4308,-0.4308,-0.4308,-0.4308,-0.4308,4.086,4.2103,4.2616,4.2027,3.9753,3.6537,0.0,0.0,2.4972,2.1792,2.004,1.917,1.9555,1.9746,2.064,0.0,2.3737,2.5367,2.9932,0.0,0.0,0.0,0.0,0.0,0.0,0.0,0.0,0.0,0.0,0.0,4.0997,4.0844,4.0844,4.0668,4.0465,3.9802,3.8509,3.8323,3.7477,3.6077,3.5968,3.5223,3.3818,3.3572,3.2913,3.2018,3.1305,0.0,0.0,2.9275,2.8564,2.8206,2.7246,2.6641,2.6277,2.5879,2.4917,2.3589,2.2688,2.1699,2.0576,1.8908,1.8396,1.8652,1.9559,1.9164,1.8396,1.8396,1.7496,1.6073,1.4651,1.3481,1.2808,1.2548,1.2248,1.169,1.132,0.9993,0.8828,0.857,0.7149,0.5984,0.5854,0.4559,0.3523,0.3523,0.2743,0.2091,0.2091,0.2091,0.1961,0.1698,0.1568,0.1564,0.1688,0.0909,0.026,-0.0,-0.1055,-0.1591,-0.1591,-0.2543,-0.3228,-0.3228,-0.3902,-0.4308,-0.4308,-0.4308,-0.4308,-0.4308,-0.4308,-0.4717,3.9208,3.9831,3.9758,3.9647,3.74,3.4307,0.0,2.7565,2.4312,2.1582,1.9922,1.9008,1.9008,1.9341,2.0004,2.1235,2.34,2.6162,2.9536,0.0,0.0,0.0,0.0,0.0,0.0,0.0,0.0,0.0,0.0,0.0,4.0083,3.8767,3.8323,3.9158,3.9183,3.8509,3.7002,3.6703,3.6077,3.4869,3.4692,3.3706,3.2363,3.2363,3.1903,3.1208,0.0,0.0,0.0,2.7486,2.7021,2.7021,2.6608,2.5757,2.4564,2.4193,2.3091,2.1475,2.0055,1.9291,1.878,1.7496,1.698,1.698,1.698,1.698,1.698,1.698,1.6073,1.4651,1.3227,1.284,1.27,1.2437,1.1233,1.0154,0.9757,0.8557,0.7488,0.7093,0.5897,0.4696,0.4431,0.3094,0.2154,0.2154,0.2154,0.2154,0.2154,0.2154,0.1749,0.0673,0.0538,0.0535,0.0528,0.0527,-0.0,-0.1074,-0.215,-0.2689,-0.2689,-0.3768,-0.4308,-0.4308,-0.4308,-0.4308,-0.4308,-0.4308,-0.4308,-0.4308,-0.4308,-0.5953,3.2148,3.3216,3.3811,3.3276,3.178,2.9859,2.7753,2.5394,2.2994,2.0649,1.9477,1.8979,1.9358,1.9506,2.0584,2.358,0.0,0.0,0.0,0.0,0.0,0.0,0.0,0.0,0.0,0.0,0.0,0.0,0.0,0.0,3.8558,3.7772,3.7559,3.8323,3.769,3.6811,3.5617,3.5311,3.4447,3.3119,3.3027,3.2571,3.1903,3.082,3.0217,0.0,0.0,0.0,2.7486,2.6294,2.5562,2.5301,2.4193,2.345,2.2856,2.2466,2.1461,2.0055,1.9419,1.8512,1.7367,1.6073,1.5554,1.5424,1.439,1.4782,1.5294,1.439,1.3875,1.3358,1.2964,1.1901,1.0962,1.0829,0.9624,0.8291,0.7892,0.6698,0.5496,0.5232,0.4031,0.2959,0.2825,0.2558,0.2155,0.2155,0.2155,0.1885,0.1077,0.1077,0.0673,-0.0538,-0.0538,-0.0537,-0.0534,-0.1203,-0.1874,-0.215,-0.3228,-0.3768,-0.3768,-0.4171,-0.4308,-0.4308,-0.4308,-0.4308,-0.4308,-0.4308,-0.4842,-0.5778,-0.6905,-0.8439,0.0,2.8533,2.9435,2.8942,2.7987,2.678,2.5254,2.3416,2.1462,1.9642,1.8723,1.8393,1.8948,1.9168,2.0143,2.2909,0.0,0.0,0.0,0.0,0.0,0.0,0.0,0.0,0.0,0.0,0.0,0.0,0.0,0.0,3.7156,3.6162,3.5859,3.6294,3.6077,3.5311,3.4112,3.3797,3.3254,3.2248,3.1652,3.1189,3.082,2.9375,2.8664,0.0,0.0,2.6172,0.0,2.4702,2.3961,2.3589,2.2606,2.1727,2.1082,2.0703,1.9801,1.8384,1.7742,1.685,1.5944,1.452,1.4137,1.3875,1.2561,1.3087,1.3875,1.3095,1.2297,1.1762,1.1762,1.0558,0.9094,0.8961,0.7759,0.6427,0.603,0.483,0.3763,0.3497,0.2827,0.2155,0.2155,0.2155,0.2019,0.1616,0.1616,0.1212,-0.0,-0.0134,-0.0538,-0.1613,-0.1748,-0.1882,-0.2286,-0.2554,-0.2825,-0.3228,-0.3902,-0.4308,-0.4308,-0.4308,-0.4308,-0.4308,-0.4308,-0.4308,-0.4308,-0.4867,-0.5972,-0.7491,-0.9052,-1.021,0.0,2.5317,2.6245,2.6078,2.5466,2.4557,2.3221,2.1518,0.0,1.8558,1.7765,1.7481,1.8105,1.8494,1.9158,2.0425,0.0,0.0,0.0,0.0,0.0,0.0,0.0,0.0,0.0,0.0,0.0,0.0,0.0,0.0,3.5685,3.4267,3.3523,3.3523,3.4224,3.4,3.2727,3.2363,3.2133,3.2133,3.047,2.9512,2.9139,2.7949,2.7125,0.0,2.5439,2.4702,2.4332,2.3106,2.2355,2.1853,2.1601,2.0576,1.9279,1.9036,1.8011,1.6721,1.5294,1.4782,1.452,1.3227,1.2708,1.2437,1.1497,1.1769,1.2568,1.2568,1.1365,1.0022,1.0022,0.869,0.7227,0.696,0.5763,0.4565,0.4166,0.3094,0.2155,0.2155,0.2155,0.2155,0.2155,0.2154,0.175,0.0673,0.0404,-0.0,-0.1075,-0.1209,-0.1614,-0.2689,-0.2825,-0.3228,-0.4174,-0.3362,-0.3228,-0.4174,-0.4308,-0.4308,-0.4308,-0.4308,-0.4308,-0.4308,-0.4445,-0.4448,-0.4448,-0.6134,-0.7722,-0.9342,-1.0744,-1.1518,1.7996,0.0,2.0996,2.046,2.0197,1.9943,0.0,1.9119,1.8525,0.0,0.0,1.7575,1.9246,1.9274,2.0322,0.0,0.0,0.0,0.0,0.0,0.0,0.0,0.0,0.0,0.0,0.0,0.0,0.0,0.0,3.4173,3.4177,3.3388,3.2841,3.2592,3.1842,3.1727,3.2383,3.1285,3.0568,3.01,2.8664,2.7847,2.7486,2.6277,2.5423,0.0,2.3713,2.2981,2.2606,2.2355,2.1335,2.0055,2.0055,1.9024,1.7625,1.7496,1.6592,1.5294,1.5043,1.4128,1.3227,1.2964,1.2297,1.1365,1.069,1.0558,1.0697,0.9769,0.8828,0.8158,0.8158,0.6827,0.5366,0.5366,0.4029,0.2825,0.2692,0.2423,0.2155,0.2155,0.2155,0.2155,0.2155,0.1481,0.0808,0.0539,-0.0135,-0.1076,-0.2151,-0.2286,-0.269,-0.3768,-0.3902,-0.4037,-0.4308,-0.4037,-0.4037,-0.4308,-0.4308,-0.4308,-0.4308,-0.4308,-0.4308,-0.4308,-0.5566,-0.6134,-0.6134,-0.8823,-1.0279,-1.0731,-1.2249,-1.3037,1.5981,1.7831,1.9654,1.9249,1.9124,1.9075,1.8929,0.0,0.0,0.0,0.0,0.0,1.9294,0.0,0.0,0.0,0.0,0.0,0.0,0.0,0.0,0.0,0.0,0.0,0.0,0.0,0.0,0.0,0.0,3.3476,3.3247,3.2214,3.15,3.1465,2.9941,2.9846,3.1189,2.9747,2.8902,2.8545,2.7108,2.6277,2.605,2.4735,2.3988,2.3604,2.3033,2.2057,2.1041,2.1173,2.0102,1.843,1.843,1.7455,1.6073,1.6073,1.5173,1.4006,1.4006,1.3087,1.2033,1.1762,1.0829,0.9769,0.8562,0.803,0.7764,0.803,0.7231,0.6293,0.6293,0.4964,0.3629,0.3629,0.2825,0.2155,0.2155,0.2155,0.2155,0.2155,0.175,0.1481,0.1481,0.0538,-0.0403,-0.0941,-0.1479,-0.2286,-0.3362,-0.3497,-0.3633,-0.4174,-0.4308,-0.4308,-0.4308,-0.4308,-0.4308,-0.4308,-0.4308,-0.4308,-0.4308,-0.4308,-0.4588,-0.5423,-0.7,-0.8168,-0.891,-1.0512,-1.1706,-1.2485,-1.3287,-1.3766,1.6097,1.8256,2.0256,1.9661,1.9782,1.992,1.9555,0.0,0.0,0.0,0.0,0.0,0.0,0.0,0.0,0.0,0.0,0.0,0.0,0.0,0.0,0.0,0.0,0.0,0.0,0.0,0.0,0.0,0.0,3.3032,3.2448,3.0996,3.0135,3.0017,2.8523,2.814,2.925,2.7864,2.7108,2.7108,2.5546,2.4734,2.4796,2.3583,2.2709,2.2272,0.0,0.0,1.9507,1.9736,1.876,1.6992,1.6992,1.5932,1.4697,1.4697,1.3901,1.2832,1.2568,1.1901,1.0962,1.0161,0.9099,0.7907,0.6168,0.5235,0.483,0.6293,0.5629,0.4431,0.4431,0.336,0.2155,0.2155,0.2155,0.2155,0.2155,0.2019,0.1885,0.1885,0.1076,0.0269,0.0269,-0.0672,-0.1614,-0.2554,-0.2825,-0.3228,-0.4174,-0.4308,-0.4308,-0.4308,-0.4308,-0.4311,-0.4322,-0.4322,-0.4324,-0.4333,-0.4327,-0.4459,-0.4738,-0.4873,-0.5708,-0.7,-0.8618,-1.0125,-1.1516,-1.1684,-1.2611,-1.3904,-1.3904,-1.3912,1.7608,1.9733,2.0831,1.8135,1.8851,1.9975,0.0,0.0,0.0,0.0,0.0,0.0,0.0,0.0,0.0,0.0,0.0,0.0,0.0,0.0,0.0,0.0,0.0,0.0,0.0,0.0,0.0,0.0,0.0,3.1868,3.0449,3.0157,2.9313,2.8037,2.6823,2.6215,2.6248,2.5921,2.5652,2.5423,2.3837,2.3126,2.3388,2.2936,2.1903,2.0649,0.0,1.9663,1.7894,1.7937,1.6985,1.575,1.575,1.4684,1.3319,1.3319,1.3095,1.27,1.1769,1.0962,1.0161,0.9238,0.7636,0.6168,0.5235,0.4297,0.3362,0.3094,0.2825,0.2558,0.2558,0.2423,0.2155,0.2155,0.2155,0.2155,0.2155,0.1481,0.0808,0.0808,-0.0134,-0.0807,-0.0807,-0.1748,-0.2554,-0.2689,-0.3497,-0.4171,-0.4308,-0.4308,-0.4308,-0.4308,-0.4308,-0.4327,-0.4379,-0.4384,-0.4403,-0.4452,-0.4412,-0.4953,-0.6387,-0.7631,-0.8469,-0.8761,-1.0283,-1.1214,-1.1516,-1.2932,-1.3729,-1.3904,-1.3904,-1.3985,1.5719,1.818,1.9915,1.7785,1.9977,2.2497,0.0,0.0,0.0,0.0,0.0,0.0,0.0,0.0,0.0,0.0,0.0,0.0,0.0,0.0,0.0,0.0,0.0,0.0,0.0,0.0,0.0,0.0,0.0,0.0,2.8974,2.8055,2.7297,2.6844,2.547,2.4589,2.4209,2.4169,2.4094,2.3983,2.3243,2.2426,2.1523,2.1582,2.0642,1.9032,0.0,1.8265,1.6529,1.6639,1.58,1.4475,1.4475,1.395,1.323,1.2458,1.2178,1.1769,1.03,0.9232,0.8302,0.6969,0.5637,0.4297,0.3629,0.3094,0.2558,0.2289,0.2155,0.2155,0.2155,0.2155,0.2155,0.2155,0.2155,0.2019,0.1481,0.0808,0.0269,-0.0269,-0.121,-0.2017,-0.2017,-0.2825,-0.3643,-0.367,-0.4083,-0.4368,-0.4398,-0.4401,-0.4401,-0.4401,-0.4401,-0.4414,-0.4442,-0.5273,-0.5698,-0.5733,-0.5702,-0.6391,-0.7956,-0.955,-1.0429,-1.0429,-1.1981,-1.2783,-1.2783,-1.3571,-1.3953,-1.405,-1.405,-1.4148,1.4293,1.658,1.8731,0.0,0.0,0.0,0.0,0.0,0.0,0.0,0.0,0.0,0.0,0.0,0.0,0.0,0.0,0.0,0.0,0.0,0.0,0.0,0.0,0.0,0.0,0.0,0.0,0.0,0.0,0.0,2.7398,2.6166,2.5418,2.5342,2.4187,2.3206,2.2552,2.2424,2.2438,2.2424,2.2295,2.1461,1.9879,2.0026,1.9186,1.758,1.7802,1.6897,1.5235,1.553,1.4806,1.3701,1.3701,1.3456,1.2858,1.1862,1.1177,1.0391,0.8756,0.7541,0.6333,0.4839,0.3763,0.2825,0.2289,0.2155,0.2157,0.2163,0.2165,0.2163,0.2157,0.2019,0.175,0.175,0.1616,0.1211,0.0269,-0.0135,-0.0539,-0.135,-0.2297,-0.3111,-0.3121,-0.3804,-0.4365,-0.4412,-0.4417,-0.4433,-0.4477,-0.4482,-0.4482,-0.4482,-0.4482,-0.4628,-0.5063,-0.6477,-0.7472,-0.7888,-0.7869,-0.8423,-0.9567,-1.1221,-1.1995,-1.1995,-1.3255,-1.3904,-1.3904,-1.3945,-1.4042,-1.418,-1.4221,-1.4335,1.5758,1.6675,1.7676,1.9665,0.0,0.0,0.0,0.0,0.0,0.0,0.0,0.0,0.0,0.0,0.0,0.0,0.0,0.0,0.0,0.0,0.0,0.0,0.0,0.0,0.0,0.0,0.0,0.0,0.0,0.0,2.5349,2.521,2.4471,2.2928,2.3062,2.2295,2.0722,2.0722,2.0592,2.0475,2.0215,1.9555,1.8653,1.8287,1.7451,1.6244,1.6282,1.5443,1.4022,1.4039,1.4039,1.388,1.388,1.3059,1.1902,1.1746,1.0429,0.8745,0.7547,0.6289,0.4916,0.3645,0.2825,0.2289,0.2155,0.2155,0.2161,0.2189,0.2196,0.2191,0.2162,0.1481,0.0673,0.0673,-0.0134,-0.0941,-0.0941,-0.1748,-0.2566,-0.2598,-0.3565,-0.4271,-0.4321,-0.4469,-0.4471,-0.4474,-0.4477,-0.4477,-0.4482,-0.4482,-0.4482,-0.4482,-0.4482,-0.5066,-0.6544,-0.8198,-0.9695,-1.1123,-1.1147,-1.1275,-1.1402,-1.2866,-1.3737,-1.3737,-1.3896,-1.3904,-1.3904,-1.4075,-1.4164,-1.418,-1.4343,-1.4513,1.3252,1.5158,1.7025,1.77,0.0,0.0,0.0,0.0,0.0,0.0,0.0,0.0,0.0,0.0,0.0,0.0,0.0,0.0,0.0,0.0,0.0,0.0,0.0,0.0,0.0,0.0,0.0,0.0,0.0,0.0,2.3837,2.3713,2.3319,2.2892,2.197,2.1109,2.0203,1.941,1.8444,1.7272,1.8339,1.8127,1.6807,1.6808,1.6075,1.4742,1.4742,1.4466,1.3904,1.3904,1.3904,1.3904,1.3182,1.1497,0.9377,0.9052,0.8154,0.6839,0.5285,0.4308,0.3751,0.2905,0.2349,0.2211,0.2211,0.2211,0.2074,0.1389,0.1113,0.1111,0.1106,0.0828,0.0276,-0.0414,-0.0966,-0.138,-0.2069,-0.2484,-0.304,-0.3751,-0.4172,-0.4458,-0.448,-0.4482,-0.4496,-0.4534,-0.454,-0.4553,-0.4591,-0.4597,-0.5024,-0.6023,-0.6876,-0.8174,-0.9638,-1.0407,-1.1442,-1.2888,-1.2109,-1.1959,-1.3031,-1.3611,-1.3904,-1.3904,-1.4018,-1.4075,-1.4075,-1.4253,-1.4391,-1.4513,-1.4578,-1.47,1.2184,1.4236,1.6364,0.0,0.0,0.0,0.0,0.0,0.0,0.0,0.0,0.0,0.0,0.0,0.0,0.0,0.0,0.0,0.0,0.0,0.0,0.0,0.0,0.0,0.0,0.0,0.0,0.0,0.0,0.0,0.0,2.2731,2.2454,2.2016,2.085,1.9548,1.8381,1.7467,1.6308,1.4719,1.6069,1.6079,1.5113,1.5388,1.4884,1.3904,1.3904,1.3904,1.3904,1.3174,1.2595,1.2015,1.1155,0.9518,0.7447,0.7166,0.6275,0.51,0.3813,0.3245,0.2961,0.2388,0.2245,0.2245,0.2245,0.2245,0.1966,0.0845,0.0564,0.0282,-0.0425,-0.0564,-0.0841,-0.1541,-0.2101,-0.2521,-0.3223,-0.3363,-0.3647,-0.4366,-0.4512,-0.4518,-0.4537,-0.454,-0.4553,-0.4597,-0.4602,-0.4619,-0.466,-0.5098,-0.5967,-0.7557,-0.9141,-1.0437,-1.1442,-1.2015,-1.2745,-1.3904,-1.2941,-1.2798,-1.3904,-1.3953,-1.3985,-1.3985,-1.4164,-1.4261,-1.4261,-1.4432,-1.4586,-1.4708,-1.4765,-1.4854,1.3212,1.4264,0.0,0.0,0.0,0.0,0.0,0.0,0.0,0.0,0.0,0.0,0.0,0.0,0.0,0.0,0.0,0.0,0.0,0.0,0.0,0.0,0.0,0.0,0.0,0.0,0.0,0.0,0.0,0.0,0.0,2.2606,2.1587,1.9534,1.9407,1.7999,1.4912,1.4912,1.4325,1.3368,1.3368,1.3555,1.3904,1.3904,1.3904,1.3904,1.3904,1.3904,1.3753,1.1729,0.985,0.8117,0.8117,0.7399,0.6395,0.6395,0.5093,0.3494,0.3449,0.3006,0.2286,0.2256,0.2247,0.2247,0.2247,0.2247,0.1971,0.0855,0.0429,-0.0,-0.2322,-0.2859,-0.2945,-0.2945,-0.3785,-0.4485,-0.4485,-0.4485,-0.4501,-0.4561,-0.4575,-0.4594,-0.4654,-0.4665,-0.4665,-0.4665,-0.4665,-0.4665,-0.481,-0.6112,-0.7702,-0.9147,-1.0731,-1.1592,-1.1592,-1.3039,-1.3904,-1.3904,-1.4075,-1.4099,-1.3912,-1.4083,-1.418,-1.418,-1.4351,-1.4432,-1.4432,-1.4619,-1.4708,-1.4716,-1.4887,-1.4968,1.2763,0.0,0.0,0.0,0.0,0.0,0.0,0.0,0.0,0.0,0.0,0.0,0.0,0.0,0.0,0.0,0.0,0.0,0.0,0.0,0.0,0.0,0.0,0.0,0.0,0.0,0.0,0.0,0.0,0.0,0.0,2.1082,2.017,1.9534,1.7356,1.5814,1.4912,1.3875,1.3344,1.3173,1.3311,1.3555,1.3904,1.3904,1.3904,1.3904,1.3039,1.2316,1.1729,0.9706,0.7828,0.6101,0.668,0.5522,0.3639,0.4078,0.3644,0.2622,0.2613,0.2465,0.2319,0.2309,0.2307,0.2163,0.1297,0.1009,0.0721,-0.1301,-0.1882,-0.2174,-0.3785,-0.4201,-0.4179,-0.4179,-0.4467,-0.461,-0.461,-0.461,-0.4616,-0.4632,-0.4638,-0.4643,-0.4662,-0.4665,-0.4665,-0.4665,-0.568,-0.6692,-0.7847,-0.9362,-1.0584,-1.1021,-1.2575,-1.3529,-1.3529,-1.3976,-1.4278,-1.4278,-1.4326,-1.4278,-1.4107,-1.4261,-1.4359,-1.4359,-1.4538,-1.4627,-1.4627,-1.4806,-1.4887,-1.4887,-1.4944,-1.4968,1.4144,0.0,0.0,0.0,0.0,0.0,0.0,0.0,0.0,0.0,0.0,0.0,0.0,0.0,0.0,0.0,0.0,0.0,0.0,0.0,0.0,0.0,0.0,0.0,0.0,0.0,0.0,0.0,0.0,0.0,0.0,1.9534,1.8384,1.7742,1.5804,1.4651,1.4137,1.3227,1.2921,1.3092,1.3279,1.3237,1.3082,1.3151,1.3182,1.3182,1.1736,1.0144,0.8554,0.7399,0.5808,0.4075,0.4509,0.3785,0.2333,0.2917,0.277,0.2333,0.2333,0.2333,0.2333,0.2333,0.2041,0.1458,0.0874,0.0291,-0.0437,-0.233,-0.2912,-0.3203,-0.4371,-0.4665,-0.4665,-0.4665,-0.4665,-0.4665,-0.4665,-0.4665,-0.4665,-0.4665,-0.4665,-0.4665,-0.4665,-0.5244,-0.5677,-0.5677,-0.7007,-0.8644,-1.0158,-1.1263,-1.2206,-1.2794,-1.3769,-1.4432,-1.4432,-1.4432,-1.4432,-1.4432,-1.4497,-1.4497,-1.4391,-1.4489,-1.4546,-1.4546,-1.4716,-1.4814,-1.4814,-1.4911,-1.4968,-1.4968,-1.4968,-1.4968,0.0,0.0,0.0,0.0,0.0,0.0,0.0,0.0,0.0,0.0,0.0,0.0,0.0,0.0,0.0,0.0,0.0,0.0,0.0,0.0,0.0,0.0,0.0,0.0,0.0,0.0,0.0,0.0,0.0,0.0,0.0,1.7988,1.6581,1.4903,1.4782,1.4137,1.284,1.284,1.2913,1.3076,1.3118,1.2743,1.1776,1.2094,1.2029,1.1599,0.9712,0.7399,0.509,0.4944,0.393,0.2333,0.2333,0.2333,0.2333,0.2333,0.2333,0.2333,0.2333,0.2187,0.2187,0.2187,0.1311,0.0437,0.0291,-0.0437,-0.1603,-0.2766,-0.3057,-0.335,-0.4371,-0.4665,-0.4665,-0.4665,-0.4665,-0.4665,-0.4665,-0.4665,-0.4665,-0.4665,-0.4665,-0.481,-0.4962,-0.6123,-0.714,-0.7438,-0.8826,-1.0405,-1.2026,-1.2352,-1.2813,-1.4308,-1.4473,-1.4481,-1.4481,-1.4481,-1.4481,-1.4481,-1.4635,-1.4732,-1.4732,-1.4732,-1.4732,-1.4732,-1.4887,-1.4968,-1.4968,-1.4968,-1.4968,-1.4968,-1.5113,-1.5275,0.0,0.0,0.0,0.0,0.0,0.0,0.0,0.0,0.0,0.0,0.0,0.0,0.0,0.0,0.0,0.0,0.0,0.0,0.0,0.0,0.0,0.0,0.0,0.0,0.0,0.0,0.0,0.0,0.0,0.0,1.7613,1.6203,1.5294,1.4912,1.3875,1.3095,1.284,1.284,1.2856,0.0,1.2262,1.1467,1.0783,1.1761,1.0875,0.8564,0.6825,0.5235,0.3789,0.3205,0.2622,0.2333,0.2333,0.2333,0.2333,0.2333,0.2333,0.2333,0.2333,0.175,0.102,0.102,0.0146,-0.102,-0.1893,-0.233,-0.2768,-0.3935,-0.4371,-0.4371,-0.4665,-0.4665,-0.4665,-0.4665,-0.4665,-0.4665,-0.4665,-0.4665,-0.4665,-0.4665,-0.4665,-0.5113,-0.6481,-0.6933,-0.7984,-1.0595,-1.1379,-1.2155,-1.3683,-1.4105,-1.4342,-1.4651,-1.4773,-1.4846,-1.4846,-1.4846,-1.4846,-1.4846,-1.4887,-1.4911,-1.4911,-1.4911,-1.4911,-1.4911,-1.4944,-1.4968,-1.4968,-1.4968,-1.4968,-1.4968,-1.6339,-1.7033,0.0,0.0,0.0,0.0,0.0,0.0,0.0,0.0,0.0,0.0,0.0,0.0,0.0,0.0,0.0,0.0,0.0,0.0,0.0,0.0,0.0,0.0,0.0,0.0,0.0,0.0,0.0,0.0,0.0,1.6969,1.6073,1.4651,1.3875,1.3875,1.3227,1.284,1.284,1.284,1.2568,1.2033,1.1256,1.0079,0.8454,0.9198,0.7986,0.5528,0.4805,0.3787,0.2917,0.2478,0.2333,0.2333,0.2333,0.2333,0.2333,0.2333,0.2333,0.2187,0.1604,0.1166,0.0437,-0.0146,-0.102,-0.2186,-0.2766,-0.335,-0.3932,-0.4517,-0.4665,-0.4665,-0.4665,-0.4665,-0.4665,-0.4665,-0.4665,-0.4665,-0.4665,-0.4665,-0.4962,-0.572,-0.5873,-0.6485,-0.8192,-0.9102,-1.0482,-1.3028,-1.3357,-1.3687,-1.4525,-1.4773,-1.483,-1.483,-1.4911,-1.4968,-1.4968,-1.4968,-1.4968,-1.4968,-1.4968,-1.4968,-1.4968,-1.4968,-1.4968,-1.4968,-1.4968,-1.4968,-1.4968,-1.4968,-1.542,-1.6186,-1.7195,-1.8067,0.0,0.0,0.0,0.0,0.0,0.0,0.0,0.0,0.0,0.0,0.0,0.0,0.0,0.0,0.0,0.0,0.0,0.0,0.0,0.0,0.0,0.0,0.0,0.0,0.0,0.0,0.0,0.0,0.0,1.4782,1.452,1.349,1.284,1.284,1.284,1.27,1.2568,1.2568,1.2033,1.0969,1.004,0.8306,0.5827,0.576,0.4939,0.35,0.3354,0.2917,0.2333,0.2333,0.2333,0.2333,0.2333,0.2333,0.2333,0.2333,0.2187,0.1895,0.0874,0.0291,-0.0146,-0.1166,-0.2331,-0.3203,-0.3203,-0.3932,-0.4665,-0.4665,-0.4665,-0.4668,-0.4679,-0.4679,-0.4681,-0.4692,-0.4988,-0.5128,-0.4827,-0.4979,-0.5586,-0.6969,-0.7734,-0.8513,-0.9955,-1.1495,-1.3071,-1.4573,-1.4757,-1.4806,-1.4944,-1.4968,-1.4968,-1.4968,-1.4968,-1.4968,-1.4968,-1.4968,-1.4968,-1.4968,-1.4968,-1.4968,-1.4968,-1.4968,-1.4968,-1.4968,-1.4968,-1.4968,-1.4968,-1.5267,-1.605,-1.7464,-1.8241,-1.944,0.0,0.0,0.0,0.0,0.0,0.0,0.0,0.0,0.0,0.0,0.0,0.0,0.0,0.0,0.0,0.0,0.0,0.0,0.0,0.0,0.0,0.0,0.0,0.0,0.0,0.0,0.0,0.0,1.5033,1.439,1.3095,1.2832,1.284,1.284,1.284,1.2305,1.1365,1.1365,1.0836,0.9775,0.7612,0.5526,0.3654,0.3135,0.3031,0.35,0.2771,0.2333,0.2333,0.2333,0.2333,0.2333,0.2333,0.2333,0.2333,0.2333,0.1604,0.0874,0.0583,-0.0728,-0.2475,-0.2621,-0.3496,-0.4517,-0.4517,-0.4519,-0.4665,-0.4665,-0.4665,-0.4676,-0.473,-0.4744,-0.4758,-0.4809,-0.5866,-0.6593,-0.5049,-0.5972,-0.7061,-0.7223,-0.9699,-1.175,-1.2072,-1.3413,-1.475,-1.4927,-1.4927,-1.4944,-1.496,-1.4968,-1.4968,-1.4968,-1.4968,-1.4968,-1.4968,-1.4968,-1.4968,-1.4968,-1.4968,-1.4968,-1.4968,-1.4968,-1.4968,-1.4968,-1.4968,-1.4968,-1.4968,-1.6339,-1.7339,-1.7826,-2.0769,-2.2401,0.0,0.0,0.0,0.0,0.0,0.0,0.0,0.0,0.0,0.0,0.0,0.0,0.0,0.0,0.0,0.0,0.0,0.0,0.0,0.0,0.0,0.0,0.0,0.0,0.0,0.0,0.0,0.0,1.3744,1.3481,1.2832,1.284,1.284,1.284,1.2165,1.163,1.1233,1.0571,0.9371,0.7507,0.6262,0.456,0.2666,0.2844,0.2881,0.2771,0.2478,0.2333,0.2333,0.2333,0.2333,0.2333,0.2333,0.2333,0.2187,0.1604,0.102,0.0437,-0.0874,-0.2039,-0.3057,-0.3641,-0.4226,-0.4665,-0.4665,-0.4665,-0.467,-0.4706,-0.4714,-0.473,-0.479,-0.4807,-0.4807,-0.4809,-0.6057,-0.7604,-0.845,-0.859,-0.906,-1.0028,-1.2126,-1.3923,-1.3923,-1.4452,-1.4968,-1.4968,-1.4968,-1.4968,-1.4968,-1.4968,-1.4968,-1.4968,-1.4968,-1.4968,-1.4968,-1.4968,-1.4968,-1.4968,-1.4968,-1.4968,-1.4968,-1.4968,-1.5017,-1.5114,-1.5932,-1.588,-1.4968,-1.755,-1.8876,-1.9244,-2.1693,-2.3674,0.0,0.0,0.0,0.0,0.0,0.0,0.0,0.0,0.0,0.0,0.0,0.0,0.0,0.0,0.0,0.0,0.0,0.0,0.0,0.0,0.0,0.0,0.0,0.0,0.0,0.0,0.0,0.0,1.284,1.284,1.284,1.284,1.284,1.284,1.1769,1.1101,1.0836,0.9244,0.7507,0.5503,0.5159,0.3996,0.2247,0.2835,0.2873,0.2333,0.2333,0.2333,0.2333,0.2333,0.2333,0.2333,0.2041,0.1895,0.175,0.0583,-0.0,-0.0583,-0.233,-0.3057,-0.3496,-0.4371,-0.4665,-0.4665,-0.4665,-0.4665,-0.4676,-0.4739,-0.4755,-0.4774,-0.485,-0.517,-0.5468,-0.5449,-0.7181,-0.9244,-1.1352,-1.1138,-1.0975,-1.2754,-1.4099,-1.4968,-1.4968,-1.4968,-1.4968,-1.4968,-1.4968,-1.4968,-1.4968,-1.4968,-1.4968,-1.4968,-1.4968,-1.4968,-1.4968,-1.4968,-1.4968,-1.4968,-1.4968,-1.4984,-1.5033,-1.5033,-1.5269,-1.592,-1.7479,-1.7395,-1.5717,-1.8612,-2.0419,-2.1123,-2.3019,-2.4675,0.0,0.0,0.0,0.0,0.0,0.0,0.0,0.0,0.0,0.0,0.0,0.0,0.0,0.0,0.0,0.0,0.0,0.0,0.0,0.0,0.0,0.0,0.0,0.0,0.0,0.0,0.0,0.0,1.284,1.284,1.284,1.284,1.284,1.284,1.1769,1.0704,0.9643,0.6982,0.5245,0.4434,0.3633,0.287,0.2245,0.2247,0.2278,0.2333,0.2333,0.2333,0.2333,0.2333,0.2333,0.2187,0.1166,0.0729,0.0583,-0.0729,-0.1749,-0.2766,-0.2912,-0.3641,-0.4665,-0.4665,-0.4665,-0.4665,-0.4665,-0.4665,-0.4676,-0.4739,-0.4755,-0.4782,-0.4902,-0.5999,-0.7241,-0.7321,-0.9826,-1.2313,-1.2467,-1.2467,-1.293,-1.4483,-1.496,-1.4968,-1.4968,-1.4968,-1.4968,-1.4968,-1.4968,-1.4968,-1.4968,-1.4968,-1.4968,-1.4968,-1.4968,-1.4968,-1.4968,-1.4968,-1.4968,-1.4968,-1.4968,-1.5041,-1.522,-1.5228,-1.6077,-1.7835,-1.9542,-1.9532,-1.7974,-1.9688,-2.1369,-2.3357,-2.5127,-2.6092,0.0,0.0,0.0,0.0,0.0,0.0,0.0,0.0,0.0,0.0,0.0,0.0,0.0,0.0,0.0,0.0,0.0,0.0,0.0,0.0,0.0,0.0,0.0,0.0,0.0,0.0,0.0,0.0,0.0,1.284,1.284,1.284,1.2437,1.1769,1.0704,0.9111,0.6982,0.5915,0.4842,0.3631,0.3362,0.2868,0.2245,0.2245,0.2277,0.2187,0.1458,0.1604,0.2187,0.1458,0.1166,0.102,-0.0146,-0.0583,-0.0729,-0.1893,-0.2621,-0.3057,-0.3787,-0.4371,-0.4665,-0.4665,-0.4692,-0.4722,-0.4722,-0.4749,-0.4793,-0.4853,-0.5625,-0.6557,-0.6512,-0.7774,-0.9325,-1.0452,-1.2583,-1.4213,-1.4068,-1.4037,-1.4345,-1.4814,-1.4968,-1.4968,-1.4968,-1.4968,-1.4968,-1.4968,-1.4968,-1.4968,-1.4968,-1.4968,-1.4968,-1.4968,-1.4968,-1.5017,-1.513,-1.5139,-1.5187,-1.5309,-1.5317,-1.5814,-1.6957,-1.7123,-1.7993,-1.9937,-2.0411,-2.0494,-1.973,-2.2388,-2.3618,-2.3563,-2.5153,-2.6106,0.0,0.0,0.0,0.0,0.0,0.0,0.0,0.0,0.0,0.0,0.0,0.0,0.0,0.0,0.0,0.0,0.0,0.0,0.0,0.0,0.0,0.0,0.0,0.0,0.0,0.0,0.0,0.0,0.0,0.0,1.284,1.2437,1.1637,1.0167,0.9377,0.7912,0.5383,0.5111,0.4437,0.3228,0.2959,0.2595,0.2245,0.2245,0.1992,0.175,0.0874,0.102,0.1604,0.0437,-0.0,-0.0146,-0.1311,-0.1749,-0.1894,-0.3059,-0.3496,-0.3641,-0.4371,-0.4665,-0.4668,-0.4687,-0.4722,-0.4758,-0.4779,-0.4815,-0.4858,-0.5529,-0.6616,-0.7552,-0.811,-0.9558,-1.1299,-1.2958,-1.4353,-1.5236,-1.5017,-1.5017,-1.5041,-1.4976,-1.4968,-1.4968,-1.4968,-1.4968,-1.4968,-1.4968,-1.4968,-1.4968,-1.4968,-1.4968,-1.4992,-1.5049,-1.5057,-1.513,-1.5317,-1.5333,-1.5382,-1.5504,-1.5981,-1.6951,-1.8116,-1.8739,-1.9947,-2.193,-2.1941,-2.2179,-2.2647,-2.4221,-2.4803,-2.4497,-2.5623,-2.6199,0.0,0.0,0.0,0.0,0.0,0.0,0.0,0.0,0.0,0.0,0.0,0.0,0.0,0.0,0.0,0.0,0.0,0.0,0.0,0.0,0.0,0.0,0.0,0.0,0.0,0.0,0.0,0.0,1.2832,1.2708,1.2708,1.1769,1.0167,0.8041,0.7912,0.7111,0.5379,0.4705,0.39,0.3228,0.2558,0.2187,0.2244,0.2105,0.1565,0.0583,0.0583,0.0437,0.0437,-0.0729,-0.1311,-0.1311,-0.2475,-0.2912,-0.3057,-0.4226,-0.4665,-0.4665,-0.4665,-0.4665,-0.4673,-0.4736,-0.4758,-0.4768,-0.4828,-0.485,-0.5164,-0.6903,-0.7536,-0.8013,-0.9656,-1.1491,-1.3297,-1.4692,-1.5106,-1.5187,-1.5009,-1.5106,-1.5187,-1.5,-1.4968,-1.4968,-1.4968,-1.4968,-1.4968,-1.4968,-1.4968,-1.4968,-1.4976,-1.4976,-1.5041,-1.5228,-1.5244,-1.5325,-1.5504,-1.552,-1.552,-1.5528,-1.725,-1.8274,-1.8493,-2.0241,-2.1941,-2.3816,-2.3816,-2.4773,-2.6386,-2.4773,-2.4786,-2.6386,-2.6386,-2.6386,0.6764,0.0,0.0,0.0,0.0,0.0,0.0,0.0,0.0,0.0,0.0,0.0,0.0,0.0,0.0,0.0,0.0,0.0,0.0,0.0,0.0,0.0,0.0,0.0,0.0,0.0,0.0,0.0,1.2033,1.163,1.163,0.9902,0.8573,0.8046,0.6715,0.5915,0.5379,0.4168,0.3362,0.3228,0.2558,0.2174,0.2213,0.1396,0.0849,0.0431,-0.116,-0.1893,-0.1893,-0.233,-0.2475,-0.2477,-0.3787,-0.4226,-0.4226,-0.4519,-0.4665,-0.4665,-0.4665,-0.4665,-0.4673,-0.4736,-0.4785,-0.4831,-0.4894,-0.5707,-0.6829,-0.7317,-0.9176,-1.1503,-1.3245,-1.4068,-1.4562,-1.4976,-1.5106,-1.5187,-1.5009,-1.5106,-1.5187,-1.5,-1.4968,-1.4968,-1.4968,-1.4968,-1.4968,-1.4968,-1.4968,-1.5017,-1.5147,-1.5163,-1.5236,-1.5423,-1.5439,-1.5512,-1.5691,-1.6816,-1.7673,-1.7809,-1.9423,-2.0889,-2.2248,-2.2739,-2.3891,-2.5581,-2.574,-2.5911,-2.6386,-2.5911,-2.5911,-2.6386,-2.6386,-2.6386,0.758,0.7849,0.0,0.0,0.0,0.0,0.0,0.0,0.0,0.0,0.0,0.0,0.0,0.0,0.0,0.0,0.0,0.0,0.0,0.0,0.0,0.0,0.0,0.0,0.0,1.2791,1.2568,1.2165,1.1497,1.0829,0.9902,0.8706,0.7779,0.7383,0.6451,0.5647,0.5379,0.4303,0.3497,0.3228,0.2558,0.1899,0.1513,0.0835,-0.0,-0.1001,-0.2318,-0.3203,-0.3641,-0.3641,-0.3641,-0.3787,-0.4371,-0.4665,-0.4665,-0.4665,-0.4665,-0.4665,-0.4665,-0.4665,-0.4679,-0.4766,-0.4818,-0.5013,-0.5714,-0.67,-0.7825,-0.9221,-1.1553,-1.3722,-1.4806,-1.5025,-1.5057,-1.4984,-1.5106,-1.5187,-1.5009,-1.5049,-1.509,-1.4984,-1.4968,-1.4968,-1.4968,-1.4968,-1.4992,-1.5065,-1.5082,-1.5147,-1.5333,-1.5358,-1.5423,-1.5601,-1.5626,-1.6013,-1.6828,-1.7971,-1.8827,-1.9592,-2.1383,-2.2682,-2.3816,-2.4455,-2.5422,-2.6386,-2.6386,-2.6386,-2.6386,-2.6386,-2.6386,-2.6386,-2.6386,-2.6386,0.8743,0.8861,0.0,0.0,0.0,0.0,1.0627,1.011,0.0,0.0,0.0,0.0,0.0,0.0,0.0,0.0,0.0,0.0,0.0,0.0,0.0,0.0,0.0,0.0,1.2403,1.2572,1.2142,1.1073,1.0955,0.9902,0.7912,0.7779,0.7383,0.6585,0.6455,0.6053,0.5513,0.4571,0.39,0.3362,0.2423,0.149,0.0549,0.0278,-0.0987,-0.2856,-0.304,-0.3641,-0.4665,-0.4665,-0.4665,-0.4665,-0.4665,-0.4665,-0.4665,-0.4665,-0.4665,-0.4665,-0.4665,-0.4668,-0.4692,-0.4957,-0.515,-0.5483,-0.7154,-0.7981,-0.8759,-1.1863,-1.3876,-1.4968,-1.4968,-1.5082,-1.5171,-1.5,-1.509,-1.5163,-1.5,-1.4968,-1.4968,-1.4968,-1.4968,-1.4968,-1.4968,-1.4984,-1.5049,-1.5212,-1.5252,-1.5333,-1.552,-1.5545,-1.561,-1.6104,-1.612,-1.6828,-1.877,-1.9105,-1.9755,-2.1383,-2.3164,-2.4136,-2.4136,-2.5581,-2.6386,-2.6386,-2.6386,-2.6386,-2.6386,-2.6386,-2.6386,-2.6386,-2.6386,-2.6386,0.982,0.996,1.0153,0.9561,0.0,0.0,0.9195,0.9292,0.0,0.0,0.0,0.0,0.0,0.0,0.0,0.0,0.0,0.0,0.0,0.0,0.0,0.0,0.0,0.0,1.1195,1.1221,1.0918,0.9869,0.9048,0.8046,0.6853,0.6853,0.6719,0.6455,0.5915,0.5781,0.6321,0.4437,0.3631,0.4031,0.1884,0.0674,0.0406,-0.1386,-0.2526,-0.2959,-0.3896,-0.4517,-0.4665,-0.4665,-0.4665,-0.4665,-0.4665,-0.4665,-0.4665,-0.4665,-0.4665,-0.4665,-0.4665,-0.4698,-0.5043,-0.6316,-0.6842,-0.7221,-0.9026,-1.0463,-1.2017,-1.3876,-1.4806,-1.4968,-1.4968,-1.4992,-1.5009,-1.4976,-1.4992,-1.5009,-1.4976,-1.4968,-1.4968,-1.4968,-1.4968,-1.4968,-1.4968,-1.509,-1.5195,-1.5236,-1.5366,-1.5528,-1.5699,-1.5723,-1.6266,-1.79,-1.8082,-1.8741,-2.0565,-2.2028,-2.3003,-2.3324,-2.4945,-2.5911,-2.5911,-2.6228,-2.6386,-2.6386,-2.6386,-2.6386,-2.6386,-2.6386,-2.6386,-2.6386,-2.6386,-2.6386,1.0864,1.0896,1.1079,1.0713,0.0,0.0,0.0,0.0,0.0,0.0,0.0,0.0,0.0,0.0,0.0,0.0,0.0,0.0,0.0,0.0,0.0,0.0,0.0,0.0,1.0652,1.0301,0.9685,0.8785,0.7802,0.6934,0.6585,0.6455,0.6455,0.6455,0.6183,0.6183,0.6455,0.4166,0.309,0.3492,0.0941,-0.0538,-0.1077,-0.2354,-0.3223,-0.379,-0.4467,-0.4665,-0.4665,-0.4665,-0.4665,-0.4665,-0.4665,-0.4665,-0.4665,-0.4665,-0.4665,-0.4668,-0.47,-0.5317,-0.6099,-0.7117,-0.7951,-0.8928,-1.0732,-1.2481,-1.3876,-1.4806,-1.4968,-1.4968,-1.4968,-1.4968,-1.4968,-1.4968,-1.4968,-1.4968,-1.4968,-1.4968,-1.4968,-1.4968,-1.4968,-1.4968,-1.4968,-1.5114,-1.5268,-1.5366,-1.5528,-1.5707,-1.5886,-1.6709,-1.7548,-1.8454,-1.943,-2.0565,-2.235,-2.3324,-2.4136,-2.5104,-2.5911,-2.6386,-2.6386,-2.6386,-2.6386,-2.6386,-2.6386,-2.6386,-2.6386,-2.6386,-2.6386,-2.6386,-2.6386,-2.6386,0.0,0.0,0.0,0.0,0.0,1.1176,0.0,0.0,0.0,1.1155,0.0,0.0,0.0,0.0,0.0,0.0,0.0,0.0,0.0,0.0,0.0,0.0,0.0,0.0,0.0,0.8883,0.8228,0.7542,0.6717,0.6239,0.6419,0.6427,0.6435,0.6451,0.6455,0.6321,0.6049,0.3895,0.2551,0.2283,-0.0269,-0.1882,-0.2692,-0.3045,-0.3643,-0.4491,-0.461,-0.4665,-0.4665,-0.4665,-0.4665,-0.4665,-0.4665,-0.4665,-0.4665,-0.4679,-0.4681,-0.4836,-0.5194,-0.611,-0.7331,-0.8089,-0.9529,-1.1103,-1.2601,-1.3876,-1.4968,-1.4968,-1.4968,-1.4968,-1.4968,-1.4968,-1.4968,-1.4968,-1.4968,-1.4968,-1.4968,-1.4968,-1.4968,-1.4968,-1.4968,-1.4968,-1.4968,-1.5147,-1.5342,-1.5496,-1.5691,-1.6041,-1.6508,-1.7656,-1.8789,-1.9592,-2.0888,-2.235,-2.4136,-2.4295,-2.4945,-2.6386,-2.6386,-2.6386,-2.6386,-2.6386,-2.6386,-2.6386,-2.6386,-2.6386,-2.6386,-2.6386,-2.6386,-2.6386,-2.6386,-2.6386,0.0,0.0,0.0,0.0,1.2608,0.0,0.0,0.0,1.095,1.0261,0.0,0.0,0.0,0.0,0.0,0.0,0.0,0.0,0.0,0.0,0.0,0.0,0.0,0.0,0.0,0.626,0.5771,0.6168,0.5782,0.5814,0.6304,0.6333,0.637,0.6451,0.6455,0.5915,0.4568,0.3358,0.2014,0.0672,-0.1478,-0.2554,-0.2692,-0.3873,-0.4343,-0.4491,-0.461,-0.4665,-0.4665,-0.4665,-0.4665,-0.4665,-0.4665,-0.4665,-0.467,-0.4725,-0.4744,-0.5049,-0.6455,-0.7129,-0.7807,-1.0878,-1.2963,-1.4475,-1.4645,-1.4806,-1.4968,-1.4968,-1.4968,-1.4968,-1.4968,-1.4968,-1.4968,-1.4968,-1.4968,-1.4968,-1.4968,-1.4968,-1.4968,-1.4968,-1.4968,-1.4968,-1.4968,-1.5252,-1.5496,-1.5512,-1.5796,-1.6508,-1.8137,-1.8463,-1.9755,-2.2843,-2.3324,-2.4136,-2.5911,-2.607,-2.6228,-2.6386,-2.6386,-2.6386,-2.6386,-2.6386,-2.6386,-2.6386,-2.6386,-2.6386,-2.6386,-2.6386,-2.6386,-2.6386,-2.6386,-2.6386,0.0,0.0,0.0,0.0,0.0,0.0,1.1575,0.0,1.1144,0.0,0.0,0.0,0.0,0.0,0.0,0.0,0.0,0.0,0.0,0.0,0.0,0.0,0.0,0.0,0.0,0.0,0.0,0.0,0.55,0.5569,0.6059,0.6182,0.628,0.637,0.5622,0.4973,0.43,0.2014,0.0403,-0.0403,-0.242,-0.3497,-0.3636,-0.429,-0.4482,-0.4491,-0.461,-0.4665,-0.4665,-0.4665,-0.4665,-0.4665,-0.4665,-0.4665,-0.4673,-0.4733,-0.5345,-0.6244,-0.7121,-0.8716,-1.0744,-1.3123,-1.4436,-1.4968,-1.4968,-1.4968,-1.4968,-1.4968,-1.4968,-1.4968,-1.4968,-1.4968,-1.4968,-1.4968,-1.4968,-1.4968,-1.4968,-1.4968,-1.4968,-1.4968,-1.5049,-1.5122,-1.5122,-1.5342,-1.5553,-1.565,-1.6683,-1.7819,-1.8463,-2.0403,-2.2189,-2.3656,-2.4773,-2.5581,-2.6386,-2.6386,-2.6386,-2.6386,-2.6386,-2.6386,-2.6386,-2.6386,-2.6386,-2.6386,-2.6386,-2.6386,-2.6386,-2.6386,-2.6386,-2.6386,-2.6386,-2.6386,1.3771,0.0,0.0,0.0,0.0,0.0,0.0,0.0,0.0,0.0,0.0,0.0,0.0,0.0,0.0,0.0,0.0,0.0,0.0,0.0,0.0,0.0,0.0,0.0,0.0,0.0,0.0,0.0,0.0,0.5247,0.5847,0.6023,0.6042,0.5784,0.4803,0.3897,0.309,0.0672,-0.0941,-0.1748,-0.3094,-0.4037,-0.4311,-0.4428,-0.4482,-0.4491,-0.461,-0.4665,-0.4665,-0.4665,-0.4665,-0.481,-0.5098,-0.511,-0.4841,-0.5348,-0.6273,-0.7352,-0.8426,-1.0632,-1.3261,-1.4613,-1.4968,-1.4968,-1.4968,-1.4968,-1.4968,-1.4968,-1.4968,-1.4968,-1.4968,-1.4968,-1.4968,-1.4968,-1.4968,-1.4968,-1.4968,-1.4968,-1.4968,-1.4968,-1.5114,-1.5409,-1.592,-1.6089,-1.6267,-1.6555,-1.8179,-1.943,-1.9917,-2.2189,-2.3976,-2.4455,-2.5581,-2.6386,-2.6386,-2.6386,-2.6386,-2.6386,-2.6386,-2.6386,-2.6386,-2.6386,-2.6386,-2.6386,-2.6386,-2.6386,-2.6386,-2.6386,-2.6386,-2.6386,-2.6386,-2.6386,0.0,0.0,0.0,1.3125,0.0,0.0,0.0,0.0,1.2242,0.0,0.0,0.0,0.0,0.0,0.6375,0.5566,0.0,0.0,0.0,0.0,0.0,0.0,0.0,0.0,0.0,0.0,0.0,0.0,0.0,0.0,0.5733,0.5876,0.5416,0.4336,0.4267,0.2956,0.0134,-0.0269,-0.1344,-0.3094,-0.3633,-0.4037,-0.4311,-0.4428,-0.4482,-0.4491,-0.461,-0.4665,-0.4665,-0.4665,-0.4665,-0.481,-0.6402,-0.6012,-0.5054,-0.6612,-0.7292,-0.7842,-1.1189,-1.3406,-1.496,-1.496,-1.4968,-1.4968,-1.4968,-1.4968,-1.4968,-1.4968,-1.4968,-1.4968,-1.4968,-1.4968,-1.4968,-1.4968,-1.4968,-1.4968,-1.4968,-1.4968,-1.4968,-1.4968,-1.5114,-1.5755,-1.765,-1.8182,-1.8324,-1.8333,-1.9947,-2.1706,-2.3484,-2.3656,-2.4455,-2.607,-2.6386,-2.6386,-2.6386,-2.6386,-2.6386,-2.6386,-2.6386,-2.6386,-2.6386,-2.6386,-2.6386,-2.6386,-2.6386,-2.6386,-2.6386,-2.6386,-2.6386,-2.6386,-2.6386,-2.6386,0.0,0.0,1.2641,1.2354,0.0,0.0,0.0,0.0,0.0,0.0,0.0,0.0,0.0,0.805,0.6349,0.5622,0.4737,0.3947,0.0,0.0,0.0,0.0,0.0,0.0,0.0,0.0,0.0,0.0,0.4549,0.0,0.0,0.478,0.4362,0.3957,0.2377,0.0941,-0.0,-0.1076,-0.2153,-0.3228,-0.3362,-0.3768,-0.4311,-0.4428,-0.4482,-0.4491,-0.461,-0.4665,-0.4665,-0.4665,-0.5244,-0.6257,-0.6833,-0.7361,-0.8099,-0.8581,-0.896,-0.9534,-1.2895,-1.4499,-1.4968,-1.4968,-1.4968,-1.4968,-1.4968,-1.4968,-1.4968,-1.4968,-1.4968,-1.4968,-1.4968,-1.4968,-1.5,-1.5114,-1.5057,-1.5,-1.5122,-1.5147,-1.5147,-1.5147,-1.632,-1.719,-1.6621,-1.9514,-2.1585,-2.046,-2.1811,-2.3164,-2.3656,-2.4786,-2.574,-2.6386,-2.6386,-2.6386,-2.6386,-2.6386,-2.6386,-2.6386,-2.6386,-2.6386,-2.6386,-2.6386,-2.6386,-2.6386,-2.6386,-2.6386,-2.6386,-2.6386,-2.6386,-2.6386,-2.6386,-2.6386,1.2566,1.2105,0.0,1.1586,1.144,0.0,1.1123,0.0,1.1579,0.0,0.0,0.0,0.0,0.0,0.5946,0.5432,0.4536,0.3744,0.0,0.3418,0.0,0.0,0.0,0.0,0.0,0.0,0.405,0.4455,0.0,0.0,0.0,0.0,0.333,0.2517,0.092,-0.0269,-0.0807,-0.175,-0.2558,-0.3228,-0.3228,-0.3633,-0.4311,-0.4428,-0.4482,-0.4491,-0.461,-0.4665,-0.4665,-0.4665,-0.5677,-0.7127,-0.7738,-0.8587,-0.9639,-1.0243,-1.0956,-1.2046,-1.4306,-1.4968,-1.4968,-1.4968,-1.4968,-1.4968,-1.4968,-1.4968,-1.4968,-1.4968,-1.4968,-1.4968,-1.4968,-1.5017,-1.509,-1.5212,-1.5204,-1.5195,-1.5309,-1.5333,-1.5333,-1.5333,-1.6995,-1.8173,-1.7682,-2.106,-2.3164,-2.1383,-2.3164,-2.4786,-2.4786,-2.574,-2.6386,-2.6386,-2.6386,-2.6386,-2.6386,-2.6386,-2.6386,-2.6386,-2.6386,-2.6386,-2.6386,-2.6386,-2.6386,-2.6386,-2.6386,-2.6386,-2.6386,-2.6386,-2.6386,-2.6386,-2.6386,-2.6386]},{"header":{"parameterUnit":"m.s-1","parameterCategory":1,"la1":30.6,"la2":29.2853,"lo1":-89.7004,"lo2":-87.6739,"dy":0.0162,"dx":0.0183,"nx":112,"ny":82,"refTime":"2024-08-06T18:00:00:Z","depth":0,"parameterNumber":3,"parameterNumberName":"V-component_of_WINDS"},"data":[0.0,0.0,0.0,0.0,0.0,0.0,0.0,0.0,0.0,0.0,0.0,0.0,0.0,0.0,0.0,0.0,0.0,0.0,0.0,0.0,0.0,0.0,0.0,0.0,0.0,0.0,0.0,0.0,0.0,0.0,0.0,0.0,0.0,0.0,0.0,0.0,0.0,0.0,0.0,0.0,0.0,0.0,0.0,0.0,0.0,0.0,0.0,0.0,0.0,0.0,0.0,0.0,0.0,0.0,0.0,0.0,0.0,0.0,0.0,0.0,0.0,0.0,0.0,0.0,0.0,0.0,0.0,0.0,0.0,0.0,0.0,0.0,0.0,0.0,0.0,0.0,0.0,0.0,0.0,0.0,0.0,0.0,0.0,0.0,0.0,0.0,0.0,0.0,0.0,0.0,0.0,-1.5464,-1.7636,-1.8496,-1.7657,-1.8362,-1.7312,-1.3593,0.0,0.0,0.0,0.0,0.0,0.0,0.0,0.0,0.0,0.0,0.0,0.0,0.0,0.0,0.0,0.0,0.0,0.0,0.0,0.0,0.0,0.0,0.0,0.0,0.0,0.0,0.0,0.0,0.0,0.0,0.0,0.0,0.0,0.0,0.0,0.0,0.0,0.0,0.0,0.0,0.0,0.0,0.0,0.0,0.0,0.0,0.0,0.0,0.0,0.0,0.0,0.0,0.0,0.0,0.0,0.0,0.0,0.0,0.0,0.0,0.0,0.0,0.0,0.0,0.0,0.0,0.0,0.0,0.0,0.0,0.0,0.0,0.0,0.0,0.0,0.0,0.0,0.0,0.0,0.0,0.0,0.0,0.0,0.0,0.0,0.0,0.0,0.0,0.0,0.0,0.0,0.0,0.0,0.0,0.0,0.0,0.0,0.0,0.0,0.0,0.0,0.0,0.0,0.0,-1.4488,-1.903,-2.0036,-2.0124,-1.9343,-1.8726,-1.7338,-1.4808,0.0,0.0,0.0,0.0,0.0,0.0,0.0,0.0,0.0,0.0,0.0,0.0,0.0,0.0,0.0,0.0,0.0,0.0,0.0,0.0,0.0,0.0,0.0,0.0,0.0,0.0,0.0,0.0,0.0,0.0,0.0,0.0,0.0,0.0,0.0,0.0,0.0,0.0,0.0,0.0,0.0,0.0,0.0,0.0,0.0,0.0,0.0,0.0,0.0,0.0,0.0,0.0,0.0,0.0,0.0,0.0,0.0,0.0,0.0,0.0,0.0,0.0,0.0,0.0,0.0,0.0,0.0,0.0,0.0,0.0,0.0,0.0,0.0,0.0,0.0,0.0,0.0,0.0,0.0,0.0,0.0,0.0,0.0,0.0,0.0,0.0,0.0,0.0,0.0,0.0,0.0,0.0,0.0,0.0,0.0,0.0,0.0,0.0,0.0,0.0,0.0,0.0,0.0,-1.4003,-1.6187,-1.9971,-2.0496,-2.0289,-1.9677,-1.9025,-1.7604,-1.5085,-1.3642,0.0,0.0,0.0,0.0,0.0,0.0,0.0,0.0,0.0,0.0,0.0,0.0,0.0,0.0,0.0,0.0,0.0,0.0,0.0,0.0,0.0,0.0,0.0,0.0,0.0,0.0,0.0,0.0,0.0,0.0,0.0,0.0,0.0,0.0,0.0,0.0,0.0,0.0,0.0,0.0,0.0,0.0,0.0,0.0,0.0,0.0,0.0,0.0,0.0,0.0,0.0,0.0,0.0,0.0,0.0,0.0,0.0,0.0,0.0,0.0,0.0,0.0,0.0,0.0,0.0,0.0,0.0,0.0,0.0,0.0,0.0,0.0,0.0,0.0,0.0,0.0,0.0,0.0,0.0,0.0,0.0,0.0,0.0,0.0,0.0,0.0,0.0,0.0,0.0,0.0,0.0,0.0,0.0,0.0,0.0,0.0,0.0,0.0,0.0,0.0,0.0,0.0,-1.6665,-1.7998,-2.0805,-2.0805,-2.057,-2.0346,-1.9341,-1.7799,-1.5682,-1.336,0.0,0.0,0.0,0.0,0.0,0.0,0.0,0.0,0.0,0.0,0.0,0.0,0.0,0.0,0.0,0.0,0.0,0.0,0.0,0.0,0.0,0.0,0.0,0.0,0.0,0.0,0.0,0.0,0.0,0.0,0.0,0.0,0.0,0.0,0.0,0.0,0.0,0.0,0.0,0.0,0.0,0.0,0.0,0.0,0.0,0.0,0.0,0.0,0.0,0.0,0.0,0.0,0.0,0.0,0.0,0.0,0.0,0.0,0.0,0.0,0.0,0.0,0.0,0.0,0.0,0.0,0.0,0.0,0.0,0.0,0.0,0.0,0.0,0.0,0.0,0.0,0.0,0.0,0.0,0.0,0.0,0.0,0.0,0.0,0.0,0.0,0.0,0.0,0.0,0.0,0.0,0.0,0.0,0.0,0.0,0.0,0.0,0.0,0.0,0.0,0.0,0.0,-1.7945,-1.9905,-2.2858,-2.2204,-2.1888,-2.2509,-1.9683,-1.7766,-1.7524,-1.3051,0.0,0.0,0.0,0.0,0.0,0.0,0.0,0.0,0.0,0.0,0.0,0.0,0.0,0.0,0.0,0.0,0.0,0.0,0.0,0.0,0.0,0.0,0.0,0.0,0.0,0.0,0.0,0.0,0.0,0.0,0.0,0.0,0.0,0.0,0.0,0.0,0.0,0.0,0.0,0.0,0.0,0.0,0.0,0.0,0.0,0.0,0.0,0.0,0.0,0.0,0.0,0.0,0.0,0.0,0.0,0.0,0.0,0.0,0.0,0.0,0.0,0.0,0.0,0.0,0.0,0.0,0.0,0.0,0.0,0.0,0.0,0.0,0.0,0.0,0.0,0.0,0.0,0.0,0.0,0.0,0.0,0.0,0.0,0.0,0.0,0.0,0.0,0.0,0.0,0.0,0.0,0.0,0.0,0.0,0.0,0.0,0.0,0.0,0.0,0.0,0.0,0.0,-1.7969,-1.9905,0.0,-2.2127,-2.1728,-2.2706,-2.0089,-1.8029,-1.7247,0.0,0.0,0.0,0.0,0.0,0.0,0.0,0.0,0.0,0.0,0.0,0.0,0.0,0.0,0.0,0.0,0.0,0.0,0.0,0.0,0.0,0.0,0.0,0.0,0.0,0.0,0.0,0.0,0.0,0.0,0.0,0.0,0.0,0.0,0.0,0.0,0.0,0.0,0.0,0.0,0.0,0.0,0.0,0.0,0.0,0.0,0.0,0.0,0.0,0.0,0.0,0.0,0.0,0.0,0.0,0.0,0.0,0.0,0.0,0.0,0.0,0.0,0.0,0.0,0.0,0.0,0.0,0.0,0.0,0.0,0.0,0.0,0.0,0.0,0.0,0.0,0.0,0.0,0.0,0.0,0.0,0.0,0.0,0.0,0.0,0.0,0.0,0.0,0.0,0.0,0.0,0.0,0.0,0.0,0.0,0.0,0.0,0.0,0.0,0.0,0.0,0.0,-1.6945,-1.8387,-2.0185,0.0,-2.2116,-2.1738,-2.3134,-2.0237,-1.807,-1.7325,0.0,0.0,0.0,0.0,0.0,0.0,0.0,0.0,0.0,0.0,0.0,0.0,0.0,0.0,0.0,0.0,0.0,0.0,0.0,0.0,0.0,0.0,0.0,0.0,0.0,0.0,0.0,0.0,0.0,0.0,0.0,0.0,0.0,0.0,0.0,0.0,0.0,0.0,0.0,0.0,0.0,0.0,0.0,0.0,0.0,0.0,0.0,0.0,0.0,0.0,0.0,0.0,0.0,0.0,0.0,0.0,0.0,0.0,0.0,0.0,0.0,0.0,0.0,0.0,0.0,0.0,0.0,0.0,0.0,0.0,0.0,0.0,0.0,0.0,0.0,0.0,0.0,0.0,0.0,0.0,0.0,0.0,0.0,0.0,0.0,0.0,0.0,0.0,0.0,0.0,0.0,0.0,0.0,0.0,0.0,0.0,0.0,0.0,0.0,0.0,0.0,0.0,-1.7794,-1.9406,-2.1117,-2.3632,-2.2337,-2.2081,-2.3968,-2.0247,-1.792,0.0,0.0,0.0,0.0,0.0,0.0,0.0,0.0,0.0,0.0,0.0,0.0,0.0,0.0,0.0,0.0,0.0,0.0,0.0,0.0,0.0,0.0,0.0,0.0,0.0,0.0,0.0,0.0,0.0,0.0,0.0,0.0,0.0,0.0,0.0,0.0,0.0,0.0,0.0,0.0,0.0,0.0,0.0,0.0,0.0,0.0,0.0,0.0,0.0,0.0,0.0,0.0,0.0,0.0,0.0,0.0,0.0,0.0,0.0,0.0,0.0,0.0,0.0,0.0,0.0,0.0,0.0,0.0,0.0,0.0,0.0,0.0,0.0,0.0,0.0,0.0,0.0,0.0,0.0,0.0,0.0,0.0,0.0,0.0,0.0,0.0,0.0,0.0,0.0,0.0,0.0,0.0,0.0,0.0,0.0,0.0,0.0,0.0,0.0,0.0,0.0,0.0,0.0,-1.8472,-2.0764,-2.2869,-2.4859,-2.3982,-2.3813,-2.519,-2.2658,-2.0351,-1.8762,0.0,0.0,0.0,0.0,0.0,0.0,0.0,0.0,0.0,0.0,0.0,0.0,0.0,0.0,0.0,0.0,0.0,0.0,0.0,0.0,0.0,0.0,0.0,0.0,0.0,0.0,0.0,0.0,0.0,0.0,0.0,0.0,0.0,0.0,0.0,0.0,0.0,0.0,0.0,0.0,0.0,0.0,0.0,0.0,0.0,0.0,0.0,0.0,0.0,0.0,0.0,0.0,0.0,0.0,0.0,0.0,0.0,0.0,0.0,0.0,0.0,0.0,0.0,0.0,0.0,0.0,0.0,0.0,0.0,0.0,0.0,0.0,0.0,0.0,0.0,0.0,0.0,0.0,0.0,0.0,0.0,0.0,0.0,0.0,0.0,0.0,0.0,0.0,0.0,0.0,0.0,0.0,0.0,0.0,0.0,0.0,0.0,0.0,0.0,0.0,0.0,0.0,-1.8896,-2.1863,-2.4263,-2.5938,-2.5371,-2.5226,-2.6214,-2.4312,-2.2083,-1.9824,0.0,0.0,0.0,0.0,0.0,0.0,0.0,0.0,0.0,0.0,0.0,0.0,0.0,0.0,0.0,0.0,0.0,0.0,0.0,0.0,0.0,0.0,0.0,0.0,0.0,0.0,0.0,0.0,0.0,0.0,0.0,0.0,0.0,0.0,0.0,0.0,0.0,0.0,0.0,0.0,0.0,0.0,0.0,0.0,0.0,0.0,0.0,0.0,0.0,0.0,0.0,0.0,0.0,0.0,0.0,0.0,0.0,0.0,0.0,0.0,0.0,0.0,0.0,0.0,0.0,0.0,0.0,0.0,0.0,0.0,0.0,0.0,0.0,0.0,0.0,0.0,0.0,0.0,0.0,0.0,0.0,0.0,0.0,0.0,0.0,0.0,0.0,0.0,0.0,0.0,0.0,0.0,0.0,0.0,0.0,0.0,0.0,0.0,0.0,0.0,0.0,0.0,-1.9293,-2.2881,-2.5593,-2.6946,-2.6633,-2.66,-2.7111,-2.545,-2.345,-2.1194,0.0,0.0,0.0,0.0,0.0,0.0,0.0,0.0,0.0,0.0,0.0,0.0,0.0,0.0,0.0,0.0,0.0,0.0,0.0,0.0,0.0,0.0,0.0,0.0,0.0,0.0,0.0,0.0,0.0,0.0,0.0,0.0,0.0,0.0,0.0,0.0,0.0,0.0,0.0,0.0,0.0,0.0,0.0,0.0,0.0,0.0,0.0,0.0,0.0,0.0,0.0,0.0,0.0,0.0,0.0,0.0,0.0,0.0,0.0,0.0,-1.479,0.0,0.0,0.0,0.0,0.0,0.0,0.0,0.0,0.0,0.0,0.0,0.0,0.0,0.0,0.0,0.0,0.0,0.0,0.0,0.0,0.0,0.0,0.0,0.0,0.0,0.0,0.0,0.0,0.0,0.0,0.0,0.0,0.0,0.0,0.0,0.0,0.0,0.0,0.0,0.0,0.0,-2.1181,-2.4771,-2.7499,-2.8882,-2.899,-2.883,-2.8472,-2.7278,-2.55,-2.3066,-2.0702,0.0,0.0,0.0,0.0,0.0,0.0,0.0,0.0,0.0,0.0,0.0,0.0,0.0,0.0,0.0,0.0,0.0,0.0,0.0,0.0,0.0,0.0,0.0,0.0,0.0,0.0,0.0,0.0,0.0,0.0,0.0,0.0,0.0,0.0,0.0,0.0,0.0,0.0,0.0,0.0,0.0,0.0,0.0,0.0,0.0,0.0,0.0,0.0,0.0,0.0,0.0,0.0,0.0,0.0,0.0,0.0,0.0,0.0,0.0,0.0,-1.6649,0.0,0.0,0.0,0.0,0.0,0.0,0.0,0.0,0.0,0.0,0.0,0.0,0.0,0.0,0.0,0.0,0.0,0.0,0.0,0.0,0.0,0.0,0.0,0.0,0.0,0.0,0.0,0.0,0.0,0.0,0.0,0.0,0.0,0.0,0.0,0.0,0.0,0.0,0.0,0.0,-2.1875,-2.5698,-2.8629,-3.0003,-3.0262,-3.0219,-2.9963,-2.9175,-2.7776,-2.5826,-2.4241,0.0,0.0,0.0,0.0,0.0,0.0,0.0,0.0,0.0,0.0,0.0,0.0,0.0,0.0,0.0,0.0,0.0,0.0,0.0,0.0,0.0,0.0,0.0,0.0,0.0,0.0,0.0,0.0,0.0,0.0,0.0,0.0,0.0,0.0,0.0,0.0,0.0,0.0,0.0,0.0,0.0,0.0,0.0,0.0,0.0,0.0,0.0,0.0,0.0,0.0,0.0,0.0,0.0,-1.9988,-2.0576,-2.1086,-2.1593,-2.2555,-2.3815,-2.1254,-2.0658,-2.1219,-1.7947,0.0,0.0,0.0,0.0,0.0,0.0,0.0,0.0,0.0,0.0,0.0,0.0,0.0,0.0,0.0,0.0,0.0,0.0,0.0,0.0,0.0,0.0,0.0,0.0,-2.5459,-2.5265,-2.0226,0.0,0.0,0.0,0.0,0.0,0.0,0.0,0.0,0.0,0.0,0.0,-2.2769,-2.6592,-2.9492,-3.0805,-3.1036,-3.1116,-3.1213,-3.0624,-2.9713,-2.8537,-2.7838,-2.605,0.0,0.0,0.0,0.0,0.0,0.0,0.0,0.0,0.0,0.0,0.0,0.0,0.0,0.0,0.0,0.0,0.0,0.0,0.0,0.0,0.0,0.0,0.0,0.0,0.0,0.0,0.0,0.0,0.0,0.0,0.0,0.0,-1.2568,-1.3621,0.0,0.0,0.0,0.0,0.0,0.0,0.0,0.0,0.0,0.0,0.0,0.0,0.0,-1.8702,-1.8459,-2.1165,-2.26,-2.2683,-2.5474,-2.6874,-2.6981,-2.7865,-2.8327,-2.848,-2.7644,0.0,-2.3283,-2.2363,0.0,0.0,0.0,0.0,0.0,0.0,0.0,0.0,0.0,0.0,0.0,0.0,0.0,0.0,0.0,0.0,0.0,0.0,0.0,0.0,0.0,0.0,-2.9367,-2.7717,-2.8451,-2.9085,0.0,-2.4258,-2.121,-2.0566,-1.8843,0.0,0.0,0.0,0.0,0.0,0.0,0.0,-2.5778,-2.8747,-3.0805,-3.1588,-3.1845,-3.1769,-3.1243,-3.0707,-3.0247,-2.9975,-2.9058,-2.8176,-2.7197,-2.645,0.0,0.0,0.0,0.0,0.0,0.0,0.0,0.0,0.0,0.0,0.0,0.0,0.0,0.0,0.0,0.0,0.0,0.0,0.0,0.0,0.0,0.0,0.0,0.0,0.0,0.0,0.0,0.0,0.0,-1.1787,-1.362,-1.445,-1.4584,-1.4389,0.0,0.0,0.0,0.0,0.0,0.0,0.0,0.0,0.0,-2.0807,-2.1627,-2.2428,-2.3108,-2.47,-2.57,-2.6059,-2.7453,-2.8377,-2.881,-2.9215,-2.9555,-2.9748,-2.9555,-2.8633,-2.715,-2.4912,-2.3176,-2.1891,0.0,0.0,0.0,0.0,-2.0885,-2.1147,-2.3839,-2.4306,-2.3708,-2.3465,0.0,0.0,0.0,0.0,0.0,0.0,0.0,0.0,0.0,0.0,-2.9821,-2.9531,-3.0551,-3.1459,-3.1378,-2.9679,-2.7426,0.0,-2.3501,-2.184,-1.8888,0.0,0.0,0.0,0.0,-2.449,-2.7225,-2.9451,-3.1127,-3.1905,-3.2135,-3.2235,-3.2329,-3.2123,-3.2064,-3.228,-3.1989,-3.1474,-3.0735,-2.9955,-2.8323,0.0,0.0,0.0,0.0,0.0,0.0,0.0,0.0,0.0,0.0,0.0,0.0,0.0,0.0,0.0,0.0,0.0,0.0,0.0,0.0,0.0,0.0,0.0,0.0,0.0,0.0,0.0,0.0,-1.346,-1.4952,-1.5471,-1.628,-1.6362,0.0,0.0,0.0,0.0,0.0,0.0,-2.0477,-2.1188,-2.2336,-2.3916,-2.4548,-2.5445,-2.6802,-2.7261,-2.7679,-2.8054,-2.8431,-2.9026,-2.9612,-2.9871,-3.0129,-3.0494,-3.0494,-3.0494,-3.0241,-2.7186,-2.5784,-2.5429,-2.3647,-2.2776,-2.264,-2.399,-2.4365,-2.4681,-2.7512,-2.8154,-2.7673,-2.7262,-2.6451,-2.5276,-2.3599,0.0,0.0,0.0,0.0,-2.5651,-2.662,-2.8554,-3.0295,-3.0949,-3.2132,-3.317,-3.3331,-3.3245,-3.2098,0.0,-2.7992,-2.6714,-2.3187,0.0,0.0,0.0,0.0,-2.6562,-2.8575,-3.0238,-3.142,-3.213,-3.2327,-3.2656,-3.313,-3.3339,-3.3627,-3.4147,-3.4297,-3.4081,-3.3362,-3.2934,-3.1526,-2.914,0.0,0.0,0.0,0.0,0.0,0.0,0.0,0.0,0.0,0.0,0.0,0.0,0.0,0.0,0.0,0.0,0.0,0.0,0.0,0.0,0.0,0.0,0.0,0.0,0.0,0.0,0.0,0.0,0.0,-1.7533,-1.906,0.0,0.0,0.0,0.0,-1.963,-2.0665,-2.1998,-2.3609,-2.4734,-2.5849,-2.7064,-2.7085,-2.7151,-2.7282,-2.7763,-2.8003,-2.8003,-2.9466,-3.0147,-3.0237,-3.1134,-3.1577,-3.1577,-3.1577,-3.1577,-3.1456,-2.9762,-2.8797,-2.8245,-2.7602,-2.7025,-2.6702,-2.8197,-2.8793,-2.9027,-3.0604,-3.0829,-3.0478,-3.0984,-2.9291,-2.7066,-2.7005,-2.5946,0.0,0.0,-2.7487,-2.8672,-2.9409,-3.1263,-3.2821,-3.2164,-3.3185,-3.4245,-3.4283,-3.3711,-3.3004,0.0,-3.1662,-3.0798,-2.9361,0.0,-2.7071,-2.8055,-2.8099,-2.8664,-3.0418,-3.1536,-3.216,-3.2191,-3.2788,-3.313,-3.3182,-3.3681,-3.4252,-3.4925,-3.5078,-3.5059,-3.4871,-3.5001,-3.3786,-3.1109,-2.9425,0.0,0.0,0.0,0.0,0.0,0.0,0.0,0.0,0.0,0.0,0.0,0.0,0.0,0.0,0.0,0.0,0.0,0.0,0.0,0.0,0.0,0.0,0.0,0.0,0.0,0.0,0.0,0.0,-1.9254,-2.0504,0.0,-2.0203,-2.0824,-2.1665,-2.2548,-2.3731,-2.4764,-2.583,-2.6649,-2.7477,-2.8222,-2.8549,-2.8855,-2.9183,-2.9358,-2.9708,-3.0368,-3.0924,-3.1577,-3.2248,-3.2616,-3.2707,-3.2707,-3.2707,-3.2707,-3.2659,-3.2261,-3.1303,-3.023,-2.9677,-2.9484,-2.9649,-3.0196,-3.0433,-3.0704,-3.1229,-3.126,-3.1135,-3.1336,-3.0698,-2.992,-2.9902,-2.9402,-2.885,-2.9302,-2.9678,-3.0203,-3.0877,-3.1793,-3.2577,-3.2791,-3.3561,-3.4312,-3.4312,-3.4476,-3.4662,-3.4435,-3.3499,-3.2161,-3.0496,-3.038,-3.044,-3.0033,-3.0664,-3.1762,-3.3352,-3.3401,-3.3584,-3.407,-3.3886,-3.3853,-3.4202,-3.448,-3.4712,-3.4912,-3.5232,-3.5221,-3.477,-3.5001,-3.4447,-3.3027,-3.1581,-2.9115,0.0,0.0,0.0,0.0,0.0,0.0,0.0,0.0,0.0,0.0,0.0,0.0,0.0,0.0,0.0,0.0,0.0,0.0,0.0,0.0,0.0,0.0,0.0,0.0,0.0,0.0,-2.0411,-2.072,-2.2051,-2.2729,-2.2108,-2.3018,-2.3971,-2.4829,-2.5847,-2.6662,-2.7424,-2.8174,-2.8746,-2.9226,-2.9554,-2.9882,-3.0209,-3.0405,-3.0771,-3.1445,-3.1826,-3.23,-3.3074,-3.3191,-3.3284,-3.3284,-3.3284,-3.3284,-3.3284,-3.3538,-3.2998,-3.2152,-3.1896,-3.1907,-3.1988,-3.1988,-3.2031,-3.1964,-3.1964,-3.1964,-3.1938,-3.1738,-3.1744,-3.1801,-3.1924,-3.1832,-3.1785,-3.2149,-3.2193,-3.2225,-3.25,-3.288,-3.3254,-3.3548,-3.4109,-3.4677,-3.4677,-3.5133,-3.5489,-3.5554,-3.4842,-3.376,-3.2467,-3.2856,-3.3066,-3.2337,-3.2993,-3.3979,-3.4955,-3.4944,-3.4984,-3.5513,-3.5049,-3.4841,-3.5181,-3.5031,-3.5026,-3.5301,-3.5486,-3.5378,-3.4964,-3.5049,-3.4686,-3.3781,-3.2242,-3.0597,-2.8925,0.0,0.0,0.0,0.0,0.0,0.0,0.0,0.0,0.0,0.0,0.0,0.0,0.0,0.0,0.0,0.0,0.0,0.0,0.0,0.0,0.0,0.0,0.0,-1.9147,-2.0648,-2.1727,-2.1901,-2.3888,-2.4923,-2.4053,-2.515,-2.6027,-2.6319,-2.7013,-2.7644,-2.8416,-2.9154,-2.9729,-3.0209,-3.0231,-3.0231,-3.0253,-3.0838,-3.1009,-3.1105,-3.2063,-3.2536,-3.263,-3.3122,-3.3332,-3.3332,-3.3332,-3.3332,-3.3332,-3.3586,-3.3863,-3.4047,-3.4297,-3.4245,-3.3922,-3.3922,-3.3596,-3.3119,-3.3119,-3.3093,-3.3018,-3.2416,-3.2407,-3.272,-3.3014,-3.3223,-3.3584,-3.4621,-3.492,-3.4826,-3.4381,-3.481,-3.5194,-3.4486,-3.4935,-3.5519,-3.5519,-3.5519,-3.5554,-3.5688,-3.5688,-3.5688,-3.5688,-3.5364,-3.5064,-3.5064,-3.5112,0.0,-3.525,-3.5883,-3.6365,-3.6417,-3.6206,-3.6073,-3.6152,-3.5296,-3.5215,-3.6122,-3.5809,-3.563,-3.5703,-3.5332,-3.4605,-3.3472,-3.1492,-3.1073,-3.2182,0.0,0.0,0.0,0.0,0.0,0.0,0.0,0.0,0.0,0.0,0.0,0.0,0.0,0.0,0.0,0.0,0.0,0.0,0.0,0.0,0.0,0.0,-2.1275,-2.0946,-2.2278,-2.3557,-2.4219,-2.513,-2.573,-2.5834,-2.666,-2.7411,-2.801,-2.8742,-2.9278,-2.9698,-2.9947,-3.0231,-3.069,-3.0712,-3.0887,-3.1236,-3.1717,-3.2216,-3.2636,-3.3226,-3.3811,-3.4198,-3.4294,-3.4414,-3.4414,-3.4606,-3.4702,-3.4702,-3.5178,-3.5367,-3.5387,-3.4686,-3.447,-3.45,-3.45,-3.4399,-3.4198,-3.3796,-3.3758,-3.3832,-3.3275,-3.3637,-3.4331,-3.4391,-3.4763,-3.5107,-3.5412,-3.5302,-3.5232,-3.5597,-3.5825,-3.5962,-3.5925,-3.6075,-3.6154,-3.5744,-3.5653,-3.5718,-3.591,-3.6006,-3.6006,-3.5973,-3.5821,-3.5951,-3.6443,-3.6557,0.0,-3.7916,-3.7814,-3.7798,-3.8371,-3.7846,-3.7313,-3.6864,-3.6956,-3.6637,-3.5814,-3.5687,-3.5675,-3.5672,-3.5851,-3.6179,-3.6619,-3.5578,-3.472,0.0,0.0,0.0,0.0,0.0,0.0,0.0,0.0,0.0,0.0,0.0,0.0,0.0,0.0,0.0,0.0,0.0,0.0,0.0,0.0,0.0,0.0,-2.1845,-2.3227,-2.3412,-2.4198,-2.4985,-2.5709,-2.602,-2.6526,-2.7264,-2.7767,-2.8317,-2.9052,-2.9526,-2.9981,-3.0493,-3.0493,-3.0712,-3.1192,-3.1192,-3.1425,-3.1913,-3.242,-3.3024,-3.3545,-3.4252,-3.4865,-3.516,-3.54,-3.5497,-3.567,-3.5551,-3.5551,-3.5746,-3.5911,-3.6003,0.0,0.0,0.0,0.0,0.0,-3.4726,-3.4675,-3.4463,-3.4515,-3.459,-3.4521,-3.4963,-3.5572,-3.6031,-3.6409,-3.6845,-3.7146,-3.7111,-3.6983,-3.7151,-3.7164,-3.7157,-3.6948,-3.6933,-3.682,-3.626,-3.6174,-3.6277,-3.6414,-3.6538,0.0,-3.6906,-3.6723,-3.6815,-3.7472,-3.7822,-3.8278,-3.9082,-3.9087,-3.9211,-3.9627,-3.92,-3.8745,-3.8422,-3.8244,0.0,0.0,0.0,-3.7185,-3.6947,-3.6985,0.0,0.0,0.0,0.0,0.0,0.0,0.0,0.0,-4.0687,-4.1119,0.0,0.0,0.0,0.0,0.0,0.0,0.0,0.0,0.0,0.0,0.0,0.0,0.0,0.0,0.0,0.0,-2.3722,-2.5047,-2.5854,-2.5999,-2.6165,-2.6517,-2.6755,-2.7223,-2.8347,-2.8515,-2.8943,-2.9839,-2.9925,-3.0339,-3.0952,0.0,0.0,0.0,0.0,-3.2024,-3.2577,-3.3206,-3.3707,-3.4228,-3.5175,-3.5713,-3.5713,-3.6194,-3.6512,-3.6792,-3.6329,-3.6308,-3.6481,-3.6304,-3.6152,-3.6198,-3.6288,-3.6056,-3.5579,-3.5168,-3.5082,-3.5082,-3.5366,0.0,0.0,-3.6008,-3.641,-3.6771,-3.767,-3.8185,-3.8589,-3.9222,-3.9409,-3.929,-3.8661,-3.8512,-3.8402,-3.7674,-3.7729,-3.7752,-3.7152,-3.7197,-3.7369,-3.7367,-3.7361,-3.7567,-3.8278,-3.7911,-3.7679,-3.8278,-3.8865,-3.9242,-3.9329,-3.9901,-4.0337,-4.0436,0.0,0.0,-4.0289,-3.9483,-3.9258,-3.9904,-3.9768,-3.9524,-3.9191,-3.8841,-3.9474,-4.1191,-4.1553,-4.3308,-4.6526,-4.6832,-4.7874,-4.947,-4.4784,-4.4427,0.0,0.0,0.0,0.0,0.0,0.0,0.0,0.0,0.0,0.0,0.0,0.0,0.0,0.0,0.0,-2.2915,-2.4819,-2.6248,-2.6413,-2.6765,-2.6889,-2.6599,-2.7505,-2.8124,-2.841,-2.9381,-3.017,-3.0356,-3.0925,-3.1287,-3.1476,-3.1476,-3.1717,-3.2219,-3.2613,-3.3101,-3.3735,-3.467,-3.5184,-3.5286,0.0,0.0,-3.6266,-3.6362,-3.6512,-3.6816,-3.692,-3.7171,-3.7345,-3.7542,-3.734,-3.6889,-3.6533,-3.6307,-3.6276,-3.6985,-3.7208,-3.7313,-3.7853,-3.8152,-3.8242,-3.809,-3.8633,-3.9269,-3.8948,-3.9413,0.0,-3.9486,-3.9409,-3.9379,-3.926,-3.9373,-3.9264,-3.8602,-3.9008,-3.9423,-3.8902,-3.925,-3.9518,-3.9049,-3.8979,-3.8958,-3.9018,-3.8535,-3.8334,-3.892,-3.9242,-3.9558,-4.0003,-4.0288,-4.0645,-4.1047,-4.1091,-4.1007,-4.0948,-4.0987,-4.0853,-4.042,-4.0818,-4.1371,-4.2069,-4.28,-4.3832,-4.5194,-4.5925,-4.6483,-4.6839,-4.8875,-5.0143,-5.0565,-4.9468,-4.9735,0.0,0.0,0.0,0.0,0.0,0.0,0.0,0.0,0.0,0.0,0.0,-1.9829,-2.1398,0.0,-2.3722,-2.4736,-2.5834,-2.6641,-2.6889,-2.7212,-2.7369,-2.7118,-2.7893,-2.8591,-2.9019,-2.9998,-3.0615,-3.1055,-3.1396,-3.1738,-3.2001,-3.2001,-3.2323,-3.3144,-3.3436,-3.3967,-3.4739,-3.5362,-3.5671,-3.6002,-3.6573,-3.6795,-3.6819,-3.7187,-3.7515,-3.78,-3.7836,-3.7915,-3.8317,-3.8681,-3.8691,-3.8409,-3.8668,-3.8106,-3.7176,-3.816,-3.8585,-3.8711,-3.918,-3.9443,-3.9674,-3.9725,-4.0124,-4.0517,-4.0341,-4.0337,-4.0337,-4.0008,-3.9751,-3.9553,-3.9553,-3.995,-4.0247,-3.991,-4.056,-4.0992,-4.0356,-4.0569,-4.0767,-4.0492,-4.0418,-4.0489,-4.0675,-4.0554,-4.0234,-3.9796,-3.9799,-4.0003,-4.0337,-4.0693,-4.1001,-4.1276,-4.1803,-4.2078,-4.1998,-4.2341,-4.2446,-4.2249,-4.2939,-4.3655,-4.429,-4.5353,-4.6467,-4.7579,-4.8592,-4.9217,-4.9433,-5.12,-5.231,-5.2817,-5.2817,-5.3102,0.0,0.0,0.0,0.0,0.0,0.0,0.0,0.0,-1.8614,-2.0392,-2.1282,-2.2127,-2.3719,-2.444,-2.5139,-2.6517,-2.6765,-2.6993,-2.7448,-2.7639,-2.7767,-2.7767,-2.8359,-2.8976,-2.9753,-3.0313,-3.1012,-3.1607,-3.1717,-3.1957,-3.2372,-3.2459,-3.3038,-3.4056,-3.4268,-3.4841,-3.5874,-3.5978,-3.6288,-3.6723,-3.7156,-3.7348,-3.7477,-3.8097,-3.8631,-3.8921,-3.8966,-3.9171,-3.9674,-4.0043,-4.0166,-4.0156,-4.123,-4.0485,-3.8842,-3.9516,-3.9733,-3.9858,-4.0318,-4.0575,-4.0831,-4.1285,-4.1463,-4.1427,-4.1513,-4.1205,-4.083,-4.071,-4.039,-4.0163,-4.0163,-4.0708,-4.126,-4.126,-4.1885,-4.2359,-4.1776,-4.189,-4.2026,-4.182,-4.1833,-4.1988,-4.2392,-4.262,-4.2228,-4.0846,-4.069,-4.072,-4.0789,-4.1185,-4.1543,-4.1595,-4.2382,-4.2992,-4.3213,-4.3613,-4.4026,-4.4463,-4.5183,-4.5836,-4.6286,-4.7251,-4.8319,-4.9465,-5.0368,-5.1298,-5.2184,-5.3159,-5.4049,-5.4769,-5.5048,-5.5229,-1.4638,-1.6016,0.0,-1.8008,-1.8281,-1.9141,0.0,0.0,-2.2168,-2.4223,-2.4824,-2.5173,-2.5537,-2.6041,-2.6517,-2.7096,-2.751,-2.7924,-2.84,-2.8307,-2.8347,-2.854,-2.9235,-2.9633,-2.9796,-3.0817,-3.1462,-3.1629,-3.2044,-3.2328,-3.2394,-3.2765,-3.3546,-3.4571,-3.5085,-3.5825,-3.6955,-3.7488,-3.7805,-3.7805,-3.7853,-3.8007,-3.8218,-3.8396,-3.8736,-3.9362,-4.0363,-4.1413,-4.2393,-4.2436,-4.2181,-4.1788,-4.297,-4.2941,-4.2294,-4.179,-4.1254,-4.0972,-4.2222,-4.2629,-4.271,-4.3001,-4.3051,-4.2932,-4.2462,-4.2376,-4.2349,-4.1716,-4.1637,-4.1759,-4.1759,-4.1968,-4.2141,-4.2141,-4.2769,-4.3376,-4.3277,-4.3781,-4.4047,-4.3327,-4.3301,-4.342,-4.3232,-4.3291,-4.3062,-4.2037,-4.2089,-4.217,-4.1874,-4.1973,-4.2257,-4.2655,-4.2844,-4.3322,-4.4382,-4.4798,-4.5356,-4.619,-4.6807,-4.7593,-4.85,-4.8881,-4.9872,-5.1547,-5.1682,-5.2261,-5.3249,-5.4116,-5.4749,-5.5082,-5.5784,-5.6143,-1.7775,0.0,0.0,0.0,-2.0898,-2.1641,-2.3105,-2.3533,-2.3934,-2.5289,-2.5921,-2.628,-2.6641,-2.6848,-2.7117,0.0,-2.78,-2.809,-2.8744,-2.8607,-2.8519,-2.8528,-2.9202,-2.9688,-2.997,-3.07,-3.1455,-3.2022,-3.2263,-3.2634,-3.318,-3.3722,-3.4464,-3.5608,-3.6148,-3.6801,-3.7655,-3.7868,-3.7974,-3.7974,-3.7974,-3.808,-3.8421,-3.9208,-4.0211,-4.1319,-4.1914,-4.2404,-4.2889,-4.3464,-4.3582,-4.364,-4.4772,-4.4847,-4.4385,-4.3747,-4.3193,-4.2836,-4.3412,-4.3418,-4.317,-4.325,-4.3329,-4.3269,-4.3187,-4.3259,-4.3315,-4.3156,-4.3255,-4.3381,-4.2932,-4.3267,-4.3571,-4.3113,-4.3588,-4.4121,-4.4121,-4.4406,-4.4674,-4.4624,-4.4767,-4.4923,-4.5089,-4.5211,-4.5152,-4.4556,-4.397,-4.3589,-4.3529,-4.3822,-4.418,-4.4601,-4.4819,-4.5142,-4.5648,-4.6035,-4.6477,-4.6986,-4.777,-4.87,-4.9844,-5.0466,-5.1334,-5.2626,-5.3205,-5.3739,-5.4172,-5.5164,-5.5686,-5.5809,-5.6244,-5.6452,-1.9746,0.0,0.0,-2.1973,-2.2969,-2.3691,-2.3691,-2.4386,-2.5249,-2.5873,-2.6288,-2.6662,-2.7013,-2.7076,-2.7262,-2.7821,-2.8028,-2.8515,-2.93,-2.907,-2.8828,-2.8826,-2.8929,-2.9336,-2.9947,-3.0559,-3.1302,-3.2306,-3.2503,-3.3046,-3.3966,-3.4578,-3.5346,-3.6472,-3.6928,-3.7334,-3.7974,-3.7974,-3.7974,-3.7974,-3.8372,-3.8687,-3.9025,-4.0414,-4.1887,-4.3177,-4.3177,-4.3368,-4.3748,-4.4499,-4.4961,-4.5173,-4.6016,-4.6197,-4.587,-4.5543,-4.4917,-4.4258,-4.4162,-4.3856,-4.3569,-4.3389,-4.3488,-4.3771,-4.3957,-4.4247,-4.462,-4.4764,-4.4925,-4.5017,-4.4464,-4.4776,-4.509,-4.4264,-4.4481,-4.488,-4.4865,-4.4906,-4.5142,-4.5648,-4.59,-4.6147,-4.6589,-4.6855,-4.69,-4.683,-4.605,-4.5342,-4.5029,-4.5319,-4.5699,-4.6027,-4.6368,-4.6669,-4.6856,-4.7249,-4.7666,-4.8099,-4.9082,-5.0007,-5.0911,-5.1779,-5.2685,-5.361,-5.4387,-5.4885,-5.5162,-5.593,-5.6324,-5.6386,-5.6548,-5.6606,0.0,0.0,-2.2539,-2.3008,-2.4082,-2.5,-2.5,-2.5734,-2.6436,-2.6476,-2.6513,-2.6579,-2.6579,-2.6579,-2.6889,-2.7779,-2.8494,-2.93,-3.0223,-2.9593,-2.9278,-2.9731,-2.8755,-2.8462,0.0,-3.0341,-3.1302,-3.2306,-3.2787,-3.359,-3.4639,-3.5109,-3.5904,-3.7012,-3.7143,-3.7334,-3.7974,-3.7974,-3.7974,-3.7974,-3.9287,-4.0084,-4.0414,-4.2012,-4.3273,-4.4219,-4.4219,-4.4805,-4.5776,-4.6046,-4.6106,-4.6195,-4.6668,-4.6901,-4.6901,-4.7163,-4.6241,-4.4935,-4.4445,-4.4317,-4.4167,-4.3539,-4.3927,-4.4737,-4.4737,-4.552,-4.6416,-4.6416,-4.6582,-4.6711,-4.6711,-4.6714,-4.6583,-4.5781,-4.5669,-4.5603,-4.5492,-4.5442,-4.5648,-4.6257,-4.6531,-4.6845,-4.7299,-4.747,-4.7715,-4.8192,-4.8194,-4.7607,-4.6067,-4.6165,-4.6364,-4.6364,-4.6681,-4.722,-4.8068,-4.845,-4.9036,-4.9959,-5.107,-5.1757,-5.1836,-5.2815,-5.3768,-5.4619,-5.4827,-5.5341,-5.626,-5.6269,-5.6386,-5.6602,-5.6606,-5.6606,0.0,0.0,-2.3242,-2.4551,-2.4961,-2.5215,-2.5801,-2.6229,-2.6416,-2.6114,-2.6309,-2.6475,-2.6165,-2.6103,-2.6609,-2.8007,-2.8439,-2.9183,-3.0739,-3.045,-2.9959,-2.9601,-2.9502,0.0,0.0,0.0,0.0,-3.1782,-3.2723,-3.3682,-3.4639,-3.5871,-3.6688,-3.7143,-3.7441,-3.7761,-3.7974,-3.7974,-3.8477,-3.939,-4.0867,-4.1959,-4.2738,-4.3436,-4.4312,-4.5384,-4.5475,-4.5747,-4.6135,-4.6314,-4.658,-4.6668,-4.6844,-4.7019,-4.7193,-4.7309,-4.7377,-4.7363,-4.6094,-4.5798,-4.5923,-4.5139,-4.5583,-4.638,-4.6008,-4.6555,-4.7272,-4.7406,-4.7865,-4.8107,-4.7637,-4.7518,-4.7446,-4.7146,-4.7107,-4.7222,-4.7678,-4.7421,-4.7227,-4.7742,-4.7571,-4.7464,-4.7915,-4.8035,-4.8192,-4.8568,-4.8604,-4.8419,-4.7864,-4.8096,-4.8353,-4.8415,-4.8683,-4.9019,-4.9364,-5.0236,-5.0894,-5.1207,-5.2262,-5.3124,-5.3721,-5.4173,-5.4788,-5.5603,-5.5781,-5.5969,-5.6308,-5.6439,-5.6509,-5.6606,-5.6546,-5.6827,0.0,-2.3594,-2.4004,-2.5762,-2.5859,-2.5781,-2.6349,-2.6406,-2.6134,-2.5785,-2.5665,-2.5523,-2.5213,-2.5114,-2.5638,-2.7442,-2.8148,-2.9019,-3.0799,-3.068,-3.0361,-3.0275,-3.0231,-3.0209,0.0,0.0,0.0,-3.2355,-3.3198,-3.4268,-3.5534,-3.6526,-3.7227,-3.7441,-3.7761,-3.8185,-3.8396,-3.8582,-3.9572,-4.1439,-4.2447,-4.3504,-4.4591,-4.4776,-4.5293,-4.5895,-4.6135,-4.6225,-4.6225,-4.658,-4.6756,-4.6931,-4.7019,-4.7366,-4.7794,-4.7849,-4.846,-4.9041,-4.7363,-4.725,-4.7635,-4.6944,-4.7203,-4.7734,-4.7383,-4.767,-4.8161,-4.8225,-4.8827,-4.9214,-4.8796,-4.8836,-4.8885,-4.8607,-4.8592,-4.8696,-4.915,-4.8876,-4.8739,-4.9264,-4.9034,-4.8871,-4.9304,-4.9455,-4.9599,-4.9843,-4.9978,-4.9786,-4.9057,-4.9565,-4.9994,-5.0052,-5.0366,-5.0746,-5.1085,-5.182,-5.2277,-5.2377,-5.3314,-5.4165,-5.4754,-5.5177,-5.5625,-5.6169,-5.6308,-5.6393,-5.6393,-5.6553,-5.6571,-5.6582,-5.6831,-5.7265,-2.4121,-2.4492,-2.4961,-2.6621,-2.6719,-2.6486,-2.6765,-2.6264,-2.5651,-2.5422,-2.4543,-2.3784,0.0,0.0,-2.4116,-2.6194,-2.7564,-2.8967,-3.0572,-3.0586,-3.0646,0.0,0.0,0.0,0.0,0.0,0.0,-3.4088,0.0,-3.5381,-3.6965,-3.712,-3.7441,-3.808,-3.808,-3.8502,-3.9312,-3.9905,-4.1439,-4.3882,-4.3975,-4.4684,-4.5895,-4.5895,-4.5895,-4.5985,-4.6135,-4.6225,-4.6314,-4.6756,-4.6931,-4.6931,-4.7279,-4.7849,-4.8625,-4.8841,-4.9456,-4.9992,-4.8545,-4.8685,-4.9395,-4.8762,-4.8692,-4.8859,-4.8793,-4.8924,-4.9114,-4.908,-4.9496,-4.9988,-5.0033,-5.048,-5.0752,-5.0252,-5.0125,-5.0062,-4.9974,-4.9928,-5.0105,-5.0758,-5.0842,-5.0964,-5.1268,-5.1615,-5.1845,-5.1845,-5.216,-5.168,-4.9732,-5.0516,-5.1292,-5.1292,-5.1644,-5.2193,-5.3025,-5.314,-5.3263,-5.3475,-5.4304,-5.4846,-5.4983,-5.5843,-5.6316,-5.6316,-5.6503,-5.6606,-5.6606,-5.6606,-5.6582,-5.6599,-5.7421,-5.7851,-2.4727,-2.5605,-2.6543,-2.7305,-2.6934,-2.6486,-2.6685,-2.5928,-2.4927,-2.3754,-2.3166,-2.2542,-2.1507,0.0,0.0,-2.5316,-2.7222,0.0,-3.1164,-3.1636,0.0,0.0,0.0,-3.2493,-3.2775,-3.4129,0.0,0.0,-3.5897,-3.5783,-3.6532,-3.7334,-3.808,-3.8921,-3.8921,-3.9519,-4.0718,-4.2155,-4.319,-4.3882,-4.4869,-4.5595,-4.5895,-4.6046,-4.6135,-4.6135,-4.658,-4.6756,-4.6756,-4.7019,-4.7222,-4.7279,-4.8019,-4.846,-4.8841,-4.9536,-5.0474,-5.1345,-5.1002,-5.101,-5.1132,-5.0412,-5.0717,-5.116,-5.0085,-5.0119,-5.0395,-4.9845,-5.0124,-5.0643,-5.0697,-5.0858,-5.1154,-5.149,-5.1551,-5.1705,-5.2222,-5.184,-5.1568,-5.197,-5.1785,-5.1582,-5.1682,-5.197,-5.2181,-5.2181,-5.3031,-5.3213,-5.1717,-5.2068,-5.2485,-5.2533,-5.2686,-5.2933,-5.3297,-5.3932,-5.4349,-5.453,-5.5369,-5.5901,-5.5921,-5.6315,-5.6509,-5.6509,-5.6558,-5.6606,-5.6606,-5.6549,-5.6831,-5.746,-5.7684,-5.848,-2.5996,-2.6738,-2.7363,-2.7702,-2.7216,-2.6369,-2.5984,-2.4967,-2.3693,-2.2164,-2.1671,0.0,0.0,0.0,0.0,0.0,0.0,0.0,-3.1617,-3.2994,-3.4016,0.0,-3.4854,0.0,-3.5549,-3.6772,-3.7782,0.0,-3.7849,-3.7594,-3.8093,-3.8723,-3.9415,-4.0032,-4.0134,-4.0792,-4.235,-4.3721,-4.4591,-4.4776,-4.5566,-4.5895,-4.5895,-4.6135,-4.6225,-4.6225,0.0,-4.7163,-4.7478,-4.7764,-4.8103,-4.849,-4.9004,-4.9567,-5.0009,-5.0627,-5.1525,-5.2454,-5.2557,-5.2627,-5.2561,-5.2127,-5.2135,-5.2196,-5.1668,-5.1321,-5.1025,-5.092,-5.1086,-5.1378,-5.1429,-5.1679,-5.2018,-5.2509,-5.2599,-5.2733,-5.3281,-5.3071,-5.2858,-5.3199,-5.3207,-5.3126,-5.3126,-5.3404,-5.3666,-5.3655,-5.4269,-5.4498,-5.3811,-5.3618,-5.3612,-5.3664,-5.3783,-5.4012,-5.4536,-5.5055,-5.5384,-5.5519,-5.6008,-5.6324,-5.6439,-5.6553,-5.6606,-5.6606,-5.6606,-5.677,-5.7135,-5.7104,-5.75,-5.8352,-5.8714,-5.9385,-2.7344,-2.7715,-2.7839,-2.7989,-2.7317,-2.6386,-2.5096,-2.376,-2.2315,-2.0852,0.0,0.0,-1.933,0.0,-2.2385,-2.3479,0.0,-3.0189,-3.2117,-3.4209,-3.6154,-3.7497,-3.7721,-3.7995,-3.8773,-3.9365,-3.9802,-3.9905,-4.0007,-4.0109,-4.0414,-4.0414,-4.0718,-4.1319,-4.1617,-4.2474,-4.4069,-4.4805,-4.5413,-4.5895,-4.5985,-4.5985,-4.5985,-4.6225,-4.6284,-4.6314,-4.6901,-4.7563,-4.8263,-4.8625,-4.9197,-4.9884,-5.0165,-5.0811,-5.1516,-5.1921,-5.2557,-5.3247,-5.3416,-5.3551,-5.3618,-5.3618,-5.3143,-5.2728,-5.3287,-5.2681,-5.1891,-5.2251,-5.2422,-5.2426,-5.2376,-5.2781,-5.3213,-5.3267,-5.3272,-5.3359,-5.3682,-5.3833,-5.398,-5.4296,-5.4654,-5.4866,-5.4866,-5.5168,-5.539,-5.5427,-5.5437,-5.5485,-5.5531,-5.4984,-5.4629,-5.4725,-5.4851,-5.5234,-5.6071,-5.6122,-5.6181,-5.6324,-5.6324,-5.6432,-5.6602,-5.6606,-5.6645,-5.677,-5.677,-5.7174,-5.7968,-5.7969,-5.8391,-5.9201,-5.9937,-6.0371,-2.75,-2.791,-2.8212,-2.8068,-2.7317,-2.6403,-2.5217,-2.3591,0.0,0.0,0.0,-1.8271,-1.7977,-1.9668,0.0,-2.3374,0.0,0.0,0.0,0.0,-3.64,0.0,0.0,0.0,0.0,0.0,0.0,0.0,0.0,-4.1743,-4.0516,-4.0414,-4.0919,-4.211,-4.3654,-4.4527,-4.4926,-4.5504,-4.5805,-4.5895,-4.6046,-4.6135,-4.6135,-4.658,-4.6756,-4.6844,-4.7819,0.0,-4.8625,-4.9487,-4.9931,-5.0165,-5.1005,-5.1525,-5.1921,-5.2697,-5.3179,-5.3416,-5.3518,-5.3849,-5.4235,-5.4235,-5.4224,-5.4198,-5.4198,-5.4469,-5.4633,-5.4143,-5.4388,-5.4675,-5.4018,-5.4005,-5.4081,-5.3711,-5.3604,-5.372,-5.4123,-5.443,-5.4654,-5.4716,-5.5057,-5.5313,-5.5288,-5.5339,-5.5427,-5.5461,-5.5609,-5.5712,-5.5769,-5.5654,-5.5557,-5.5593,-5.5738,-5.5967,-5.6242,-5.6281,-5.6363,-5.6548,-5.6553,-5.6558,-5.6606,-5.6606,-5.6891,-5.7573,-5.7575,-5.8008,-5.886,-5.8804,-5.9212,-6.0093,-6.0247,-6.0681,-2.75,-2.8094,-2.8463,-2.7998,-2.7202,-2.5959,-2.4217,0.0,0.0,0.0,0.0,-1.7819,-1.7476,0.0,0.0,0.0,0.0,0.0,0.0,0.0,0.0,0.0,0.0,0.0,0.0,0.0,0.0,0.0,0.0,-4.2846,-4.1743,-4.2235,-4.2889,-4.3776,-4.4926,-4.5504,-4.5504,-4.5776,-4.5956,-4.6046,-4.6135,-4.6462,-4.7016,-4.7362,-4.7789,-4.8293,-4.8953,0.0,-5.0041,-5.0583,-5.1112,-5.1631,-5.217,-5.2487,-5.2627,-5.3179,-5.3584,-5.4011,-5.4042,-5.4454,-5.5059,-5.5472,-5.5355,-5.5168,-5.5502,-5.5597,-5.5599,-5.5535,-5.5504,-5.5464,-5.5275,-5.5291,-5.5303,-5.5287,-5.513,-5.4852,-5.4603,-5.4874,-5.5113,-5.5113,-5.5248,-5.5377,-5.5427,-5.5493,-5.5566,-5.563,-5.5805,-5.5939,-5.5955,-5.6044,-5.6045,-5.6045,-5.6158,-5.6281,-5.6439,-5.6446,-5.6503,-5.6602,-5.6996,-5.7231,-5.7231,-5.7675,-5.8079,-5.8475,-5.8476,-5.8899,-5.9733,-5.9675,-6.0119,-6.0988,-6.0963,-6.1218,-2.7629,-2.86,-2.9225,-2.8431,-2.7476,-2.6157,-2.3744,-2.1683,0.0,0.0,0.0,-1.7642,-1.7453,0.0,0.0,0.0,0.0,0.0,0.0,0.0,0.0,0.0,0.0,0.0,0.0,0.0,0.0,0.0,0.0,0.0,-4.3259,-4.4021,-4.4676,-4.511,-4.5595,-4.5895,-4.5895,-4.5956,-4.6135,-4.6462,-4.6609,-4.7189,-4.8179,-4.8429,-4.8922,-4.9647,-4.9962,0.0,-5.1443,-5.1696,-5.2203,-5.2972,-5.3179,-5.3315,-5.3483,-5.3651,-5.4106,-5.4668,-5.4757,-5.5238,-5.5872,-5.6546,-5.6349,-5.5928,-5.6668,-5.6581,-5.6273,-5.6765,-5.6565,-5.6276,-5.6425,-5.6511,-5.663,-5.6845,-5.6689,-5.6291,-5.5578,-5.5701,-5.5938,-5.5963,-5.5963,-5.6022,-5.6045,-5.621,-5.6325,-5.6416,-5.6558,-5.6654,-5.6679,-5.6826,-5.6886,-5.6886,-5.6574,-5.6517,-5.6836,-5.6879,-5.6957,-5.7113,-5.7746,-5.8062,-5.8062,-5.8746,-5.918,-5.9335,-5.9366,-5.9768,-6.0588,-6.0588,-6.0917,-6.1607,-6.1607,-6.1607,-2.8021,-2.9786,-3.1345,-2.9891,-2.9052,-2.8042,-2.553,0.0,0.0,0.0,-1.7779,-1.7273,-1.7887,0.0,0.0,0.0,0.0,0.0,0.0,0.0,0.0,0.0,0.0,0.0,0.0,0.0,0.0,0.0,0.0,0.0,-4.4209,-4.4769,-4.5046,-4.511,-4.5595,-4.5895,-4.5895,-4.6046,-4.6609,-4.7362,-4.7843,-4.8512,-4.9327,-4.9567,-4.9805,-5.0087,-5.0887,0.0,0.0,-5.2627,-5.311,-5.3179,-5.3416,-5.3849,-5.4264,-5.4328,-5.4791,-5.5414,-5.5379,-5.5928,-5.6652,-5.6809,-5.6861,-5.6912,-5.7534,-5.7737,-5.7794,-5.784,-5.8091,-5.8174,-5.7472,-5.7565,-5.7747,-5.7365,-5.7481,-5.7707,-5.763,-5.763,-5.7684,-5.7736,-5.7843,-5.7965,-5.8105,-5.8247,-5.8372,-5.8414,-5.8565,-5.8637,-5.8637,-5.8747,-5.8822,-5.8822,-5.7495,-5.6875,-5.7621,-5.7699,-5.8011,-5.8831,-5.8934,-5.8982,-5.8982,-5.906,-5.9436,-6.0188,-6.0182,-6.0627,-6.1461,-6.1461,-6.1539,-6.1607,-6.1607,-6.1607,-2.8519,-3.01,-3.1225,-3.0341,-2.9218,-2.7736,-2.5682,0.0,0.0,-1.8993,-1.7878,-1.734,-1.807,-1.8403,-1.9514,0.0,0.0,0.0,0.0,0.0,0.0,0.0,0.0,0.0,0.0,0.0,0.0,0.0,0.0,0.0,-4.5321,-4.5138,-4.523,-4.5595,-4.5866,-4.6284,-4.6872,-4.7016,-4.7673,-4.8759,-4.8922,-4.9487,-5.0461,-5.0691,-5.107,-5.159,-5.2059,0.0,0.0,-5.3415,-5.3847,-5.3977,-5.4425,-5.4799,-5.5009,-5.5034,-5.5472,-5.613,-5.6295,-5.6773,-5.7449,-5.7804,-5.7941,-5.7895,-5.7914,-5.8142,-5.8369,-5.8369,-5.8628,-5.8951,-5.8875,-5.9148,-5.9285,-5.8568,-5.853,-5.8498,-5.8054,-5.8016,-5.8097,-5.8165,-5.8317,-5.8441,-5.8513,-5.8674,-5.8771,-5.8831,-5.8944,-5.9033,-5.9033,-5.9051,-5.9104,-5.9104,-5.8519,-5.8246,-5.8558,-5.8577,-5.8741,-5.9092,-5.9609,-5.988,-5.988,-6.0331,-6.0778,-6.1074,-6.1081,-6.1244,-6.1607,-6.1607,-6.1607,-6.1607,-6.1607,-6.1607,-2.8478,-3.017,-3.1391,-3.0675,-2.9416,-2.7909,0.0,0.0,-2.0677,-1.9111,-1.7965,-1.7413,-1.7919,-1.8173,-1.9163,0.0,-2.2427,-2.4284,-2.8779,0.0,0.0,0.0,0.0,0.0,0.0,0.0,0.0,0.0,0.0,0.0,-4.6135,-4.6166,-4.6166,-4.6373,-4.655,-4.7016,-4.7981,-4.8179,-4.8841,-4.9884,-4.9962,-5.0538,-5.1582,-5.1696,-5.2164,-5.2764,-5.3145,0.0,0.0,-5.42,-5.4579,-5.4765,-5.5249,-5.5543,-5.5716,-5.5816,-5.6295,-5.6948,-5.7229,-5.7653,-5.8105,-5.8628,-5.8791,-5.871,-5.8455,-5.8545,-5.8791,-5.8791,-5.9065,-5.9467,-5.9874,-6.0188,-6.0255,-5.9671,-5.9534,-5.9447,-5.8922,-5.8924,-5.907,-5.9108,-5.9297,-5.9426,-5.9439,-5.9591,-5.974,-5.974,-5.982,-5.9885,-5.9885,-5.9885,-5.989,-5.9859,-5.9862,-5.9745,-5.9507,-5.9485,-5.9609,-5.9805,-6.042,-6.076,-6.076,-6.1314,-6.1595,-6.1595,-6.1595,-6.1607,-6.1607,-6.1607,-6.1607,-6.1607,-6.1607,-6.1656,-2.7838,-3.0288,-3.2339,-3.0975,-3.0286,-2.9301,0.0,-2.3961,-2.1509,-1.9347,-1.8096,-1.7418,-1.7418,-1.8036,-1.8983,-2.024,-2.2498,-2.5486,-2.9408,0.0,0.0,0.0,0.0,0.0,0.0,0.0,0.0,0.0,0.0,0.0,-4.6931,-4.7873,-4.8179,-4.7503,-4.7533,-4.7981,-4.9103,-4.9376,-4.9884,-5.0735,-5.0951,-5.1655,-5.2553,-5.2553,-5.2834,-5.3247,0.0,0.0,0.0,-5.5129,-5.5402,-5.5402,-5.5472,-5.5872,-5.6492,-5.6652,-5.7152,-5.7821,-5.8245,-5.8503,-5.8669,-5.9065,-5.9215,-5.9215,-5.9215,-5.9215,-5.9215,-5.9215,-5.9467,-5.9874,-6.0285,-6.0408,-6.0398,-6.0453,-6.0608,-6.068,-6.0745,-6.0886,-6.0987,-6.1074,-6.124,-6.1383,-6.1442,-6.1602,-6.1681,-6.1681,-6.1681,-6.1681,-6.1681,-6.1681,-6.1655,-6.1676,-6.1677,-6.1326,-6.0466,-6.0388,-6.0742,-6.1514,-6.1564,-6.1582,-6.1582,-6.1603,-6.1607,-6.1607,-6.1607,-6.1607,-6.1607,-6.1607,-6.1607,-6.1607,-6.1607,-6.1823,-2.6033,-2.7381,-2.8497,-2.7676,-2.6785,-2.5728,-2.4339,-2.2467,-2.0523,-1.8922,-1.8004,-1.7621,-1.8131,-1.843,-1.9791,-2.3375,0.0,0.0,0.0,0.0,0.0,0.0,0.0,0.0,0.0,0.0,0.0,0.0,0.0,0.0,-4.8042,-4.8564,-4.8728,-4.8179,-4.8677,-4.9296,-5.0165,-5.0429,-5.107,-5.1987,-5.2092,-5.2378,-5.2834,-5.3382,-5.3681,0.0,0.0,0.0,-5.5129,-5.5751,-5.609,-5.6166,-5.6652,-5.6964,-5.7289,-5.7401,-5.7784,-5.8245,-5.8461,-5.8713,-5.9103,-5.9467,-5.9605,-5.9639,-5.9937,-5.9842,-5.9673,-5.9937,-6.0099,-6.0256,-6.0342,-6.052,-6.0618,-6.0642,-6.0766,-6.0923,-6.0976,-6.1158,-6.1277,-6.134,-6.1509,-6.1609,-6.1615,-6.1666,-6.172,-6.172,-6.172,-6.169,-6.1709,-6.1709,-6.1676,-6.1638,-6.1638,-6.1521,-6.1248,-6.1238,-6.1338,-6.1564,-6.1595,-6.1603,-6.1603,-6.1578,-6.1607,-6.1607,-6.1607,-6.1607,-6.1607,-6.1607,-6.1528,-6.1408,-6.1803,-6.2006,0.0,-2.5579,-2.6387,-2.6059,-2.531,-2.4432,-2.355,-2.2028,-2.0455,-1.9135,-1.8399,-1.8233,-1.8948,-1.9336,-2.0678,-2.4141,0.0,0.0,0.0,0.0,0.0,0.0,0.0,0.0,0.0,0.0,0.0,0.0,0.0,0.0,-4.9085,-4.9773,-5.0041,-4.9726,-4.9884,-5.0429,-5.1294,-5.1549,-5.1948,-5.2624,-5.2939,-5.3213,-5.3382,-5.4102,-5.4482,0.0,0.0,-5.5808,0.0,-5.6474,-5.6793,-5.6948,-5.7388,-5.7726,-5.7923,-5.806,-5.8332,-5.8753,-5.895,-5.9252,-5.9502,-5.9906,-6.0038,-6.0099,-6.0387,-6.0275,-6.0099,-6.0313,-6.0441,-6.0508,-6.0508,-6.065,-6.0848,-6.0867,-6.0993,-6.1147,-6.1227,-6.1373,-6.1526,-6.158,-6.1654,-6.172,-6.172,-6.172,-6.1686,-6.1697,-6.1697,-6.1707,-6.168,-6.164,-6.1638,-6.158,-6.1616,-6.1612,-6.1598,-6.1588,-6.1615,-6.1595,-6.1595,-6.1607,-6.1607,-6.1607,-6.1607,-6.1607,-6.1607,-6.1607,-6.1607,-6.184,-6.2018,-6.2128,-6.2433,-6.269,0.0,-2.4449,-2.5344,-2.5404,-2.5135,-2.4664,-2.3733,-2.2283,0.0,-1.9815,-1.9219,-1.9161,-2.002,-2.0721,-2.175,-2.3496,0.0,0.0,0.0,0.0,0.0,0.0,0.0,0.0,0.0,0.0,0.0,0.0,0.0,0.0,-5.026,-5.1285,-5.1868,-5.1868,-5.122,-5.1369,-5.2373,-5.2553,-5.2694,-5.2694,-5.3583,-5.4072,-5.423,-5.4852,-5.5308,0.0,-5.6146,-5.6474,-5.6635,-5.7188,-5.7486,-5.7679,-5.7774,-5.8105,-5.8466,-5.8586,-5.891,-5.9289,-5.9673,-5.9842,-5.9906,-6.0285,-6.0436,-6.0453,-6.0559,-6.0546,-6.0425,-6.0425,-6.0584,-6.0702,-6.0702,-6.0867,-6.1058,-6.1089,-6.1253,-6.1432,-6.15,-6.1602,-6.172,-6.172,-6.172,-6.172,-6.172,-6.1681,-6.1694,-6.1715,-6.1717,-6.168,-6.1592,-6.159,-6.1619,-6.1582,-6.1615,-6.1595,-6.1616,-6.1588,-6.1595,-6.1616,-6.1607,-6.1607,-6.1607,-6.1607,-6.1607,-6.1607,-6.1637,-6.1676,-6.1676,-6.2277,-6.2887,-6.3456,-6.3353,-6.3693,-2.0794,0.0,-2.1647,-2.1187,-2.1006,-2.0924,0.0,-2.0413,-1.9953,0.0,0.0,-1.9865,-2.214,-2.2271,-2.3689,0.0,0.0,0.0,0.0,0.0,0.0,0.0,0.0,0.0,0.0,0.0,0.0,0.0,0.0,-5.1629,-5.1392,-5.1908,-5.2302,-5.2412,-5.2733,-5.2803,-5.2587,-5.3111,-5.3482,-5.3747,-5.4482,-5.4948,-5.5129,-5.5716,-5.6111,0.0,-5.6897,-5.7239,-5.7388,-5.7486,-5.7831,-5.8245,-5.8245,-5.8549,-5.9026,-5.9065,-5.9325,-5.9673,-5.9777,-6.0,-6.0285,-6.0342,-6.0441,-6.0584,-6.0627,-6.065,-6.0666,-6.0822,-6.0887,-6.0941,-6.0941,-6.1104,-6.1328,-6.1328,-6.147,-6.1615,-6.166,-6.1671,-6.172,-6.172,-6.172,-6.172,-6.172,-6.1701,-6.1713,-6.1716,-6.1679,-6.1631,-6.1603,-6.1598,-6.1621,-6.1603,-6.1595,-6.1586,-6.1607,-6.1586,-6.1586,-6.1607,-6.1607,-6.1607,-6.1607,-6.1607,-6.1607,-6.1607,-6.2055,-6.2277,-6.2277,-6.2781,-6.3114,-6.3276,-6.3756,-6.4078,-2.0181,-2.1345,-2.251,-2.2241,-2.2194,-2.2236,-2.236,0.0,0.0,0.0,0.0,0.0,-2.3933,0.0,0.0,0.0,0.0,0.0,0.0,0.0,0.0,0.0,0.0,0.0,0.0,0.0,0.0,0.0,0.0,-5.2547,-5.2693,-5.2827,-5.3211,-5.3685,-5.4014,-5.3844,-5.3213,-5.3943,-5.4356,-5.4544,-5.5273,-5.5716,-5.5865,-5.6886,-5.7205,-5.6984,-5.8101,-5.8604,-5.8603,-5.897,-5.922,-5.9353,-5.9353,-5.9403,-5.9467,-5.9467,-5.9744,-6.0068,-6.0068,-6.0275,-6.0494,-6.0508,-6.0642,-6.0822,-6.0925,-6.0997,-6.1031,-6.0997,-6.1097,-6.1161,-6.1161,-6.1362,-6.1534,-6.1534,-6.1615,-6.172,-6.172,-6.172,-6.172,-6.172,-6.1694,-6.1701,-6.1701,-6.1677,-6.1639,-6.1633,-6.1623,-6.1598,-6.1588,-6.158,-6.1612,-6.1616,-6.1607,-6.1607,-6.1607,-6.1607,-6.1607,-6.1607,-6.1607,-6.1607,-6.1607,-6.1607,-6.1744,-6.199,-6.2657,-6.3106,-6.34,-6.3669,-6.3937,-6.4227,-6.4585,-6.4764,-2.0883,-2.3262,-2.5465,-2.494,-2.5093,-2.5382,-2.5369,0.0,0.0,0.0,0.0,0.0,0.0,0.0,0.0,0.0,0.0,0.0,0.0,0.0,0.0,0.0,0.0,0.0,0.0,0.0,0.0,0.0,0.0,-5.3379,-5.3737,-5.3687,-5.4086,-5.4998,-5.5085,-5.493,-5.4436,-5.4983,-5.5273,-5.5273,-5.6055,-5.6546,-5.6689,-5.8006,-5.8396,-5.802,0.0,0.0,-6.0035,-6.0741,-6.0886,-6.0754,-6.0754,-6.0516,-6.0064,-6.0064,-6.0213,-6.037,-6.0425,-6.052,-6.0618,-6.0718,-6.0886,-6.1092,-6.1253,-6.1379,-6.1373,-6.1161,-6.1265,-6.1442,-6.1442,-6.1549,-6.172,-6.172,-6.172,-6.172,-6.172,-6.1686,-6.169,-6.169,-6.167,-6.1679,-6.1679,-6.1637,-6.1619,-6.1588,-6.1615,-6.1595,-6.1616,-6.1607,-6.1607,-6.1607,-6.1607,-6.1646,-6.1802,-6.1802,-6.1841,-6.1958,-6.188,-6.1831,-6.1928,-6.1918,-6.2121,-6.2657,-6.3322,-6.393,-6.4487,-6.4616,-6.4879,-6.5413,-6.5413,-6.5452,-2.3366,-2.6069,-2.7394,-2.3849,-2.4678,-2.6032,0.0,0.0,0.0,0.0,0.0,0.0,0.0,0.0,0.0,0.0,0.0,0.0,0.0,0.0,0.0,0.0,0.0,0.0,0.0,0.0,0.0,0.0,0.0,-5.3037,-5.3819,-5.3849,-5.4269,-5.5026,-5.6235,-5.6865,-5.6936,-5.6227,-5.5964,-5.6111,-5.6845,-5.7601,-5.8254,-5.8601,-5.937,-6.0396,0.0,-6.097,-6.1391,-6.1541,-6.177,-6.2015,-6.2015,-6.1755,-6.1344,-6.1344,-6.0953,-6.0398,-6.0546,-6.0618,-6.0718,-6.0905,-6.1087,-6.1253,-6.1379,-6.1451,-6.1588,-6.1602,-6.1615,-6.1666,-6.1666,-6.1671,-6.172,-6.172,-6.172,-6.172,-6.172,-6.1701,-6.1713,-6.1713,-6.164,-6.1635,-6.1635,-6.1616,-6.1588,-6.1582,-6.158,-6.1578,-6.1607,-6.1607,-6.1607,-6.1607,-6.1607,-6.188,-6.262,-6.2698,-6.2971,-6.3672,-6.3088,-6.293,-6.3429,-6.3291,-6.3264,-6.3342,-6.4023,-6.4422,-6.4487,-6.5015,-6.5291,-6.5413,-6.5413,-6.5796,-2.2659,-2.537,-2.7537,-2.6121,-2.7878,-2.9855,0.0,0.0,0.0,0.0,0.0,0.0,0.0,0.0,0.0,0.0,0.0,0.0,0.0,0.0,0.0,0.0,0.0,0.0,0.0,0.0,0.0,0.0,0.0,0.0,-5.507,-5.5061,-5.5659,-5.6917,-5.7545,-5.7927,-5.8087,-5.7637,-5.7457,-5.7546,-5.7891,-5.8422,-5.9134,-6.011,-6.0811,-6.1293,0.0,-6.2666,-6.2782,-6.3198,-6.3372,-6.3328,-6.3328,-6.2925,-6.2242,-6.1923,-6.1222,-6.0546,-6.0734,-6.0866,-6.1,-6.1167,-6.1343,-6.1451,-6.1534,-6.1602,-6.1666,-6.1676,-6.172,-6.172,-6.172,-6.172,-6.172,-6.172,-6.172,-6.1686,-6.1701,-6.1713,-6.1679,-6.164,-6.1629,-6.1607,-6.1607,-6.1615,-6.1768,-6.2235,-6.2288,-6.2465,-6.2893,-6.2932,-6.2932,-6.2932,-6.2932,-6.3127,-6.3517,-6.3453,-6.3534,-6.3923,-6.3573,-6.3468,-6.3645,-6.39,-6.4039,-6.4039,-6.4641,-6.5005,-6.5005,-6.5244,-6.5643,-6.6101,-6.6101,-6.656,-2.2435,-2.4814,-2.751,0.0,0.0,0.0,0.0,0.0,0.0,0.0,0.0,0.0,0.0,0.0,0.0,0.0,0.0,0.0,0.0,0.0,0.0,0.0,0.0,0.0,0.0,0.0,0.0,0.0,0.0,0.0,-5.6174,-5.6113,-5.6756,-5.8283,-5.8392,-5.8537,-5.875,-5.8799,-5.8835,-5.8799,-5.8848,-5.9365,-6.0283,-6.1633,-6.2267,-6.2334,-6.3651,-6.418,-6.4073,-6.4685,-6.4775,-6.4458,-6.4458,-6.3991,-6.3197,-6.2478,-6.181,-6.1273,-6.1331,-6.1414,-6.155,-6.1489,-6.1526,-6.1615,-6.1676,-6.172,-6.1759,-6.1954,-6.1993,-6.1954,-6.1759,-6.1686,-6.1694,-6.1694,-6.1697,-6.1668,-6.1679,-6.1679,-6.1716,-6.186,-6.191,-6.1953,-6.2148,-6.2188,-6.2426,-6.3088,-6.3166,-6.34,-6.4023,-6.4101,-6.4101,-6.4101,-6.4101,-6.4169,-6.4332,-6.4323,-6.4333,-6.4244,-6.4089,-6.3979,-6.4015,-6.446,-6.4718,-6.4718,-6.515,-6.5413,-6.5413,-6.5605,-6.6063,-6.6713,-6.6904,-6.7439,-2.4975,-2.6429,-2.8015,-3.147,0.0,0.0,0.0,0.0,0.0,0.0,0.0,0.0,0.0,0.0,0.0,0.0,0.0,0.0,0.0,0.0,0.0,0.0,0.0,0.0,0.0,0.0,0.0,0.0,0.0,0.0,-5.6273,-5.6292,-5.6617,-5.747,-5.8173,-5.8848,-5.9337,-5.9337,-5.9382,-5.9464,-5.9553,-6.0635,-6.247,-6.2741,-6.3465,-6.455,-6.4701,-6.4947,-6.5268,-6.5345,-6.5345,-6.5299,-6.5299,-6.491,-6.4219,-6.3374,-6.3168,-6.3226,-6.2593,-6.2457,-6.2463,-6.1807,-6.1615,-6.1676,-6.172,-6.172,-6.1876,-6.2696,-6.2891,-6.2735,-6.1915,-6.1701,-6.1715,-6.1715,-6.164,-6.1594,-6.1594,-6.1616,-6.1861,-6.2641,-6.2789,-6.3058,-6.3799,-6.3906,-6.3945,-6.3984,-6.4023,-6.4023,-6.4101,-6.4101,-6.4101,-6.4101,-6.4101,-6.4371,-6.4984,-6.5583,-6.5853,-6.5587,-6.4869,-6.4768,-6.5499,-6.5427,-6.5329,-6.5329,-6.5375,-6.5413,-6.5413,-6.6216,-6.6636,-6.6713,-6.7477,-6.8279,-2.3784,-2.6521,-2.9638,-3.1769,0.0,0.0,0.0,0.0,0.0,0.0,0.0,0.0,0.0,0.0,0.0,0.0,0.0,0.0,0.0,0.0,0.0,0.0,0.0,0.0,0.0,0.0,0.0,0.0,0.0,0.0,-5.6845,-5.6897,-5.7355,-5.8115,-5.8761,-5.92,-5.9516,-5.9738,-6.0329,-6.1244,-6.0933,-6.1689,-6.3275,-6.384,-6.4471,-6.515,-6.515,-6.5252,-6.5413,-6.5413,-6.5413,-6.5413,-6.5523,-6.5205,-6.4675,-6.4406,-6.4093,-6.3735,-6.3609,-6.3604,-6.36,-6.3371,-6.3316,-6.3321,-6.3321,-6.3321,-6.3364,-6.3657,-6.374,-6.3662,-6.335,-6.3237,-6.3241,-6.3241,-6.3235,-6.3227,-6.3208,-6.3232,-6.3286,-6.36,-6.3652,-6.375,-6.4062,-6.4101,-6.4296,-6.4842,-6.4919,-6.5114,-6.566,-6.5738,-6.5667,-6.5544,-6.5421,-6.5389,-6.5466,-6.5704,-6.573,-6.5542,-6.5333,-6.532,-6.5513,-6.5435,-6.5413,-6.5413,-6.5948,-6.6216,-6.6216,-6.7056,-6.7706,-6.8279,-6.8585,-6.9158,-2.4042,-2.7203,-3.0939,0.0,0.0,0.0,0.0,0.0,0.0,0.0,0.0,0.0,0.0,0.0,0.0,0.0,0.0,0.0,0.0,0.0,0.0,0.0,0.0,0.0,0.0,0.0,0.0,0.0,0.0,0.0,0.0,-5.7338,-5.7741,-5.8494,-5.8878,-5.9282,-5.9654,-5.9928,-6.0861,-6.2509,-6.2135,-6.2738,-6.4182,-6.4719,-6.5117,-6.5413,-6.5413,-6.5413,-6.5413,-6.5485,-6.5559,-6.5628,-6.5779,-6.5642,-6.5358,-6.5429,-6.5167,-6.4799,-6.4653,-6.4606,-6.458,-6.437,-6.4297,-6.4297,-6.4297,-6.4297,-6.4345,-6.4565,-6.4607,-6.4687,-6.492,-6.4607,-6.4213,-6.42,-6.4184,-6.4169,-6.4177,-6.417,-6.4232,-6.4462,-6.453,-6.4608,-6.488,-6.4919,-6.5114,-6.5738,-6.5816,-6.605,-6.6634,-6.6641,-6.653,-6.6329,-6.6089,-6.5897,-6.573,-6.5628,-6.5569,-6.5413,-6.581,-6.5838,-6.5413,-6.5643,-6.5796,-6.5796,-6.6636,-6.7095,-6.7095,-6.7897,-6.8623,-6.9196,-6.9464,-6.9884,-2.6498,-2.8767,0.0,0.0,0.0,0.0,0.0,0.0,0.0,0.0,0.0,0.0,0.0,0.0,0.0,0.0,0.0,0.0,0.0,0.0,0.0,0.0,0.0,0.0,0.0,0.0,0.0,0.0,0.0,0.0,0.0,-5.7388,-5.7737,-5.8381,-5.8424,-5.8872,-5.9809,-5.9809,-6.0836,-6.2892,-6.2892,-6.377,-6.5413,-6.5413,-6.5413,-6.5413,-6.5413,-6.5413,-6.5405,-6.568,-6.5908,-6.6105,-6.6105,-6.6228,-6.6411,-6.6411,-6.6563,-6.6666,-6.5808,-6.5556,-6.5468,-6.4609,-6.4336,-6.4336,-6.4336,-6.4336,-6.4501,-6.5307,-6.5506,-6.5703,-6.6483,-6.5484,-6.4229,-6.4229,-6.4185,-6.414,-6.414,-6.414,-6.4374,-6.5231,-6.5426,-6.5699,-6.6556,-6.6712,-6.6712,-6.6712,-6.6712,-6.6712,-6.6702,-6.6517,-6.6312,-6.6128,-6.589,-6.5743,-6.5743,-6.5552,-6.5413,-6.5413,-6.6216,-6.633,-6.5452,-6.6254,-6.6713,-6.6713,-6.7515,-6.7897,-6.7897,-6.8776,-6.9196,-6.9234,-7.0037,-7.0419,-2.6023,0.0,0.0,0.0,0.0,0.0,0.0,0.0,0.0,0.0,0.0,0.0,0.0,0.0,0.0,0.0,0.0,0.0,0.0,0.0,0.0,0.0,0.0,0.0,0.0,0.0,0.0,0.0,0.0,0.0,0.0,-5.7923,-5.8164,-5.8381,-5.9065,-5.9537,-5.9809,-6.0099,-6.0819,-6.1975,-6.2624,-6.377,-6.5413,-6.5413,-6.5413,-6.5413,-6.5552,-6.5651,-6.568,-6.593,-6.614,-6.64,-6.6344,-6.6451,-6.6658,-6.6672,-6.6736,-6.6745,-6.6511,-6.6439,-6.6405,-6.6131,-6.6053,-6.6058,-6.6042,-6.6047,-6.609,-6.6276,-6.634,-6.641,-6.665,-6.6312,-6.5961,-6.5961,-6.5942,-6.5933,-6.5933,-6.5933,-6.6011,-6.6244,-6.6322,-6.64,-6.6673,-6.6712,-6.6712,-6.6712,-6.6594,-6.6461,-6.6295,-6.6611,-6.6823,-6.6752,-6.7034,-6.7246,-6.7246,-6.7194,-6.7171,-6.7171,-6.74,-6.7171,-6.6369,-6.7095,-6.7553,-6.7553,-6.8394,-6.8814,-6.8814,-6.9655,-7.0037,-7.0037,-7.0304,-7.0419,-2.9,0.0,0.0,0.0,0.0,0.0,0.0,0.0,0.0,0.0,0.0,0.0,0.0,0.0,0.0,0.0,0.0,0.0,0.0,0.0,0.0,0.0,0.0,0.0,0.0,0.0,0.0,0.0,0.0,0.0,0.0,-5.8381,-5.8753,-5.895,-5.9499,-5.9874,-6.0038,-6.0285,-6.079,-6.1593,-6.2471,-6.3638,-6.5025,-6.537,-6.5523,-6.5523,-6.5718,-6.5903,-6.6089,-6.6228,-6.6387,-6.6633,-6.6566,-6.665,-6.6795,-6.6811,-6.6778,-6.6795,-6.6795,-6.6795,-6.6795,-6.6795,-6.6805,-6.682,-6.6791,-6.6796,-6.6795,-6.6717,-6.6694,-6.6681,-6.6693,-6.6712,-6.6712,-6.6712,-6.6712,-6.6712,-6.6712,-6.6712,-6.6712,-6.6712,-6.6712,-6.6712,-6.6712,-6.663,-6.6555,-6.6555,-6.6664,-6.6786,-6.6968,-6.7306,-6.7499,-6.739,-6.7676,-6.7897,-6.7897,-6.7897,-6.7897,-6.7897,-6.8203,-6.8203,-6.7706,-6.8165,-6.8432,-6.8432,-6.9234,-6.9693,-6.9693,-7.0151,-7.0419,-7.0419,-7.0419,-7.0419,0.0,0.0,0.0,0.0,0.0,0.0,0.0,0.0,0.0,0.0,0.0,0.0,0.0,0.0,0.0,0.0,0.0,0.0,0.0,0.0,0.0,0.0,0.0,0.0,0.0,0.0,0.0,0.0,0.0,0.0,0.0,-5.8835,-5.9287,-5.9772,-5.9842,-6.0038,-6.0408,-6.0408,-6.0752,-6.1516,-6.2386,-6.334,-6.4321,-6.5256,-6.5705,-6.5782,-6.5968,-6.6228,-6.6524,-6.6535,-6.6642,-6.6795,-6.6795,-6.6795,-6.6795,-6.6795,-6.6795,-6.6795,-6.6795,-6.68,-6.68,-6.68,-6.6784,-6.6795,-6.6796,-6.6795,-6.6777,-6.67,-6.6688,-6.6713,-6.6693,-6.6712,-6.6712,-6.6712,-6.6712,-6.6712,-6.6712,-6.6712,-6.6712,-6.6712,-6.6712,-6.6702,-6.6769,-6.6633,-6.6532,-6.6578,-6.7039,-6.7602,-6.8205,-6.8306,-6.8301,-6.8043,-6.8088,-6.8126,-6.8126,-6.8126,-6.8126,-6.8126,-6.8852,-6.9311,-6.9311,-6.9311,-6.9311,-6.9311,-7.0037,-7.0419,-7.0419,-7.0419,-7.0419,-7.0419,-7.0348,-7.0353,0.0,0.0,0.0,0.0,0.0,0.0,0.0,0.0,0.0,0.0,0.0,0.0,0.0,0.0,0.0,0.0,0.0,0.0,0.0,0.0,0.0,0.0,0.0,0.0,0.0,0.0,0.0,0.0,0.0,0.0,-5.8989,-5.9432,-5.9673,-5.9809,-6.0099,-6.0313,-6.0408,-6.0408,-6.0485,0.0,-6.1644,-6.2631,-6.3584,-6.5039,-6.5866,-6.6167,-6.6329,-6.6513,-6.6728,-6.672,-6.6745,-6.6795,-6.6795,-6.6795,-6.6795,-6.6795,-6.6795,-6.6795,-6.6795,-6.6813,-6.6789,-6.6789,-6.6797,-6.6789,-6.6731,-6.6717,-6.6739,-6.672,-6.6693,-6.6693,-6.6712,-6.6712,-6.6712,-6.6712,-6.6712,-6.6712,-6.6712,-6.6712,-6.6712,-6.6712,-6.6712,-6.6836,-6.7306,-6.7378,-6.7459,-6.785,-6.8,-6.8064,-6.8012,-6.8564,-6.8954,-6.8929,-6.9502,-6.9846,-6.9846,-6.9846,-6.9846,-6.9846,-7.0037,-7.0151,-7.0151,-7.0151,-7.0151,-7.0151,-7.0304,-7.0419,-7.0419,-7.0419,-7.0419,-7.0419,-7.0073,-7.027,0.0,0.0,0.0,0.0,0.0,0.0,0.0,0.0,0.0,0.0,0.0,0.0,0.0,0.0,0.0,0.0,0.0,0.0,0.0,0.0,0.0,0.0,0.0,0.0,0.0,0.0,0.0,0.0,0.0,-5.9178,-5.9467,-5.9874,-6.0099,-6.0099,-6.0285,-6.0408,-6.0408,-6.0408,-6.0425,-6.0494,-6.1478,-6.275,-6.4211,-6.545,-6.6239,-6.6528,-6.6624,-6.6689,-6.6811,-6.679,-6.6795,-6.6795,-6.6795,-6.6795,-6.6795,-6.6795,-6.6795,-6.68,-6.6817,-6.6787,-6.6795,-6.6797,-6.6789,-6.6761,-6.67,-6.6713,-6.6681,-6.6683,-6.6712,-6.6712,-6.6712,-6.6712,-6.6712,-6.6712,-6.6712,-6.6712,-6.6712,-6.6712,-6.6769,-6.7061,-6.7126,-6.7345,-6.7945,-6.7987,-6.8104,-6.8618,-6.8714,-6.8808,-6.9075,-6.9502,-6.9769,-6.9769,-7.0151,-7.0419,-7.0419,-7.0419,-7.0419,-7.0419,-7.0419,-7.0419,-7.0419,-7.0419,-7.0419,-7.0419,-7.0419,-7.0419,-7.0419,-7.0419,-7.0281,-7.0109,-7.027,-7.0495,0.0,0.0,0.0,0.0,0.0,0.0,0.0,0.0,0.0,0.0,0.0,0.0,0.0,0.0,0.0,0.0,0.0,0.0,0.0,0.0,0.0,0.0,0.0,0.0,0.0,0.0,0.0,0.0,0.0,-5.9842,-5.9906,-6.0226,-6.0408,-6.0408,-6.0408,-6.0398,-6.0425,-6.0425,-6.0494,-6.0657,-6.1649,-6.3088,-6.4973,-6.5842,-6.6457,-6.6783,-6.6791,-6.6811,-6.6795,-6.6795,-6.6795,-6.6795,-6.6795,-6.6795,-6.6795,-6.6795,-6.68,-6.6809,-6.6791,-6.6796,-6.6797,-6.6787,-6.6756,-6.6681,-6.6681,-6.6681,-6.6712,-6.6712,-6.6712,-6.6751,-6.6907,-6.6907,-6.6946,-6.7102,-6.7119,-6.7031,-6.6935,-6.7003,-6.7229,-6.7728,-6.7881,-6.8103,-6.8657,-6.8693,-6.8848,-6.9305,-6.9425,-6.9655,-7.0304,-7.0419,-7.0419,-7.0419,-7.0419,-7.0419,-7.0419,-7.0419,-7.0419,-7.0419,-7.0419,-7.0419,-7.0419,-7.0419,-7.0419,-7.0419,-7.0419,-7.0419,-7.0419,-7.0315,-7.022,-7.0043,-7.0531,-7.0696,0.0,0.0,0.0,0.0,0.0,0.0,0.0,0.0,0.0,0.0,0.0,0.0,0.0,0.0,0.0,0.0,0.0,0.0,0.0,0.0,0.0,0.0,0.0,0.0,0.0,0.0,0.0,0.0,-5.9739,-5.9937,-6.0313,-6.037,-6.0408,-6.0408,-6.0408,-6.048,-6.0584,-6.0584,-6.0681,-6.086,-6.1995,-6.3157,-6.4349,-6.5276,-6.6102,-6.6783,-6.6817,-6.6795,-6.6795,-6.6795,-6.6795,-6.6795,-6.6795,-6.6795,-6.6795,-6.6795,-6.6817,-6.6791,-6.6794,-6.6754,-6.6712,-6.6706,-6.6705,-6.6683,-6.6683,-6.6722,-6.6712,-6.6712,-6.6712,-6.6868,-6.7647,-6.7842,-6.8037,-6.8777,-6.8774,-6.8472,-6.7938,-6.8255,-6.8622,-6.8723,-6.9009,-6.9284,-6.9348,-6.9817,-7.0145,-7.0228,-7.0228,-7.0304,-7.0381,-7.0419,-7.0419,-7.0419,-7.0419,-7.0419,-7.0419,-7.0419,-7.0419,-7.0419,-7.0419,-7.0419,-7.0419,-7.0419,-7.0419,-7.0419,-7.0419,-7.0419,-7.0419,-7.0073,-7.0195,-7.0838,-7.0114,-7.0511,0.0,0.0,0.0,0.0,0.0,0.0,0.0,0.0,0.0,0.0,0.0,0.0,0.0,0.0,0.0,0.0,0.0,0.0,0.0,0.0,0.0,0.0,0.0,0.0,0.0,0.0,0.0,0.0,-6.0129,-6.0188,-6.037,-6.0408,-6.0408,-6.0408,-6.0468,-6.0533,-6.0608,-6.0727,-6.0884,-6.1142,-6.2185,-6.3234,-6.4281,-6.5133,-6.5992,-6.6817,-6.679,-6.6795,-6.6795,-6.6795,-6.6795,-6.6795,-6.6795,-6.6795,-6.68,-6.6817,-6.6789,-6.6795,-6.6752,-6.6727,-6.6688,-6.6697,-6.6702,-6.6712,-6.6712,-6.6712,-6.679,-6.7296,-6.7413,-6.7647,-6.8504,-6.8738,-6.8738,-6.8777,-6.9228,-6.9428,-6.8819,-6.8723,-6.882,-6.9159,-6.9655,-6.9996,-6.9996,-7.0247,-7.0419,-7.0419,-7.0419,-7.0419,-7.0419,-7.0419,-7.0419,-7.0419,-7.0419,-7.0419,-7.0419,-7.0419,-7.0419,-7.0419,-7.0419,-7.0419,-7.0419,-7.0419,-7.0648,-7.1107,-7.0407,-7.0179,-7.0419,-6.974,-6.9838,-7.0588,-7.0405,-7.0754,0.0,0.0,0.0,0.0,0.0,0.0,0.0,0.0,0.0,0.0,0.0,0.0,0.0,0.0,0.0,0.0,0.0,0.0,0.0,0.0,0.0,0.0,0.0,0.0,0.0,0.0,0.0,0.0,-6.0408,-6.0408,-6.0408,-6.0408,-6.0408,-6.0408,-6.0546,-6.0633,-6.0681,-6.0943,-6.1142,-6.1355,-6.2091,-6.3077,-6.4336,-6.4938,-6.5797,-6.6795,-6.6795,-6.6795,-6.6795,-6.6795,-6.6795,-6.6795,-6.6805,-6.6809,-6.6813,-6.6794,-6.6797,-6.6755,-6.6717,-6.6688,-6.6705,-6.6693,-6.6712,-6.6712,-6.6712,-6.6712,-6.6868,-6.7764,-6.7998,-6.8271,-6.9362,-6.9574,-6.9473,-6.9239,-6.9788,-7.0214,-6.9706,-6.9345,-6.9292,-6.9662,-7.008,-7.0419,-7.0419,-7.0419,-7.0419,-7.0419,-7.0419,-7.0419,-7.0419,-7.0419,-7.0419,-7.0419,-7.0419,-7.0419,-7.0419,-7.0419,-7.0419,-7.0419,-7.0419,-7.0495,-7.0724,-7.0724,-7.1073,-7.1811,-7.0764,-7.0422,-7.0896,-7.007,-7.0053,-7.0742,-7.0846,-7.1156,0.0,0.0,0.0,0.0,0.0,0.0,0.0,0.0,0.0,0.0,0.0,0.0,0.0,0.0,0.0,0.0,0.0,0.0,0.0,0.0,0.0,0.0,0.0,0.0,0.0,0.0,0.0,0.0,-6.0408,-6.0408,-6.0408,-6.0408,-6.0408,-6.0408,-6.0546,-6.0704,-6.0882,-6.1283,-6.1495,-6.1481,-6.1612,-6.259,-6.4297,-6.4336,-6.5234,-6.6795,-6.6795,-6.6795,-6.6795,-6.6795,-6.6795,-6.68,-6.6787,-6.6793,-6.6794,-6.6793,-6.6774,-6.67,-6.6694,-6.6697,-6.6712,-6.6712,-6.6712,-6.6712,-6.6712,-6.6712,-6.6868,-6.7764,-6.7998,-6.8388,-7.0102,-7.033,-7.037,-7.1148,-7.1042,-7.0733,-7.0706,-7.0706,-7.0623,-7.04,-7.0381,-7.0419,-7.0419,-7.0419,-7.0419,-7.0419,-7.0419,-7.0419,-7.0419,-7.0419,-7.0419,-7.0419,-7.0419,-7.0419,-7.0419,-7.0419,-7.0419,-7.0419,-7.0419,-7.0763,-7.1603,-7.1642,-7.1776,-7.2205,-7.1681,-7.1643,-7.209,-7.16,-7.1565,-7.1886,-7.1453,-7.1688,0.0,0.0,0.0,0.0,0.0,0.0,0.0,0.0,0.0,0.0,0.0,0.0,0.0,0.0,0.0,0.0,0.0,0.0,0.0,0.0,0.0,0.0,0.0,0.0,0.0,0.0,0.0,0.0,0.0,-6.0408,-6.0408,-6.0408,-6.0453,-6.0546,-6.0704,-6.0963,-6.1283,-6.1434,-6.1528,-6.1573,-6.1588,-6.2551,-6.4297,-6.4297,-6.5194,-6.68,-6.682,-6.6817,-6.68,-6.682,-6.6787,-6.6789,-6.6797,-6.6794,-6.6793,-6.6731,-6.6706,-6.6688,-6.6689,-6.6693,-6.6712,-6.6712,-6.7102,-6.753,-6.753,-6.792,-6.8543,-6.9401,-6.9538,-6.9692,-7.0873,-7.0982,-7.0834,-7.0992,-7.136,-7.1452,-7.0724,-7.057,-7.0508,-7.0451,-7.0419,-7.0419,-7.0419,-7.0419,-7.0419,-7.0419,-7.0419,-7.0419,-7.0419,-7.0419,-7.0419,-7.0419,-7.0419,-7.0648,-7.1183,-7.1221,-7.145,-7.2024,-7.2062,-7.2074,-7.2015,-7.2016,-7.2166,-7.2504,-7.2372,-7.2064,-7.1751,-7.1007,-7.1102,-7.1984,-7.1526,-7.1725,0.0,0.0,0.0,0.0,0.0,0.0,0.0,0.0,0.0,0.0,0.0,0.0,0.0,0.0,0.0,0.0,0.0,0.0,0.0,0.0,0.0,0.0,0.0,0.0,0.0,0.0,0.0,0.0,0.0,0.0,-6.0408,-6.0453,-6.0572,-6.0757,-6.0923,-6.1131,-6.1523,-6.1507,-6.152,-6.1595,-6.1609,-6.2563,-6.4297,-6.4297,-6.5204,-6.6813,-6.6791,-6.6789,-6.6817,-6.6795,-6.6797,-6.6797,-6.6784,-6.6774,-6.677,-6.6727,-6.6705,-6.6697,-6.6693,-6.6712,-6.6751,-6.7024,-6.753,-6.8037,-6.8349,-6.8855,-6.9479,-7.0251,-7.0314,-7.0377,-7.118,-7.1394,-7.1337,-7.0777,-7.1344,-7.168,-7.0648,-7.0648,-7.0763,-7.0457,-7.0419,-7.0419,-7.0419,-7.0419,-7.0419,-7.0419,-7.0419,-7.0419,-7.0419,-7.0419,-7.0533,-7.0801,-7.0839,-7.1183,-7.2062,-7.2138,-7.2367,-7.2941,-7.2838,-7.2698,-7.2658,-7.246,-7.2542,-7.2865,-7.2902,-7.2545,-7.1827,-7.1353,-7.1525,-7.2166,-7.1857,-7.1982,0.0,0.0,0.0,0.0,0.0,0.0,0.0,0.0,0.0,0.0,0.0,0.0,0.0,0.0,0.0,0.0,0.0,0.0,0.0,0.0,0.0,0.0,0.0,0.0,0.0,0.0,0.0,0.0,-6.037,-6.0436,-6.0436,-6.0546,-6.0757,-6.1074,-6.1131,-6.1229,-6.1484,-6.15,-6.1556,-6.1595,-6.1666,-6.2618,-6.4258,-6.4301,-6.5215,-6.6755,-6.6794,-6.6795,-6.6795,-6.6793,-6.6784,-6.6784,-6.6712,-6.6694,-6.6688,-6.6702,-6.6712,-6.6712,-6.6712,-6.6712,-6.6829,-6.7725,-6.8037,-6.8193,-6.905,-6.9362,-6.9496,-7.009,-7.0222,-7.0326,-7.0947,-7.1544,-7.1747,-7.0636,-7.1068,-7.145,-7.061,-7.1068,-7.145,-7.0572,-7.0419,-7.0419,-7.0419,-7.0419,-7.0419,-7.0419,-7.0419,-7.0419,-7.0457,-7.0457,-7.0763,-7.1642,-7.1718,-7.21,-7.2941,-7.3017,-7.3017,-7.3055,-7.2548,-7.2619,-7.349,-7.2987,-7.2902,-7.3298,-7.3298,-7.298,-7.2496,-7.298,-7.3017,-7.2496,-7.2496,-7.2496,-2.3783,0.0,0.0,0.0,0.0,0.0,0.0,0.0,0.0,0.0,0.0,0.0,0.0,0.0,0.0,0.0,0.0,0.0,0.0,0.0,0.0,0.0,0.0,0.0,0.0,0.0,0.0,0.0,-6.0494,-6.0533,-6.0533,-6.08,-6.1002,-6.1113,-6.1313,-6.1434,-6.1484,-6.1539,-6.1588,-6.1595,-6.1666,-6.2267,-6.336,-6.3969,-6.4838,-6.5897,-6.6474,-6.6731,-6.6731,-6.6717,-6.6712,-6.6751,-6.6689,-6.6702,-6.6702,-6.6722,-6.6712,-6.6712,-6.6712,-6.6712,-6.6829,-6.7725,-6.8427,-6.9089,-6.9985,-7.0551,-7.0922,-7.1109,-7.0893,-7.0632,-7.0604,-7.0724,-7.0783,-7.0457,-7.1068,-7.145,-7.061,-7.1068,-7.145,-7.0572,-7.0419,-7.0419,-7.0419,-7.0419,-7.0419,-7.0419,-7.0419,-7.0648,-7.1259,-7.1336,-7.168,-7.2559,-7.2635,-7.2979,-7.3819,-7.3571,-7.3611,-7.4181,-7.3775,-7.3454,-7.334,-7.323,-7.2986,-7.2742,-7.2686,-7.2667,-7.2496,-7.2667,-7.2667,-7.2496,-7.2496,-7.2496,-2.6435,-2.7373,0.0,0.0,0.0,0.0,0.0,0.0,0.0,0.0,0.0,0.0,0.0,0.0,0.0,0.0,0.0,0.0,0.0,0.0,0.0,0.0,0.0,0.0,0.0,-6.0179,-6.0425,-6.0468,-6.0559,-6.0642,-6.08,-6.0983,-6.1148,-6.1236,-6.1381,-6.146,-6.1484,-6.1529,-6.158,-6.1595,-6.1666,-6.2158,-6.3029,-6.3823,-6.4687,-6.5539,-6.6366,-6.6681,-6.6697,-6.6697,-6.6697,-6.6689,-6.6693,-6.6712,-6.6712,-6.6712,-6.6712,-6.6712,-6.6712,-6.6712,-6.6907,-6.8154,-6.8894,-6.9507,-7.0628,-7.1209,-7.1448,-7.1241,-7.094,-7.0593,-7.0413,-7.0686,-7.0839,-7.0495,-7.1068,-7.145,-7.061,-7.0801,-7.0992,-7.0495,-7.0419,-7.0419,-7.0419,-7.0419,-7.0533,-7.0877,-7.0954,-7.1259,-7.2138,-7.2253,-7.2559,-7.3399,-7.3514,-7.375,-7.437,-7.4142,-7.4131,-7.4417,-7.3963,-7.3616,-7.3298,-7.3087,-7.2798,-7.2496,-7.2496,-7.2496,-7.2496,-7.2496,-7.2496,-7.2496,-7.2496,-7.2496,-3.049,-3.0903,0.0,0.0,0.0,0.0,-3.7061,-3.5259,0.0,0.0,0.0,0.0,0.0,0.0,0.0,0.0,0.0,0.0,0.0,0.0,0.0,0.0,0.0,0.0,-5.8983,-5.9786,-6.0353,-6.0479,-6.058,-6.08,-6.1131,-6.1148,-6.1236,-6.1366,-6.1419,-6.146,-6.1472,-6.151,-6.1556,-6.1588,-6.1671,-6.2091,-6.2888,-6.3788,-6.4602,-6.5406,-6.6297,-6.6697,-6.6712,-6.6712,-6.6712,-6.6712,-6.6712,-6.6712,-6.6712,-6.6712,-6.6712,-6.6712,-6.6712,-6.6751,-6.7102,-6.8728,-6.9301,-6.9667,-7.1047,-7.143,-7.1339,-7.0889,-7.0563,-7.0419,-7.0419,-7.0954,-7.1374,-7.0572,-7.0992,-7.1336,-7.0572,-7.0419,-7.0419,-7.0419,-7.0419,-7.0419,-7.0419,-7.0495,-7.0801,-7.1565,-7.1756,-7.2138,-7.3017,-7.3132,-7.3437,-7.417,-7.4246,-7.437,-7.4588,-7.4544,-7.4374,-7.3963,-7.3466,-7.3193,-7.3193,-7.2742,-7.2496,-7.2496,-7.2496,-7.2496,-7.2496,-7.2496,-7.2496,-7.2496,-7.2496,-7.2496,-3.4245,-3.4733,-3.5409,-3.3344,0.0,0.0,-3.2067,-3.2405,0.0,0.0,0.0,0.0,0.0,0.0,0.0,0.0,0.0,0.0,0.0,0.0,0.0,0.0,0.0,0.0,-5.827,-5.91,-5.9634,-5.9777,-6.0538,-6.1113,-6.1337,-6.1337,-6.1352,-6.1419,-6.1434,-6.1447,-6.1433,-6.152,-6.1573,-6.1509,-6.1651,-6.1793,-6.1991,-6.35,-6.4286,-6.4541,-6.6057,-6.6683,-6.6712,-6.6712,-6.6712,-6.6712,-6.6712,-6.6712,-6.6712,-6.6712,-6.6712,-6.6712,-6.6712,-6.718,-6.786,-6.8734,-6.9468,-7.0176,-7.0951,-7.107,-7.0863,-7.0563,-7.0413,-7.0419,-7.0419,-7.0533,-7.061,-7.0457,-7.0533,-7.061,-7.0457,-7.0419,-7.0419,-7.0419,-7.0419,-7.0419,-7.0419,-7.0992,-7.1489,-7.168,-7.2291,-7.3055,-7.3858,-7.3972,-7.4135,-7.4561,-7.4598,-7.4475,-7.4154,-7.3774,-7.3516,-7.3415,-7.2963,-7.2667,-7.2667,-7.2553,-7.2496,-7.2496,-7.2496,-7.2496,-7.2496,-7.2496,-7.2496,-7.2496,-7.2496,-7.2496,-3.7887,-3.8,-3.8638,-3.7361,0.0,0.0,0.0,0.0,0.0,0.0,0.0,0.0,0.0,0.0,0.0,0.0,0.0,0.0,0.0,0.0,0.0,0.0,0.0,0.0,-5.6783,-5.7681,-5.8659,-5.9669,-6.0278,-6.0856,-6.1366,-6.1419,-6.1419,-6.1419,-6.1408,-6.1408,-6.1419,-6.15,-6.1524,-6.1502,-6.1594,-6.1638,-6.1709,-6.3433,-6.4177,-6.4263,-6.5942,-6.6712,-6.6712,-6.6712,-6.6712,-6.6712,-6.6712,-6.6712,-6.6712,-6.6712,-6.6712,-6.6751,-6.7219,-6.7564,-6.8008,-6.9166,-6.9783,-7.0176,-7.0753,-7.0783,-7.0563,-7.0413,-7.0419,-7.0419,-7.0419,-7.0419,-7.0419,-7.0419,-7.0419,-7.0419,-7.0419,-7.0419,-7.0419,-7.0419,-7.0419,-7.0419,-7.0419,-7.1107,-7.1833,-7.2291,-7.3055,-7.3896,-7.4736,-7.4597,-7.4524,-7.4708,-7.446,-7.4154,-7.3677,-7.3415,-7.3193,-7.2908,-7.2667,-7.2496,-7.2496,-7.2496,-7.2496,-7.2496,-7.2496,-7.2496,-7.2496,-7.2496,-7.2496,-7.2496,-7.2496,-7.2496,0.0,0.0,0.0,0.0,0.0,-3.8976,0.0,0.0,0.0,-3.8901,0.0,0.0,0.0,0.0,0.0,0.0,0.0,0.0,0.0,0.0,0.0,0.0,0.0,0.0,0.0,-5.5307,-5.675,-5.9288,-5.8954,-5.936,-6.107,-6.1147,-6.1225,-6.1381,-6.1419,-6.1433,-6.1421,-6.1478,-6.1509,-6.152,-6.1562,-6.1612,-6.166,-6.3403,-6.4154,-6.4218,-6.5933,-6.6712,-6.6712,-6.6712,-6.6712,-6.6712,-6.6712,-6.6712,-6.6712,-6.6907,-6.6946,-6.7052,-6.7887,-6.8125,-6.8319,-6.9649,-7.0018,-7.0103,-7.0563,-7.0563,-7.0419,-7.0419,-7.0419,-7.0419,-7.0419,-7.0419,-7.0419,-7.0419,-7.0419,-7.0419,-7.0419,-7.0419,-7.0419,-7.0419,-7.0419,-7.0419,-7.0419,-7.1259,-7.2176,-7.2902,-7.3819,-7.4663,-7.5241,-7.498,-7.4664,-7.4417,-7.4064,-7.3677,-7.3193,-7.3141,-7.2963,-7.2496,-7.2496,-7.2496,-7.2496,-7.2496,-7.2496,-7.2496,-7.2496,-7.2496,-7.2496,-7.2496,-7.2496,-7.2496,-7.2496,-7.2496,0.0,0.0,0.0,0.0,-4.397,0.0,0.0,0.0,-3.8188,-3.5784,0.0,0.0,0.0,0.0,0.0,0.0,0.0,0.0,0.0,0.0,0.0,0.0,0.0,0.0,0.0,-5.0984,-5.2693,-5.7482,-5.5009,-5.532,-5.9982,-6.0254,-6.0604,-6.1381,-6.1419,-6.1434,-6.1471,-6.151,-6.1529,-6.1598,-6.1584,-6.1588,-6.166,-6.3319,-6.4111,-6.4218,-6.5933,-6.6712,-6.6712,-6.6712,-6.6712,-6.6712,-6.6712,-6.6712,-6.679,-6.7569,-6.7842,-6.7938,-6.8603,-6.9282,-6.9878,-6.9663,-6.9942,-7.0362,-7.0407,-7.0413,-7.0419,-7.0419,-7.0419,-7.0419,-7.0419,-7.0419,-7.0419,-7.0419,-7.0419,-7.0419,-7.0419,-7.0419,-7.0419,-7.0419,-7.0419,-7.0419,-7.0419,-7.1756,-7.2902,-7.2979,-7.4316,-7.5241,-7.4825,-7.4745,-7.4374,-7.3566,-7.3415,-7.3193,-7.2667,-7.261,-7.2553,-7.2496,-7.2496,-7.2496,-7.2496,-7.2496,-7.2496,-7.2496,-7.2496,-7.2496,-7.2496,-7.2496,-7.2496,-7.2496,-7.2496,-7.2496,0.0,0.0,0.0,0.0,0.0,0.0,-4.0365,0.0,-3.8863,0.0,0.0,0.0,0.0,0.0,0.0,0.0,0.0,0.0,0.0,0.0,0.0,0.0,0.0,0.0,0.0,0.0,0.0,0.0,-5.2329,-5.2989,-5.7651,-5.8817,-5.9749,-6.0604,-6.1187,-6.1479,-6.149,-6.1529,-6.1561,-6.16,-6.1593,-6.158,-6.1651,-6.3331,-6.4101,-6.4218,-6.5933,-6.6712,-6.6712,-6.6712,-6.6712,-6.6712,-6.6712,-6.6712,-6.6829,-6.7686,-6.7915,-6.7956,-6.9205,-6.9731,-6.9803,-6.9951,-7.0171,-7.0419,-7.0419,-7.0419,-7.0419,-7.0419,-7.0419,-7.0419,-7.0419,-7.0419,-7.0419,-7.0419,-7.0419,-7.0419,-7.0419,-7.0419,-7.0419,-7.0419,-7.0801,-7.1145,-7.1145,-7.2176,-7.317,-7.3628,-7.4482,-7.4942,-7.4745,-7.4199,-7.3725,-7.335,-7.298,-7.2742,-7.2496,-7.2496,-7.2496,-7.2496,-7.2496,-7.2496,-7.2496,-7.2496,-7.2496,-7.2496,-7.2496,-7.2496,-7.2496,-7.2496,-7.2496,-7.2496,-7.2496,-7.2496,-4.8025,0.0,0.0,0.0,0.0,0.0,0.0,0.0,0.0,0.0,0.0,0.0,0.0,0.0,0.0,0.0,0.0,0.0,0.0,0.0,0.0,0.0,0.0,0.0,0.0,0.0,0.0,0.0,0.0,-4.992,-5.5631,-5.7301,-5.8713,-6.0074,-6.1022,-6.1517,-6.1524,-6.1598,-6.1594,-6.1616,-6.1602,-6.1586,-6.1646,-6.3322,-6.4101,-6.4218,-6.5933,-6.6712,-6.6712,-6.6712,-6.6712,-6.6702,-6.6641,-6.6797,-6.713,-6.7954,-6.8267,-6.8513,-6.9884,-7.0096,-6.9846,-7.0254,-7.0419,-7.0419,-7.0419,-7.0419,-7.0419,-7.0419,-7.0419,-7.0419,-7.0419,-7.0419,-7.0419,-7.0419,-7.0419,-7.0419,-7.0419,-7.0419,-7.0419,-7.0419,-7.1107,-7.1723,-7.1811,-7.2574,-7.3375,-7.3911,-7.4292,-7.446,-7.4331,-7.3725,-7.3246,-7.3087,-7.2742,-7.2496,-7.2496,-7.2496,-7.2496,-7.2496,-7.2496,-7.2496,-7.2496,-7.2496,-7.2496,-7.2496,-7.2496,-7.2496,-7.2496,-7.2496,-7.2496,-7.2496,-7.2496,-7.2496,0.0,0.0,0.0,-4.5772,0.0,0.0,0.0,0.0,-4.2693,0.0,0.0,0.0,0.0,0.0,-3.9687,-3.7243,0.0,0.0,0.0,0.0,0.0,0.0,0.0,0.0,0.0,0.0,0.0,0.0,0.0,0.0,-5.4543,-5.5903,-5.7558,-6.0117,-6.1023,-6.153,-6.1601,-6.1601,-6.1587,-6.1602,-6.1612,-6.1586,-6.1646,-6.3322,-6.4101,-6.4218,-6.5933,-6.6712,-6.6712,-6.6712,-6.6712,-6.6702,-6.6489,-6.7035,-6.8015,-6.8667,-6.9383,-7.0188,-7.0643,-7.0613,-7.0381,-7.0381,-7.0419,-7.0419,-7.0419,-7.0419,-7.0419,-7.0419,-7.0419,-7.0419,-7.0419,-7.0419,-7.0419,-7.0419,-7.0419,-7.0419,-7.0419,-7.0419,-7.0419,-7.0419,-7.1107,-7.1807,-7.213,-7.2924,-7.3492,-7.353,-7.3797,-7.3869,-7.3364,-7.335,-7.3087,-7.261,-7.2496,-7.2496,-7.2496,-7.2496,-7.2496,-7.2496,-7.2496,-7.2496,-7.2496,-7.2496,-7.2496,-7.2496,-7.2496,-7.2496,-7.2496,-7.2496,-7.2496,-7.2496,-7.2496,-7.2496,0.0,0.0,-5.3166,-4.9094,0.0,0.0,0.0,0.0,0.0,0.0,0.0,0.0,0.0,-4.1412,-4.0086,-3.8774,-3.7239,-3.5327,0.0,0.0,0.0,0.0,0.0,0.0,0.0,0.0,0.0,0.0,-4.3277,0.0,0.0,-5.4635,-5.7021,-5.8421,-6.05,-6.1594,-6.1601,-6.1631,-6.1642,-6.1595,-6.1588,-6.1603,-6.1646,-6.3322,-6.4101,-6.4218,-6.5933,-6.6712,-6.6712,-6.6712,-6.663,-6.6503,-6.6407,-6.7215,-6.8428,-6.8645,-6.9227,-7.0057,-7.0431,-7.0477,-7.0419,-7.0419,-7.0419,-7.0419,-7.0419,-7.0419,-7.0419,-7.0419,-7.0419,-7.0419,-7.0419,-7.0419,-7.0572,-7.1107,-7.0839,-7.0572,-7.1145,-7.1259,-7.1259,-7.1259,-7.2122,-7.3003,-7.3455,-7.3468,-7.3457,-7.3778,-7.3634,-7.3466,-7.335,-7.3017,-7.2686,-7.2496,-7.2496,-7.2496,-7.2496,-7.2496,-7.2496,-7.2496,-7.2496,-7.2496,-7.2496,-7.2496,-7.2496,-7.2496,-7.2496,-7.2496,-7.2496,-7.2496,-7.2496,-7.2496,-7.2496,-7.2496,-5.4428,-5.5172,0.0,-5.1726,-5.0558,0.0,-4.4611,0.0,-4.518,0.0,0.0,0.0,0.0,0.0,-4.1648,-4.0575,-3.8326,-3.5624,0.0,-3.2516,0.0,0.0,0.0,0.0,0.0,0.0,-3.8538,-4.2384,0.0,0.0,0.0,0.0,-5.6464,-5.764,-6.0227,-6.1601,-6.1635,-6.1694,-6.1666,-6.1595,-6.1595,-6.1612,-6.1646,-6.3322,-6.4101,-6.4218,-6.5933,-6.6712,-6.6712,-6.6712,-6.6555,-6.6415,-6.6622,-6.7503,-6.8584,-6.8536,-6.9177,-7.0105,-7.0317,-7.0419,-7.0419,-7.0419,-7.0419,-7.0419,-7.0419,-7.0419,-7.0419,-7.0419,-7.0419,-7.0419,-7.0419,-7.0648,-7.0992,-7.1565,-7.1527,-7.1489,-7.2024,-7.2138,-7.2138,-7.2138,-7.2888,-7.357,-7.3649,-7.3446,-7.3466,-7.3963,-7.3466,-7.3017,-7.3017,-7.2686,-7.2496,-7.2496,-7.2496,-7.2496,-7.2496,-7.2496,-7.2496,-7.2496,-7.2496,-7.2496,-7.2496,-7.2496,-7.2496,-7.2496,-7.2496,-7.2496,-7.2496,-7.2496,-7.2496,-7.2496,-7.2496,-7.2496]}]]